<?xml version="1.0" encoding="UTF-8" standalone="no" ?>
<gpx xmlns="http://www.topografix.com/GPX/1/1" xmlns:xsi="http://www.w3.org/2001/XMLSchema-instance" xsi:schemaLocation="http://www.topografix.com/GPX/1/1 http://www.topografix.com/GPX/1/1/gpx.xsd" version="1.1" creator="VisuGPX - https://www.visugpx.com">
  <metadata>
    <name>Moutarra Barbe</name>
    <desc><![CDATA[[url][/url]
[img][/img]
description à venir]]></desc>
  </metadata>
  <trk>
    <name><![CDATA[Moutarra Barbe]]></name>
    <trkseg>
      <trkpt lat="42.90557" lon="0.10398">
        <ele>1320</ele>
        <time>2015-01-10T08:20:07Z</time>
      </trkpt>
      <trkpt lat="42.90557" lon="0.10398">
        <ele>1324</ele>
        <time>2015-01-10T08:20:08Z</time>
      </trkpt>
      <trkpt lat="42.90557" lon="0.10398">
        <ele>1331</ele>
        <time>2015-01-10T08:20:09Z</time>
      </trkpt>
      <trkpt lat="42.90557" lon="0.10398">
        <ele>1336</ele>
        <time>2015-01-10T08:20:10Z</time>
      </trkpt>
      <trkpt lat="42.90556" lon="0.10398">
        <ele>1341</ele>
        <time>2015-01-10T08:20:11Z</time>
      </trkpt>
      <trkpt lat="42.90555" lon="0.10398">
        <ele>1346</ele>
        <time>2015-01-10T08:20:12Z</time>
      </trkpt>
      <trkpt lat="42.90554" lon="0.10398">
        <ele>1351</ele>
        <time>2015-01-10T08:20:13Z</time>
      </trkpt>
      <trkpt lat="42.90553" lon="0.10398">
        <ele>1356</ele>
        <time>2015-01-10T08:20:14Z</time>
      </trkpt>
      <trkpt lat="42.90553" lon="0.10399">
        <ele>1361</ele>
        <time>2015-01-10T08:20:15Z</time>
      </trkpt>
      <trkpt lat="42.90553" lon="0.10399">
        <ele>1365</ele>
        <time>2015-01-10T08:20:16Z</time>
      </trkpt>
      <trkpt lat="42.90552" lon="0.10398">
        <ele>1370</ele>
        <time>2015-01-10T08:20:17Z</time>
      </trkpt>
      <trkpt lat="42.90553" lon="0.10397">
        <ele>1374</ele>
        <time>2015-01-10T08:20:18Z</time>
      </trkpt>
      <trkpt lat="42.90552" lon="0.10397">
        <ele>1379</ele>
        <time>2015-01-10T08:20:19Z</time>
      </trkpt>
      <trkpt lat="42.90552" lon="0.10397">
        <ele>1383</ele>
        <time>2015-01-10T08:20:20Z</time>
      </trkpt>
      <trkpt lat="42.90552" lon="0.10396">
        <ele>1387</ele>
        <time>2015-01-10T08:20:21Z</time>
      </trkpt>
      <trkpt lat="42.90552" lon="0.10397">
        <ele>1391</ele>
        <time>2015-01-10T08:20:22Z</time>
      </trkpt>
      <trkpt lat="42.90552" lon="0.10397">
        <ele>1395</ele>
        <time>2015-01-10T08:20:23Z</time>
      </trkpt>
      <trkpt lat="42.90552" lon="0.10397">
        <ele>1397</ele>
        <time>2015-01-10T08:20:24Z</time>
      </trkpt>
      <trkpt lat="42.90552" lon="0.10396">
        <ele>1401</ele>
        <time>2015-01-10T08:20:25Z</time>
      </trkpt>
      <trkpt lat="42.90552" lon="0.10397">
        <ele>1405</ele>
        <time>2015-01-10T08:20:26Z</time>
      </trkpt>
      <trkpt lat="42.90552" lon="0.10396">
        <ele>1408</ele>
        <time>2015-01-10T08:20:27Z</time>
      </trkpt>
      <trkpt lat="42.90552" lon="0.10396">
        <ele>1418</ele>
        <time>2015-01-10T08:20:29Z</time>
      </trkpt>
      <trkpt lat="42.90552" lon="0.10397">
        <ele>1417</ele>
        <time>2015-01-10T08:20:30Z</time>
      </trkpt>
      <trkpt lat="42.90552" lon="0.10397">
        <ele>1420</ele>
        <time>2015-01-10T08:20:31Z</time>
      </trkpt>
      <trkpt lat="42.90551" lon="0.10397">
        <ele>1426</ele>
        <time>2015-01-10T08:20:33Z</time>
      </trkpt>
      <trkpt lat="42.90552" lon="0.10397">
        <ele>1431</ele>
        <time>2015-01-10T08:20:35Z</time>
      </trkpt>
      <trkpt lat="42.90552" lon="0.10398">
        <ele>1435</ele>
        <time>2015-01-10T08:20:37Z</time>
      </trkpt>
      <trkpt lat="42.90551" lon="0.10398">
        <ele>1440</ele>
        <time>2015-01-10T08:20:39Z</time>
      </trkpt>
      <trkpt lat="42.90551" lon="0.10398">
        <ele>1444</ele>
        <time>2015-01-10T08:20:41Z</time>
      </trkpt>
      <trkpt lat="42.90551" lon="0.10399">
        <ele>1448</ele>
        <time>2015-01-10T08:20:43Z</time>
      </trkpt>
      <trkpt lat="42.9055" lon="0.10398">
        <ele>1453</ele>
        <time>2015-01-10T08:20:46Z</time>
      </trkpt>
      <trkpt lat="42.9055" lon="0.10397">
        <ele>1457</ele>
        <time>2015-01-10T08:20:49Z</time>
      </trkpt>
      <trkpt lat="42.9055" lon="0.10396">
        <ele>1460</ele>
        <time>2015-01-10T08:20:51Z</time>
      </trkpt>
      <trkpt lat="42.9055" lon="0.10395">
        <ele>1465</ele>
        <time>2015-01-10T08:20:54Z</time>
      </trkpt>
      <trkpt lat="42.90551" lon="0.10395">
        <ele>1468</ele>
        <time>2015-01-10T08:20:57Z</time>
      </trkpt>
      <trkpt lat="42.90551" lon="0.10395">
        <ele>1471</ele>
        <time>2015-01-10T08:21:00Z</time>
      </trkpt>
      <trkpt lat="42.90551" lon="0.10395">
        <ele>1474</ele>
        <time>2015-01-10T08:21:03Z</time>
      </trkpt>
      <trkpt lat="42.90551" lon="0.10396">
        <ele>1477</ele>
        <time>2015-01-10T08:21:06Z</time>
      </trkpt>
      <trkpt lat="42.9055" lon="0.10397">
        <ele>1481</ele>
        <time>2015-01-10T08:21:10Z</time>
      </trkpt>
      <trkpt lat="42.90551" lon="0.10397">
        <ele>1482</ele>
        <time>2015-01-10T08:21:13Z</time>
      </trkpt>
      <trkpt lat="42.90551" lon="0.10398">
        <ele>1483</ele>
        <time>2015-01-10T08:21:16Z</time>
      </trkpt>
      <trkpt lat="42.9055" lon="0.10398">
        <ele>1487</ele>
        <time>2015-01-10T08:21:21Z</time>
      </trkpt>
      <trkpt lat="42.90551" lon="0.10397">
        <ele>1489</ele>
        <time>2015-01-10T08:21:26Z</time>
      </trkpt>
      <trkpt lat="42.90551" lon="0.10399">
        <ele>1493</ele>
        <time>2015-01-10T08:21:34Z</time>
      </trkpt>
      <trkpt lat="42.90551" lon="0.10399">
        <ele>1496</ele>
        <time>2015-01-10T08:21:45Z</time>
      </trkpt>
      <trkpt lat="42.90551" lon="0.104">
        <ele>1499</ele>
        <time>2015-01-10T08:21:59Z</time>
      </trkpt>
      <trkpt lat="42.9055" lon="0.10399">
        <ele>1500</ele>
        <time>2015-01-10T08:22:19Z</time>
      </trkpt>
      <trkpt lat="42.90549" lon="0.10398">
        <ele>1499</ele>
        <time>2015-01-10T08:22:45Z</time>
      </trkpt>
      <trkpt lat="42.90551" lon="0.10398">
        <ele>1500</ele>
        <time>2015-01-10T08:23:08Z</time>
      </trkpt>
      <trkpt lat="42.90549" lon="0.10398">
        <ele>1500</ele>
        <time>2015-01-10T08:23:24Z</time>
      </trkpt>
      <trkpt lat="42.9055" lon="0.10398">
        <ele>1500</ele>
        <time>2015-01-10T08:23:35Z</time>
      </trkpt>
      <trkpt lat="42.90552" lon="0.104">
        <ele>1500</ele>
        <time>2015-01-10T08:23:59Z</time>
      </trkpt>
      <trkpt lat="42.90551" lon="0.10399">
        <ele>1499</ele>
        <time>2015-01-10T08:24:25Z</time>
      </trkpt>
      <trkpt lat="42.90553" lon="0.10397">
        <ele>1500</ele>
        <time>2015-01-10T08:24:52Z</time>
      </trkpt>
      <trkpt lat="42.90556" lon="0.10396">
        <ele>1499</ele>
        <time>2015-01-10T08:25:25Z</time>
      </trkpt>
      <trkpt lat="42.90551" lon="0.10399">
        <ele>1500</ele>
        <time>2015-01-10T08:25:55Z</time>
      </trkpt>
      <trkpt lat="42.90551" lon="0.10398">
        <ele>1500</ele>
        <time>2015-01-10T08:26:18Z</time>
      </trkpt>
      <trkpt lat="42.90552" lon="0.10398">
        <ele>1500</ele>
        <time>2015-01-10T08:26:52Z</time>
      </trkpt>
      <trkpt lat="42.90552" lon="0.10397">
        <ele>1502</ele>
        <time>2015-01-10T08:27:02Z</time>
      </trkpt>
      <trkpt lat="42.90551" lon="0.10398">
        <ele>1501</ele>
        <time>2015-01-10T08:27:14Z</time>
      </trkpt>
      <trkpt lat="42.90548" lon="0.10404">
        <ele>1502</ele>
        <time>2015-01-10T08:27:19Z</time>
      </trkpt>
      <trkpt lat="42.90533" lon="0.1043">
        <ele>1504</ele>
        <time>2015-01-10T08:27:35Z</time>
      </trkpt>
      <trkpt lat="42.9052" lon="0.10453">
        <ele>1506</ele>
        <time>2015-01-10T08:27:50Z</time>
      </trkpt>
      <trkpt lat="42.90521" lon="0.10458">
        <ele>1506</ele>
        <time>2015-01-10T08:27:54Z</time>
      </trkpt>
      <trkpt lat="42.90518" lon="0.10472">
        <ele>1507</ele>
        <time>2015-01-10T08:28:06Z</time>
      </trkpt>
      <trkpt lat="42.90519" lon="0.10476">
        <ele>1508</ele>
        <time>2015-01-10T08:28:10Z</time>
      </trkpt>
      <trkpt lat="42.90524" lon="0.1048">
        <ele>1510</ele>
        <time>2015-01-10T08:28:17Z</time>
      </trkpt>
      <trkpt lat="42.90535" lon="0.10484">
        <ele>1513</ele>
        <time>2015-01-10T08:28:31Z</time>
      </trkpt>
      <trkpt lat="42.90536" lon="0.10483">
        <ele>1514</ele>
        <time>2015-01-10T08:28:34Z</time>
      </trkpt>
      <trkpt lat="42.90545" lon="0.10487">
        <ele>1518</ele>
        <time>2015-01-10T08:28:48Z</time>
      </trkpt>
      <trkpt lat="42.90549" lon="0.10489">
        <ele>1520</ele>
        <time>2015-01-10T08:28:54Z</time>
      </trkpt>
      <trkpt lat="42.90556" lon="0.10489">
        <ele>1522</ele>
        <time>2015-01-10T08:29:01Z</time>
      </trkpt>
      <trkpt lat="42.90565" lon="0.10493">
        <ele>1525</ele>
        <time>2015-01-10T08:29:13Z</time>
      </trkpt>
      <trkpt lat="42.90571" lon="0.10499">
        <ele>1527</ele>
        <time>2015-01-10T08:29:25Z</time>
      </trkpt>
      <trkpt lat="42.90577" lon="0.10504">
        <ele>1528</ele>
        <time>2015-01-10T08:29:38Z</time>
      </trkpt>
      <trkpt lat="42.90581" lon="0.10509">
        <ele>1531</ele>
        <time>2015-01-10T08:29:51Z</time>
      </trkpt>
      <trkpt lat="42.90585" lon="0.10514">
        <ele>1533</ele>
        <time>2015-01-10T08:30:03Z</time>
      </trkpt>
      <trkpt lat="42.90591" lon="0.1052">
        <ele>1536</ele>
        <time>2015-01-10T08:30:17Z</time>
      </trkpt>
      <trkpt lat="42.90595" lon="0.10528">
        <ele>1538</ele>
        <time>2015-01-10T08:30:29Z</time>
      </trkpt>
      <trkpt lat="42.906" lon="0.10534">
        <ele>1541</ele>
        <time>2015-01-10T08:30:42Z</time>
      </trkpt>
      <trkpt lat="42.90601" lon="0.10543">
        <ele>1543</ele>
        <time>2015-01-10T08:30:54Z</time>
      </trkpt>
      <trkpt lat="42.90605" lon="0.10555">
        <ele>1547</ele>
        <time>2015-01-10T08:31:06Z</time>
      </trkpt>
      <trkpt lat="42.90606" lon="0.1056">
        <ele>1547</ele>
        <time>2015-01-10T08:31:11Z</time>
      </trkpt>
      <trkpt lat="42.9061" lon="0.10568">
        <ele>1549</ele>
        <time>2015-01-10T08:31:23Z</time>
      </trkpt>
      <trkpt lat="42.90613" lon="0.10572">
        <ele>1551</ele>
        <time>2015-01-10T08:31:32Z</time>
      </trkpt>
      <trkpt lat="42.90613" lon="0.10572">
        <ele>1551</ele>
        <time>2015-01-10T08:31:33Z</time>
      </trkpt>
      <trkpt lat="42.90612" lon="0.1058">
        <ele>1551</ele>
        <time>2015-01-10T08:31:46Z</time>
      </trkpt>
      <trkpt lat="42.90614" lon="0.10584">
        <ele>1550</ele>
        <time>2015-01-10T08:32:00Z</time>
      </trkpt>
      <trkpt lat="42.90614" lon="0.10587">
        <ele>1550</ele>
        <time>2015-01-10T08:32:18Z</time>
      </trkpt>
      <trkpt lat="42.90614" lon="0.10584">
        <ele>1550</ele>
        <time>2015-01-10T08:32:35Z</time>
      </trkpt>
      <trkpt lat="42.90614" lon="0.10586">
        <ele>1550</ele>
        <time>2015-01-10T08:32:59Z</time>
      </trkpt>
      <trkpt lat="42.90614" lon="0.10586">
        <ele>1551</ele>
        <time>2015-01-10T08:33:19Z</time>
      </trkpt>
      <trkpt lat="42.90613" lon="0.10583">
        <ele>1550</ele>
        <time>2015-01-10T08:33:35Z</time>
      </trkpt>
      <trkpt lat="42.90616" lon="0.10583">
        <ele>1551</ele>
        <time>2015-01-10T08:33:54Z</time>
      </trkpt>
      <trkpt lat="42.90614" lon="0.10583">
        <ele>1551</ele>
        <time>2015-01-10T08:34:09Z</time>
      </trkpt>
      <trkpt lat="42.90612" lon="0.10585">
        <ele>1551</ele>
        <time>2015-01-10T08:34:25Z</time>
      </trkpt>
      <trkpt lat="42.90613" lon="0.10586">
        <ele>1551</ele>
        <time>2015-01-10T08:34:40Z</time>
      </trkpt>
      <trkpt lat="42.90613" lon="0.10585">
        <ele>1551</ele>
        <time>2015-01-10T08:35:03Z</time>
      </trkpt>
      <trkpt lat="42.90619" lon="0.10582">
        <ele>1550</ele>
        <time>2015-01-10T08:35:20Z</time>
      </trkpt>
      <trkpt lat="42.90616" lon="0.10605">
        <ele>1553</ele>
        <time>2015-01-10T08:35:34Z</time>
      </trkpt>
      <trkpt lat="42.90619" lon="0.1063">
        <ele>1554</ele>
        <time>2015-01-10T08:35:49Z</time>
      </trkpt>
      <trkpt lat="42.90623" lon="0.10652">
        <ele>1556</ele>
        <time>2015-01-10T08:36:04Z</time>
      </trkpt>
      <trkpt lat="42.90624" lon="0.10661">
        <ele>1556</ele>
        <time>2015-01-10T08:36:13Z</time>
      </trkpt>
      <trkpt lat="42.90625" lon="0.10666">
        <ele>1556</ele>
        <time>2015-01-10T08:36:16Z</time>
      </trkpt>
      <trkpt lat="42.90627" lon="0.10675">
        <ele>1557</ele>
        <time>2015-01-10T08:36:22Z</time>
      </trkpt>
      <trkpt lat="42.9063" lon="0.10698">
        <ele>1559</ele>
        <time>2015-01-10T08:36:36Z</time>
      </trkpt>
      <trkpt lat="42.90631" lon="0.10704">
        <ele>1559</ele>
        <time>2015-01-10T08:36:40Z</time>
      </trkpt>
      <trkpt lat="42.9063" lon="0.1073">
        <ele>1561</ele>
        <time>2015-01-10T08:36:57Z</time>
      </trkpt>
      <trkpt lat="42.90631" lon="0.1074">
        <ele>1562</ele>
        <time>2015-01-10T08:37:09Z</time>
      </trkpt>
      <trkpt lat="42.90632" lon="0.10763">
        <ele>1563</ele>
        <time>2015-01-10T08:37:25Z</time>
      </trkpt>
      <trkpt lat="42.90632" lon="0.10764">
        <ele>1563</ele>
        <time>2015-01-10T08:37:27Z</time>
      </trkpt>
      <trkpt lat="42.90632" lon="0.10766">
        <ele>1564</ele>
        <time>2015-01-10T08:37:29Z</time>
      </trkpt>
      <trkpt lat="42.90633" lon="0.10776">
        <ele>1565</ele>
        <time>2015-01-10T08:37:37Z</time>
      </trkpt>
      <trkpt lat="42.90633" lon="0.10798">
        <ele>1565</ele>
        <time>2015-01-10T08:37:52Z</time>
      </trkpt>
      <trkpt lat="42.90633" lon="0.10815">
        <ele>1567</ele>
        <time>2015-01-10T08:38:03Z</time>
      </trkpt>
      <trkpt lat="42.90633" lon="0.10822">
        <ele>1567</ele>
        <time>2015-01-10T08:38:08Z</time>
      </trkpt>
      <trkpt lat="42.90637" lon="0.10845">
        <ele>1569</ele>
        <time>2015-01-10T08:38:22Z</time>
      </trkpt>
      <trkpt lat="42.90638" lon="0.10848">
        <ele>1569</ele>
        <time>2015-01-10T08:38:24Z</time>
      </trkpt>
      <trkpt lat="42.90642" lon="0.10871">
        <ele>1571</ele>
        <time>2015-01-10T08:38:39Z</time>
      </trkpt>
      <trkpt lat="42.90645" lon="0.10889">
        <ele>1572</ele>
        <time>2015-01-10T08:38:52Z</time>
      </trkpt>
      <trkpt lat="42.90645" lon="0.10891">
        <ele>1572</ele>
        <time>2015-01-10T08:38:54Z</time>
      </trkpt>
      <trkpt lat="42.90644" lon="0.10898">
        <ele>1572</ele>
        <time>2015-01-10T08:38:58Z</time>
      </trkpt>
      <trkpt lat="42.90648" lon="0.1092">
        <ele>1574</ele>
        <time>2015-01-10T08:39:13Z</time>
      </trkpt>
      <trkpt lat="42.90651" lon="0.10935">
        <ele>1576</ele>
        <time>2015-01-10T08:39:23Z</time>
      </trkpt>
      <trkpt lat="42.90654" lon="0.10958">
        <ele>1578</ele>
        <time>2015-01-10T08:39:38Z</time>
      </trkpt>
      <trkpt lat="42.90658" lon="0.10973">
        <ele>1580</ele>
        <time>2015-01-10T08:39:48Z</time>
      </trkpt>
      <trkpt lat="42.90665" lon="0.10998">
        <ele>1581</ele>
        <time>2015-01-10T08:40:04Z</time>
      </trkpt>
      <trkpt lat="42.90671" lon="0.11014">
        <ele>1583</ele>
        <time>2015-01-10T08:40:15Z</time>
      </trkpt>
      <trkpt lat="42.90678" lon="0.11034">
        <ele>1584</ele>
        <time>2015-01-10T08:40:30Z</time>
      </trkpt>
      <trkpt lat="42.90684" lon="0.11056">
        <ele>1586</ele>
        <time>2015-01-10T08:40:45Z</time>
      </trkpt>
      <trkpt lat="42.90691" lon="0.11073">
        <ele>1587</ele>
        <time>2015-01-10T08:40:58Z</time>
      </trkpt>
      <trkpt lat="42.90693" lon="0.11089">
        <ele>1588</ele>
        <time>2015-01-10T08:41:09Z</time>
      </trkpt>
      <trkpt lat="42.90698" lon="0.11108">
        <ele>1590</ele>
        <time>2015-01-10T08:41:22Z</time>
      </trkpt>
      <trkpt lat="42.90701" lon="0.11124">
        <ele>1591</ele>
        <time>2015-01-10T08:41:33Z</time>
      </trkpt>
      <trkpt lat="42.90706" lon="0.11145">
        <ele>1592</ele>
        <time>2015-01-10T08:41:48Z</time>
      </trkpt>
      <trkpt lat="42.90712" lon="0.11163">
        <ele>1594</ele>
        <time>2015-01-10T08:42:01Z</time>
      </trkpt>
      <trkpt lat="42.90717" lon="0.11175">
        <ele>1594</ele>
        <time>2015-01-10T08:42:10Z</time>
      </trkpt>
      <trkpt lat="42.90718" lon="0.11178">
        <ele>1594</ele>
        <time>2015-01-10T08:42:12Z</time>
      </trkpt>
      <trkpt lat="42.90722" lon="0.11199">
        <ele>1596</ele>
        <time>2015-01-10T08:42:26Z</time>
      </trkpt>
      <trkpt lat="42.90724" lon="0.11218">
        <ele>1596</ele>
        <time>2015-01-10T08:42:39Z</time>
      </trkpt>
      <trkpt lat="42.90725" lon="0.11241">
        <ele>1598</ele>
        <time>2015-01-10T08:42:54Z</time>
      </trkpt>
      <trkpt lat="42.90725" lon="0.11263">
        <ele>1600</ele>
        <time>2015-01-10T08:43:08Z</time>
      </trkpt>
      <trkpt lat="42.90725" lon="0.11274">
        <ele>1600</ele>
        <time>2015-01-10T08:43:16Z</time>
      </trkpt>
      <trkpt lat="42.90726" lon="0.11279">
        <ele>1601</ele>
        <time>2015-01-10T08:43:19Z</time>
      </trkpt>
      <trkpt lat="42.90726" lon="0.11283">
        <ele>1601</ele>
        <time>2015-01-10T08:43:22Z</time>
      </trkpt>
      <trkpt lat="42.90726" lon="0.11292">
        <ele>1602</ele>
        <time>2015-01-10T08:43:37Z</time>
      </trkpt>
      <trkpt lat="42.90732" lon="0.11301">
        <ele>1603</ele>
        <time>2015-01-10T08:43:51Z</time>
      </trkpt>
      <trkpt lat="42.90734" lon="0.11301">
        <ele>1602</ele>
        <time>2015-01-10T08:43:53Z</time>
      </trkpt>
      <trkpt lat="42.90737" lon="0.11297">
        <ele>1604</ele>
        <time>2015-01-10T08:43:58Z</time>
      </trkpt>
      <trkpt lat="42.90739" lon="0.11289">
        <ele>1606</ele>
        <time>2015-01-10T08:44:09Z</time>
      </trkpt>
      <trkpt lat="42.90748" lon="0.11282">
        <ele>1608</ele>
        <time>2015-01-10T08:44:22Z</time>
      </trkpt>
      <trkpt lat="42.90755" lon="0.11275">
        <ele>1609</ele>
        <time>2015-01-10T08:44:34Z</time>
      </trkpt>
      <trkpt lat="42.90757" lon="0.11269">
        <ele>1610</ele>
        <time>2015-01-10T08:44:43Z</time>
      </trkpt>
      <trkpt lat="42.90762" lon="0.11261">
        <ele>1611</ele>
        <time>2015-01-10T08:44:56Z</time>
      </trkpt>
      <trkpt lat="42.90767" lon="0.11256">
        <ele>1613</ele>
        <time>2015-01-10T08:45:11Z</time>
      </trkpt>
      <trkpt lat="42.90772" lon="0.11246">
        <ele>1615</ele>
        <time>2015-01-10T08:45:27Z</time>
      </trkpt>
      <trkpt lat="42.90773" lon="0.11247">
        <ele>1617</ele>
        <time>2015-01-10T08:45:40Z</time>
      </trkpt>
      <trkpt lat="42.90774" lon="0.11251">
        <ele>1618</ele>
        <time>2015-01-10T08:45:46Z</time>
      </trkpt>
      <trkpt lat="42.90778" lon="0.11261">
        <ele>1620</ele>
        <time>2015-01-10T08:46:01Z</time>
      </trkpt>
      <trkpt lat="42.90779" lon="0.11262">
        <ele>1620</ele>
        <time>2015-01-10T08:46:02Z</time>
      </trkpt>
      <trkpt lat="42.90787" lon="0.1127">
        <ele>1622</ele>
        <time>2015-01-10T08:46:17Z</time>
      </trkpt>
      <trkpt lat="42.90796" lon="0.11277">
        <ele>1625</ele>
        <time>2015-01-10T08:46:35Z</time>
      </trkpt>
      <trkpt lat="42.90804" lon="0.11287">
        <ele>1627</ele>
        <time>2015-01-10T08:46:52Z</time>
      </trkpt>
      <trkpt lat="42.90807" lon="0.11281">
        <ele>1629</ele>
        <time>2015-01-10T08:47:02Z</time>
      </trkpt>
      <trkpt lat="42.90811" lon="0.11269">
        <ele>1631</ele>
        <time>2015-01-10T08:47:17Z</time>
      </trkpt>
      <trkpt lat="42.90814" lon="0.11258">
        <ele>1633</ele>
        <time>2015-01-10T08:47:32Z</time>
      </trkpt>
      <trkpt lat="42.90815" lon="0.11254">
        <ele>1633</ele>
        <time>2015-01-10T08:47:47Z</time>
      </trkpt>
      <trkpt lat="42.90814" lon="0.11247">
        <ele>1635</ele>
        <time>2015-01-10T08:47:59Z</time>
      </trkpt>
      <trkpt lat="42.9082" lon="0.11247">
        <ele>1638</ele>
        <time>2015-01-10T08:48:13Z</time>
      </trkpt>
      <trkpt lat="42.90823" lon="0.11238">
        <ele>1640</ele>
        <time>2015-01-10T08:48:25Z</time>
      </trkpt>
      <trkpt lat="42.90823" lon="0.11222">
        <ele>1643</ele>
        <time>2015-01-10T08:48:43Z</time>
      </trkpt>
      <trkpt lat="42.90826" lon="0.11209">
        <ele>1645</ele>
        <time>2015-01-10T08:49:00Z</time>
      </trkpt>
      <trkpt lat="42.90828" lon="0.11201">
        <ele>1648</ele>
        <time>2015-01-10T08:49:14Z</time>
      </trkpt>
      <trkpt lat="42.90832" lon="0.11195">
        <ele>1650</ele>
        <time>2015-01-10T08:49:27Z</time>
      </trkpt>
      <trkpt lat="42.90833" lon="0.11197">
        <ele>1651</ele>
        <time>2015-01-10T08:49:37Z</time>
      </trkpt>
      <trkpt lat="42.90833" lon="0.11199">
        <ele>1652</ele>
        <time>2015-01-10T08:49:39Z</time>
      </trkpt>
      <trkpt lat="42.90837" lon="0.11209">
        <ele>1655</ele>
        <time>2015-01-10T08:49:54Z</time>
      </trkpt>
      <trkpt lat="42.90843" lon="0.11215">
        <ele>1656</ele>
        <time>2015-01-10T08:50:08Z</time>
      </trkpt>
      <trkpt lat="42.90851" lon="0.11221">
        <ele>1658</ele>
        <time>2015-01-10T08:50:23Z</time>
      </trkpt>
      <trkpt lat="42.90855" lon="0.1122">
        <ele>1659</ele>
        <time>2015-01-10T08:50:36Z</time>
      </trkpt>
      <trkpt lat="42.90856" lon="0.11216">
        <ele>1661</ele>
        <time>2015-01-10T08:50:42Z</time>
      </trkpt>
      <trkpt lat="42.90859" lon="0.11203">
        <ele>1662</ele>
        <time>2015-01-10T08:50:58Z</time>
      </trkpt>
      <trkpt lat="42.90864" lon="0.11192">
        <ele>1666</ele>
        <time>2015-01-10T08:51:13Z</time>
      </trkpt>
      <trkpt lat="42.9087" lon="0.11182">
        <ele>1668</ele>
        <time>2015-01-10T08:51:28Z</time>
      </trkpt>
      <trkpt lat="42.90874" lon="0.11169">
        <ele>1668</ele>
        <time>2015-01-10T08:51:41Z</time>
      </trkpt>
      <trkpt lat="42.90874" lon="0.11167">
        <ele>1669</ele>
        <time>2015-01-10T08:51:44Z</time>
      </trkpt>
      <trkpt lat="42.90872" lon="0.11155">
        <ele>1669</ele>
        <time>2015-01-10T08:51:55Z</time>
      </trkpt>
      <trkpt lat="42.90871" lon="0.11146">
        <ele>1669</ele>
        <time>2015-01-10T08:52:02Z</time>
      </trkpt>
      <trkpt lat="42.9087" lon="0.11133">
        <ele>1670</ele>
        <time>2015-01-10T08:52:18Z</time>
      </trkpt>
      <trkpt lat="42.90869" lon="0.11132">
        <ele>1671</ele>
        <time>2015-01-10T08:52:38Z</time>
      </trkpt>
      <trkpt lat="42.90867" lon="0.11132">
        <ele>1671</ele>
        <time>2015-01-10T08:52:56Z</time>
      </trkpt>
      <trkpt lat="42.90868" lon="0.11132">
        <ele>1671</ele>
        <time>2015-01-10T08:53:32Z</time>
      </trkpt>
      <trkpt lat="42.90869" lon="0.11131">
        <ele>1671</ele>
        <time>2015-01-10T08:53:50Z</time>
      </trkpt>
      <trkpt lat="42.90868" lon="0.11122">
        <ele>1671</ele>
        <time>2015-01-10T08:54:01Z</time>
      </trkpt>
      <trkpt lat="42.90868" lon="0.11105">
        <ele>1674</ele>
        <time>2015-01-10T08:54:15Z</time>
      </trkpt>
      <trkpt lat="42.90868" lon="0.11087">
        <ele>1674</ele>
        <time>2015-01-10T08:54:29Z</time>
      </trkpt>
      <trkpt lat="42.9087" lon="0.11068">
        <ele>1674</ele>
        <time>2015-01-10T08:54:42Z</time>
      </trkpt>
      <trkpt lat="42.9087" lon="0.11066">
        <ele>1674</ele>
        <time>2015-01-10T08:54:43Z</time>
      </trkpt>
      <trkpt lat="42.90869" lon="0.11054">
        <ele>1674</ele>
        <time>2015-01-10T08:54:52Z</time>
      </trkpt>
      <trkpt lat="42.90876" lon="0.11038">
        <ele>1677</ele>
        <time>2015-01-10T08:55:10Z</time>
      </trkpt>
      <trkpt lat="42.90881" lon="0.11035">
        <ele>1680</ele>
        <time>2015-01-10T08:55:23Z</time>
      </trkpt>
      <trkpt lat="42.90883" lon="0.11044">
        <ele>1682</ele>
        <time>2015-01-10T08:55:35Z</time>
      </trkpt>
      <trkpt lat="42.90883" lon="0.11045">
        <ele>1683</ele>
        <time>2015-01-10T08:55:37Z</time>
      </trkpt>
      <trkpt lat="42.90888" lon="0.11056">
        <ele>1687</ele>
        <time>2015-01-10T08:55:55Z</time>
      </trkpt>
      <trkpt lat="42.90897" lon="0.11063">
        <ele>1687</ele>
        <time>2015-01-10T08:56:08Z</time>
      </trkpt>
      <trkpt lat="42.90899" lon="0.11063">
        <ele>1689</ele>
        <time>2015-01-10T08:56:16Z</time>
      </trkpt>
      <trkpt lat="42.909" lon="0.11053">
        <ele>1691</ele>
        <time>2015-01-10T08:56:29Z</time>
      </trkpt>
      <trkpt lat="42.90902" lon="0.1105">
        <ele>1692</ele>
        <time>2015-01-10T08:56:34Z</time>
      </trkpt>
      <trkpt lat="42.90906" lon="0.11059">
        <ele>1694</ele>
        <time>2015-01-10T08:56:48Z</time>
      </trkpt>
      <trkpt lat="42.90909" lon="0.1107">
        <ele>1696</ele>
        <time>2015-01-10T08:57:03Z</time>
      </trkpt>
      <trkpt lat="42.90914" lon="0.1108">
        <ele>1699</ele>
        <time>2015-01-10T08:57:18Z</time>
      </trkpt>
      <trkpt lat="42.90921" lon="0.11092">
        <ele>1701</ele>
        <time>2015-01-10T08:57:34Z</time>
      </trkpt>
      <trkpt lat="42.90927" lon="0.11103">
        <ele>1703</ele>
        <time>2015-01-10T08:57:50Z</time>
      </trkpt>
      <trkpt lat="42.90937" lon="0.11113">
        <ele>1706</ele>
        <time>2015-01-10T08:58:09Z</time>
      </trkpt>
      <trkpt lat="42.90942" lon="0.1112">
        <ele>1708</ele>
        <time>2015-01-10T08:58:25Z</time>
      </trkpt>
      <trkpt lat="42.90947" lon="0.11127">
        <ele>1709</ele>
        <time>2015-01-10T08:58:41Z</time>
      </trkpt>
      <trkpt lat="42.90949" lon="0.11129">
        <ele>1710</ele>
        <time>2015-01-10T08:58:52Z</time>
      </trkpt>
      <trkpt lat="42.90948" lon="0.11114">
        <ele>1712</ele>
        <time>2015-01-10T08:59:08Z</time>
      </trkpt>
      <trkpt lat="42.90949" lon="0.11099">
        <ele>1715</ele>
        <time>2015-01-10T08:59:25Z</time>
      </trkpt>
      <trkpt lat="42.90951" lon="0.11088">
        <ele>1718</ele>
        <time>2015-01-10T08:59:43Z</time>
      </trkpt>
      <trkpt lat="42.90951" lon="0.1109">
        <ele>1718</ele>
        <time>2015-01-10T08:59:45Z</time>
      </trkpt>
      <trkpt lat="42.90957" lon="0.111">
        <ele>1720</ele>
        <time>2015-01-10T09:00:01Z</time>
      </trkpt>
      <trkpt lat="42.90963" lon="0.11107">
        <ele>1722</ele>
        <time>2015-01-10T09:00:19Z</time>
      </trkpt>
      <trkpt lat="42.90968" lon="0.1111">
        <ele>1724</ele>
        <time>2015-01-10T09:00:34Z</time>
      </trkpt>
      <trkpt lat="42.90969" lon="0.11108">
        <ele>1724</ele>
        <time>2015-01-10T09:00:39Z</time>
      </trkpt>
      <trkpt lat="42.90969" lon="0.11098">
        <ele>1726</ele>
        <time>2015-01-10T09:00:53Z</time>
      </trkpt>
      <trkpt lat="42.9097" lon="0.11096">
        <ele>1728</ele>
        <time>2015-01-10T09:00:58Z</time>
      </trkpt>
      <trkpt lat="42.90971" lon="0.11085">
        <ele>1729</ele>
        <time>2015-01-10T09:01:12Z</time>
      </trkpt>
      <trkpt lat="42.90972" lon="0.11078">
        <ele>1730</ele>
        <time>2015-01-10T09:01:24Z</time>
      </trkpt>
      <trkpt lat="42.90972" lon="0.11072">
        <ele>1730</ele>
        <time>2015-01-10T09:01:36Z</time>
      </trkpt>
      <trkpt lat="42.90973" lon="0.11064">
        <ele>1731</ele>
        <time>2015-01-10T09:01:47Z</time>
      </trkpt>
      <trkpt lat="42.90975" lon="0.11058">
        <ele>1731</ele>
        <time>2015-01-10T09:01:58Z</time>
      </trkpt>
      <trkpt lat="42.90975" lon="0.11052">
        <ele>1732</ele>
        <time>2015-01-10T09:02:10Z</time>
      </trkpt>
      <trkpt lat="42.9098" lon="0.11045">
        <ele>1734</ele>
        <time>2015-01-10T09:02:23Z</time>
      </trkpt>
      <trkpt lat="42.90981" lon="0.11034">
        <ele>1736</ele>
        <time>2015-01-10T09:02:37Z</time>
      </trkpt>
      <trkpt lat="42.90982" lon="0.11021">
        <ele>1737</ele>
        <time>2015-01-10T09:02:52Z</time>
      </trkpt>
      <trkpt lat="42.90982" lon="0.11007">
        <ele>1740</ele>
        <time>2015-01-10T09:03:04Z</time>
      </trkpt>
      <trkpt lat="42.90983" lon="0.10996">
        <ele>1741</ele>
        <time>2015-01-10T09:03:15Z</time>
      </trkpt>
      <trkpt lat="42.90983" lon="0.10989">
        <ele>1741</ele>
        <time>2015-01-10T09:03:27Z</time>
      </trkpt>
      <trkpt lat="42.90981" lon="0.10979">
        <ele>1741</ele>
        <time>2015-01-10T09:03:38Z</time>
      </trkpt>
      <trkpt lat="42.90977" lon="0.10966">
        <ele>1741</ele>
        <time>2015-01-10T09:03:51Z</time>
      </trkpt>
      <trkpt lat="42.90975" lon="0.10953">
        <ele>1742</ele>
        <time>2015-01-10T09:04:03Z</time>
      </trkpt>
      <trkpt lat="42.90971" lon="0.10943">
        <ele>1743</ele>
        <time>2015-01-10T09:04:17Z</time>
      </trkpt>
      <trkpt lat="42.9097" lon="0.10937">
        <ele>1743</ele>
        <time>2015-01-10T09:04:23Z</time>
      </trkpt>
      <trkpt lat="42.90966" lon="0.10926">
        <ele>1745</ele>
        <time>2015-01-10T09:04:35Z</time>
      </trkpt>
      <trkpt lat="42.90966" lon="0.10926">
        <ele>1744</ele>
        <time>2015-01-10T09:04:36Z</time>
      </trkpt>
      <trkpt lat="42.90964" lon="0.10915">
        <ele>1745</ele>
        <time>2015-01-10T09:04:51Z</time>
      </trkpt>
      <trkpt lat="42.90965" lon="0.10905">
        <ele>1746</ele>
        <time>2015-01-10T09:05:04Z</time>
      </trkpt>
      <trkpt lat="42.90964" lon="0.10893">
        <ele>1746</ele>
        <time>2015-01-10T09:05:18Z</time>
      </trkpt>
      <trkpt lat="42.90964" lon="0.10883">
        <ele>1748</ele>
        <time>2015-01-10T09:05:28Z</time>
      </trkpt>
      <trkpt lat="42.90965" lon="0.10867">
        <ele>1750</ele>
        <time>2015-01-10T09:05:44Z</time>
      </trkpt>
      <trkpt lat="42.90965" lon="0.10856">
        <ele>1750</ele>
        <time>2015-01-10T09:05:57Z</time>
      </trkpt>
      <trkpt lat="42.90964" lon="0.10849">
        <ele>1750</ele>
        <time>2015-01-10T09:06:04Z</time>
      </trkpt>
      <trkpt lat="42.90962" lon="0.10838">
        <ele>1750</ele>
        <time>2015-01-10T09:06:19Z</time>
      </trkpt>
      <trkpt lat="42.90963" lon="0.10826">
        <ele>1752</ele>
        <time>2015-01-10T09:06:33Z</time>
      </trkpt>
      <trkpt lat="42.90962" lon="0.10818">
        <ele>1753</ele>
        <time>2015-01-10T09:06:42Z</time>
      </trkpt>
      <trkpt lat="42.90962" lon="0.10804">
        <ele>1753</ele>
        <time>2015-01-10T09:06:58Z</time>
      </trkpt>
      <trkpt lat="42.9096" lon="0.10791">
        <ele>1755</ele>
        <time>2015-01-10T09:07:14Z</time>
      </trkpt>
      <trkpt lat="42.90958" lon="0.1078">
        <ele>1756</ele>
        <time>2015-01-10T09:07:27Z</time>
      </trkpt>
      <trkpt lat="42.90959" lon="0.10764">
        <ele>1758</ele>
        <time>2015-01-10T09:07:42Z</time>
      </trkpt>
      <trkpt lat="42.90959" lon="0.10759">
        <ele>1759</ele>
        <time>2015-01-10T09:07:58Z</time>
      </trkpt>
      <trkpt lat="42.9096" lon="0.10746">
        <ele>1760</ele>
        <time>2015-01-10T09:08:14Z</time>
      </trkpt>
      <trkpt lat="42.90962" lon="0.1073">
        <ele>1762</ele>
        <time>2015-01-10T09:08:29Z</time>
      </trkpt>
      <trkpt lat="42.90964" lon="0.10714">
        <ele>1764</ele>
        <time>2015-01-10T09:08:45Z</time>
      </trkpt>
      <trkpt lat="42.90969" lon="0.10703">
        <ele>1765</ele>
        <time>2015-01-10T09:08:59Z</time>
      </trkpt>
      <trkpt lat="42.9097" lon="0.107">
        <ele>1766</ele>
        <time>2015-01-10T09:09:02Z</time>
      </trkpt>
      <trkpt lat="42.90979" lon="0.10692">
        <ele>1768</ele>
        <time>2015-01-10T09:09:19Z</time>
      </trkpt>
      <trkpt lat="42.90987" lon="0.10684">
        <ele>1769</ele>
        <time>2015-01-10T09:09:32Z</time>
      </trkpt>
      <trkpt lat="42.90993" lon="0.10672">
        <ele>1771</ele>
        <time>2015-01-10T09:09:47Z</time>
      </trkpt>
      <trkpt lat="42.91002" lon="0.1066">
        <ele>1773</ele>
        <time>2015-01-10T09:10:03Z</time>
      </trkpt>
      <trkpt lat="42.91005" lon="0.10656">
        <ele>1773</ele>
        <time>2015-01-10T09:10:25Z</time>
      </trkpt>
      <trkpt lat="42.91013" lon="0.10645">
        <ele>1774</ele>
        <time>2015-01-10T09:10:39Z</time>
      </trkpt>
      <trkpt lat="42.91015" lon="0.10632">
        <ele>1775</ele>
        <time>2015-01-10T09:10:52Z</time>
      </trkpt>
      <trkpt lat="42.91007" lon="0.10621">
        <ele>1775</ele>
        <time>2015-01-10T09:11:07Z</time>
      </trkpt>
      <trkpt lat="42.91007" lon="0.10618">
        <ele>1775</ele>
        <time>2015-01-10T09:11:10Z</time>
      </trkpt>
      <trkpt lat="42.91" lon="0.1061">
        <ele>1777</ele>
        <time>2015-01-10T09:11:25Z</time>
      </trkpt>
      <trkpt lat="42.90994" lon="0.106">
        <ele>1779</ele>
        <time>2015-01-10T09:11:41Z</time>
      </trkpt>
      <trkpt lat="42.90987" lon="0.10592">
        <ele>1780</ele>
        <time>2015-01-10T09:11:52Z</time>
      </trkpt>
      <trkpt lat="42.90983" lon="0.10579">
        <ele>1782</ele>
        <time>2015-01-10T09:12:06Z</time>
      </trkpt>
      <trkpt lat="42.90977" lon="0.10565">
        <ele>1784</ele>
        <time>2015-01-10T09:12:22Z</time>
      </trkpt>
      <trkpt lat="42.90974" lon="0.10556">
        <ele>1784</ele>
        <time>2015-01-10T09:12:34Z</time>
      </trkpt>
      <trkpt lat="42.90974" lon="0.10543">
        <ele>1785</ele>
        <time>2015-01-10T09:12:49Z</time>
      </trkpt>
      <trkpt lat="42.90975" lon="0.10529">
        <ele>1786</ele>
        <time>2015-01-10T09:13:01Z</time>
      </trkpt>
      <trkpt lat="42.90979" lon="0.10516">
        <ele>1788</ele>
        <time>2015-01-10T09:13:14Z</time>
      </trkpt>
      <trkpt lat="42.90983" lon="0.10505">
        <ele>1790</ele>
        <time>2015-01-10T09:13:29Z</time>
      </trkpt>
      <trkpt lat="42.90985" lon="0.1049">
        <ele>1791</ele>
        <time>2015-01-10T09:13:44Z</time>
      </trkpt>
      <trkpt lat="42.90991" lon="0.10476">
        <ele>1792</ele>
        <time>2015-01-10T09:13:59Z</time>
      </trkpt>
      <trkpt lat="42.90995" lon="0.10458">
        <ele>1794</ele>
        <time>2015-01-10T09:14:16Z</time>
      </trkpt>
      <trkpt lat="42.91001" lon="0.10444">
        <ele>1795</ele>
        <time>2015-01-10T09:14:31Z</time>
      </trkpt>
      <trkpt lat="42.91006" lon="0.10431">
        <ele>1797</ele>
        <time>2015-01-10T09:14:45Z</time>
      </trkpt>
      <trkpt lat="42.91011" lon="0.10415">
        <ele>1798</ele>
        <time>2015-01-10T09:15:01Z</time>
      </trkpt>
      <trkpt lat="42.91017" lon="0.10405">
        <ele>1800</ele>
        <time>2015-01-10T09:15:14Z</time>
      </trkpt>
      <trkpt lat="42.91021" lon="0.10407">
        <ele>1800</ele>
        <time>2015-01-10T09:15:21Z</time>
      </trkpt>
      <trkpt lat="42.91016" lon="0.10427">
        <ele>1802</ele>
        <time>2015-01-10T09:15:39Z</time>
      </trkpt>
      <trkpt lat="42.91015" lon="0.10435">
        <ele>1802</ele>
        <time>2015-01-10T09:15:46Z</time>
      </trkpt>
      <trkpt lat="42.91013" lon="0.10454">
        <ele>1803</ele>
        <time>2015-01-10T09:16:02Z</time>
      </trkpt>
      <trkpt lat="42.91012" lon="0.10473">
        <ele>1805</ele>
        <time>2015-01-10T09:16:18Z</time>
      </trkpt>
      <trkpt lat="42.91011" lon="0.10478">
        <ele>1805</ele>
        <time>2015-01-10T09:16:23Z</time>
      </trkpt>
      <trkpt lat="42.91013" lon="0.10494">
        <ele>1806</ele>
        <time>2015-01-10T09:16:39Z</time>
      </trkpt>
      <trkpt lat="42.91014" lon="0.10504">
        <ele>1807</ele>
        <time>2015-01-10T09:16:48Z</time>
      </trkpt>
      <trkpt lat="42.91016" lon="0.10517">
        <ele>1808</ele>
        <time>2015-01-10T09:17:02Z</time>
      </trkpt>
      <trkpt lat="42.91019" lon="0.10526">
        <ele>1810</ele>
        <time>2015-01-10T09:17:18Z</time>
      </trkpt>
      <trkpt lat="42.91019" lon="0.10532">
        <ele>1811</ele>
        <time>2015-01-10T09:17:40Z</time>
      </trkpt>
      <trkpt lat="42.91024" lon="0.10537">
        <ele>1813</ele>
        <time>2015-01-10T09:17:55Z</time>
      </trkpt>
      <trkpt lat="42.91027" lon="0.10529">
        <ele>1813</ele>
        <time>2015-01-10T09:18:08Z</time>
      </trkpt>
      <trkpt lat="42.91028" lon="0.10519">
        <ele>1816</ele>
        <time>2015-01-10T09:18:22Z</time>
      </trkpt>
      <trkpt lat="42.9103" lon="0.10509">
        <ele>1817</ele>
        <time>2015-01-10T09:18:36Z</time>
      </trkpt>
      <trkpt lat="42.91033" lon="0.10501">
        <ele>1819</ele>
        <time>2015-01-10T09:18:50Z</time>
      </trkpt>
      <trkpt lat="42.91038" lon="0.10487">
        <ele>1821</ele>
        <time>2015-01-10T09:19:05Z</time>
      </trkpt>
      <trkpt lat="42.91041" lon="0.1048">
        <ele>1822</ele>
        <time>2015-01-10T09:19:19Z</time>
      </trkpt>
      <trkpt lat="42.91048" lon="0.10472">
        <ele>1826</ele>
        <time>2015-01-10T09:19:35Z</time>
      </trkpt>
      <trkpt lat="42.91054" lon="0.10461">
        <ele>1829</ele>
        <time>2015-01-10T09:19:50Z</time>
      </trkpt>
      <trkpt lat="42.91058" lon="0.10467">
        <ele>1830</ele>
        <time>2015-01-10T09:20:03Z</time>
      </trkpt>
      <trkpt lat="42.91059" lon="0.10478">
        <ele>1832</ele>
        <time>2015-01-10T09:20:19Z</time>
      </trkpt>
      <trkpt lat="42.91061" lon="0.10493">
        <ele>1834</ele>
        <time>2015-01-10T09:20:35Z</time>
      </trkpt>
      <trkpt lat="42.91065" lon="0.10508">
        <ele>1838</ele>
        <time>2015-01-10T09:20:53Z</time>
      </trkpt>
      <trkpt lat="42.91071" lon="0.1052">
        <ele>1840</ele>
        <time>2015-01-10T09:21:07Z</time>
      </trkpt>
      <trkpt lat="42.91077" lon="0.10529">
        <ele>1842</ele>
        <time>2015-01-10T09:21:19Z</time>
      </trkpt>
      <trkpt lat="42.91079" lon="0.1053">
        <ele>1843</ele>
        <time>2015-01-10T09:21:33Z</time>
      </trkpt>
      <trkpt lat="42.91084" lon="0.10515">
        <ele>1847</ele>
        <time>2015-01-10T09:21:51Z</time>
      </trkpt>
      <trkpt lat="42.91085" lon="0.10513">
        <ele>1846</ele>
        <time>2015-01-10T09:22:10Z</time>
      </trkpt>
      <trkpt lat="42.91086" lon="0.10505">
        <ele>1847</ele>
        <time>2015-01-10T09:22:24Z</time>
      </trkpt>
      <trkpt lat="42.91085" lon="0.10504">
        <ele>1846</ele>
        <time>2015-01-10T09:22:38Z</time>
      </trkpt>
      <trkpt lat="42.91084" lon="0.10503">
        <ele>1846</ele>
        <time>2015-01-10T09:23:18Z</time>
      </trkpt>
      <trkpt lat="42.91084" lon="0.10503">
        <ele>1847</ele>
        <time>2015-01-10T09:23:52Z</time>
      </trkpt>
      <trkpt lat="42.91084" lon="0.10502">
        <ele>1847</ele>
        <time>2015-01-10T09:24:39Z</time>
      </trkpt>
      <trkpt lat="42.91084" lon="0.10502">
        <ele>1847</ele>
        <time>2015-01-10T09:25:23Z</time>
      </trkpt>
      <trkpt lat="42.91084" lon="0.10503">
        <ele>1847</ele>
        <time>2015-01-10T09:26:01Z</time>
      </trkpt>
      <trkpt lat="42.91084" lon="0.10504">
        <ele>1847</ele>
        <time>2015-01-10T09:26:41Z</time>
      </trkpt>
      <trkpt lat="42.91083" lon="0.10506">
        <ele>1848</ele>
        <time>2015-01-10T09:26:58Z</time>
      </trkpt>
      <trkpt lat="42.91083" lon="0.10502">
        <ele>1848</ele>
        <time>2015-01-10T09:27:15Z</time>
      </trkpt>
      <trkpt lat="42.91087" lon="0.105">
        <ele>1849</ele>
        <time>2015-01-10T09:27:32Z</time>
      </trkpt>
      <trkpt lat="42.91091" lon="0.10491">
        <ele>1853</ele>
        <time>2015-01-10T09:27:46Z</time>
      </trkpt>
      <trkpt lat="42.91096" lon="0.10484">
        <ele>1854</ele>
        <time>2015-01-10T09:27:56Z</time>
      </trkpt>
      <trkpt lat="42.91104" lon="0.10471">
        <ele>1857</ele>
        <time>2015-01-10T09:28:14Z</time>
      </trkpt>
      <trkpt lat="42.9111" lon="0.10466">
        <ele>1859</ele>
        <time>2015-01-10T09:28:32Z</time>
      </trkpt>
      <trkpt lat="42.91111" lon="0.10479">
        <ele>1862</ele>
        <time>2015-01-10T09:28:50Z</time>
      </trkpt>
      <trkpt lat="42.91113" lon="0.10491">
        <ele>1863</ele>
        <time>2015-01-10T09:29:02Z</time>
      </trkpt>
      <trkpt lat="42.91116" lon="0.10503">
        <ele>1867</ele>
        <time>2015-01-10T09:29:19Z</time>
      </trkpt>
      <trkpt lat="42.91118" lon="0.10507">
        <ele>1866</ele>
        <time>2015-01-10T09:29:30Z</time>
      </trkpt>
      <trkpt lat="42.9112" lon="0.10498">
        <ele>1867</ele>
        <time>2015-01-10T09:29:42Z</time>
      </trkpt>
      <trkpt lat="42.91127" lon="0.10489">
        <ele>1870</ele>
        <time>2015-01-10T09:29:58Z</time>
      </trkpt>
      <trkpt lat="42.91134" lon="0.10479">
        <ele>1873</ele>
        <time>2015-01-10T09:30:16Z</time>
      </trkpt>
      <trkpt lat="42.91141" lon="0.1047">
        <ele>1876</ele>
        <time>2015-01-10T09:30:33Z</time>
      </trkpt>
      <trkpt lat="42.91141" lon="0.10472">
        <ele>1877</ele>
        <time>2015-01-10T09:30:47Z</time>
      </trkpt>
      <trkpt lat="42.91144" lon="0.10486">
        <ele>1880</ele>
        <time>2015-01-10T09:31:07Z</time>
      </trkpt>
      <trkpt lat="42.91152" lon="0.105">
        <ele>1883</ele>
        <time>2015-01-10T09:31:29Z</time>
      </trkpt>
      <trkpt lat="42.91162" lon="0.10498">
        <ele>1885</ele>
        <time>2015-01-10T09:31:45Z</time>
      </trkpt>
      <trkpt lat="42.91171" lon="0.10494">
        <ele>1887</ele>
        <time>2015-01-10T09:32:02Z</time>
      </trkpt>
      <trkpt lat="42.9118" lon="0.10488">
        <ele>1889</ele>
        <time>2015-01-10T09:32:19Z</time>
      </trkpt>
      <trkpt lat="42.91184" lon="0.10488">
        <ele>1891</ele>
        <time>2015-01-10T09:32:34Z</time>
      </trkpt>
      <trkpt lat="42.91188" lon="0.10497">
        <ele>1893</ele>
        <time>2015-01-10T09:32:51Z</time>
      </trkpt>
      <trkpt lat="42.91196" lon="0.10505">
        <ele>1895</ele>
        <time>2015-01-10T09:33:09Z</time>
      </trkpt>
      <trkpt lat="42.91202" lon="0.10514">
        <ele>1897</ele>
        <time>2015-01-10T09:33:25Z</time>
      </trkpt>
      <trkpt lat="42.91208" lon="0.10526">
        <ele>1900</ele>
        <time>2015-01-10T09:33:41Z</time>
      </trkpt>
      <trkpt lat="42.91212" lon="0.1053">
        <ele>1901</ele>
        <time>2015-01-10T09:33:48Z</time>
      </trkpt>
      <trkpt lat="42.91224" lon="0.10544">
        <ele>1904</ele>
        <time>2015-01-10T09:34:06Z</time>
      </trkpt>
      <trkpt lat="42.91229" lon="0.10553">
        <ele>1907</ele>
        <time>2015-01-10T09:34:22Z</time>
      </trkpt>
      <trkpt lat="42.91238" lon="0.10563">
        <ele>1910</ele>
        <time>2015-01-10T09:34:36Z</time>
      </trkpt>
      <trkpt lat="42.91243" lon="0.10558">
        <ele>1912</ele>
        <time>2015-01-10T09:34:48Z</time>
      </trkpt>
      <trkpt lat="42.91244" lon="0.10552">
        <ele>1913</ele>
        <time>2015-01-10T09:34:56Z</time>
      </trkpt>
      <trkpt lat="42.91246" lon="0.10536">
        <ele>1917</ele>
        <time>2015-01-10T09:35:13Z</time>
      </trkpt>
      <trkpt lat="42.91249" lon="0.10517">
        <ele>1920</ele>
        <time>2015-01-10T09:35:32Z</time>
      </trkpt>
      <trkpt lat="42.91251" lon="0.10503">
        <ele>1922</ele>
        <time>2015-01-10T09:35:49Z</time>
      </trkpt>
      <trkpt lat="42.91253" lon="0.10485">
        <ele>1926</ele>
        <time>2015-01-10T09:36:05Z</time>
      </trkpt>
      <trkpt lat="42.91254" lon="0.10476">
        <ele>1927</ele>
        <time>2015-01-10T09:36:20Z</time>
      </trkpt>
      <trkpt lat="42.91258" lon="0.10462">
        <ele>1930</ele>
        <time>2015-01-10T09:36:35Z</time>
      </trkpt>
      <trkpt lat="42.91262" lon="0.10448">
        <ele>1931</ele>
        <time>2015-01-10T09:36:50Z</time>
      </trkpt>
      <trkpt lat="42.91262" lon="0.10447">
        <ele>1932</ele>
        <time>2015-01-10T09:36:51Z</time>
      </trkpt>
      <trkpt lat="42.91261" lon="0.10439">
        <ele>1933</ele>
        <time>2015-01-10T09:36:59Z</time>
      </trkpt>
      <trkpt lat="42.91262" lon="0.10421">
        <ele>1935</ele>
        <time>2015-01-10T09:37:14Z</time>
      </trkpt>
      <trkpt lat="42.91262" lon="0.10399">
        <ele>1937</ele>
        <time>2015-01-10T09:37:29Z</time>
      </trkpt>
      <trkpt lat="42.91264" lon="0.10382">
        <ele>1940</ele>
        <time>2015-01-10T09:37:45Z</time>
      </trkpt>
      <trkpt lat="42.91266" lon="0.10377">
        <ele>1941</ele>
        <time>2015-01-10T09:37:52Z</time>
      </trkpt>
      <trkpt lat="42.9127" lon="0.10368">
        <ele>1944</ele>
        <time>2015-01-10T09:38:07Z</time>
      </trkpt>
      <trkpt lat="42.91275" lon="0.1036">
        <ele>1946</ele>
        <time>2015-01-10T09:38:21Z</time>
      </trkpt>
      <trkpt lat="42.91278" lon="0.10344">
        <ele>1949</ele>
        <time>2015-01-10T09:38:37Z</time>
      </trkpt>
      <trkpt lat="42.91281" lon="0.1033">
        <ele>1951</ele>
        <time>2015-01-10T09:38:53Z</time>
      </trkpt>
      <trkpt lat="42.91283" lon="0.10316">
        <ele>1954</ele>
        <time>2015-01-10T09:39:10Z</time>
      </trkpt>
      <trkpt lat="42.91288" lon="0.10301">
        <ele>1957</ele>
        <time>2015-01-10T09:39:29Z</time>
      </trkpt>
      <trkpt lat="42.91293" lon="0.10288">
        <ele>1960</ele>
        <time>2015-01-10T09:39:46Z</time>
      </trkpt>
      <trkpt lat="42.91297" lon="0.10275">
        <ele>1963</ele>
        <time>2015-01-10T09:40:01Z</time>
      </trkpt>
      <trkpt lat="42.91301" lon="0.10262">
        <ele>1965</ele>
        <time>2015-01-10T09:40:17Z</time>
      </trkpt>
      <trkpt lat="42.91305" lon="0.1025">
        <ele>1968</ele>
        <time>2015-01-10T09:40:32Z</time>
      </trkpt>
      <trkpt lat="42.91309" lon="0.1024">
        <ele>1972</ele>
        <time>2015-01-10T09:40:49Z</time>
      </trkpt>
      <trkpt lat="42.91311" lon="0.10248">
        <ele>1973</ele>
        <time>2015-01-10T09:41:01Z</time>
      </trkpt>
      <trkpt lat="42.91317" lon="0.10258">
        <ele>1975</ele>
        <time>2015-01-10T09:41:15Z</time>
      </trkpt>
      <trkpt lat="42.91324" lon="0.10272">
        <ele>1978</ele>
        <time>2015-01-10T09:41:34Z</time>
      </trkpt>
      <trkpt lat="42.91332" lon="0.10285">
        <ele>1980</ele>
        <time>2015-01-10T09:41:51Z</time>
      </trkpt>
      <trkpt lat="42.91336" lon="0.10288">
        <ele>1981</ele>
        <time>2015-01-10T09:42:01Z</time>
      </trkpt>
      <trkpt lat="42.9134" lon="0.10273">
        <ele>1983</ele>
        <time>2015-01-10T09:42:18Z</time>
      </trkpt>
      <trkpt lat="42.9134" lon="0.10258">
        <ele>1987</ele>
        <time>2015-01-10T09:42:35Z</time>
      </trkpt>
      <trkpt lat="42.91339" lon="0.10242">
        <ele>1989</ele>
        <time>2015-01-10T09:42:53Z</time>
      </trkpt>
      <trkpt lat="42.91339" lon="0.10225">
        <ele>1990</ele>
        <time>2015-01-10T09:43:09Z</time>
      </trkpt>
      <trkpt lat="42.9134" lon="0.10221">
        <ele>1992</ele>
        <time>2015-01-10T09:43:20Z</time>
      </trkpt>
      <trkpt lat="42.91342" lon="0.10215">
        <ele>1993</ele>
        <time>2015-01-10T09:43:33Z</time>
      </trkpt>
      <trkpt lat="42.91342" lon="0.10211">
        <ele>1994</ele>
        <time>2015-01-10T09:43:45Z</time>
      </trkpt>
      <trkpt lat="42.91344" lon="0.10201">
        <ele>1996</ele>
        <time>2015-01-10T09:43:59Z</time>
      </trkpt>
      <trkpt lat="42.91345" lon="0.10185">
        <ele>1998</ele>
        <time>2015-01-10T09:44:15Z</time>
      </trkpt>
      <trkpt lat="42.91345" lon="0.10174">
        <ele>1998</ele>
        <time>2015-01-10T09:44:29Z</time>
      </trkpt>
      <trkpt lat="42.91345" lon="0.10165">
        <ele>2001</ele>
        <time>2015-01-10T09:44:39Z</time>
      </trkpt>
      <trkpt lat="42.91345" lon="0.10148">
        <ele>2002</ele>
        <time>2015-01-10T09:45:01Z</time>
      </trkpt>
      <trkpt lat="42.91348" lon="0.10133">
        <ele>2004</ele>
        <time>2015-01-10T09:45:17Z</time>
      </trkpt>
      <trkpt lat="42.9135" lon="0.10121">
        <ele>2005</ele>
        <time>2015-01-10T09:45:31Z</time>
      </trkpt>
      <trkpt lat="42.91353" lon="0.10106">
        <ele>2006</ele>
        <time>2015-01-10T09:45:46Z</time>
      </trkpt>
      <trkpt lat="42.91354" lon="0.10088">
        <ele>2009</ele>
        <time>2015-01-10T09:46:08Z</time>
      </trkpt>
      <trkpt lat="42.91353" lon="0.10067">
        <ele>2011</ele>
        <time>2015-01-10T09:46:28Z</time>
      </trkpt>
      <trkpt lat="42.9135" lon="0.10049">
        <ele>2012</ele>
        <time>2015-01-10T09:46:46Z</time>
      </trkpt>
      <trkpt lat="42.91347" lon="0.10029">
        <ele>2014</ele>
        <time>2015-01-10T09:47:05Z</time>
      </trkpt>
      <trkpt lat="42.91344" lon="0.10015">
        <ele>2015</ele>
        <time>2015-01-10T09:47:20Z</time>
      </trkpt>
      <trkpt lat="42.91339" lon="0.09997">
        <ele>2016</ele>
        <time>2015-01-10T09:47:37Z</time>
      </trkpt>
      <trkpt lat="42.91335" lon="0.09981">
        <ele>2018</ele>
        <time>2015-01-10T09:47:57Z</time>
      </trkpt>
      <trkpt lat="42.91327" lon="0.09965">
        <ele>2020</ele>
        <time>2015-01-10T09:48:16Z</time>
      </trkpt>
      <trkpt lat="42.9132" lon="0.09953">
        <ele>2021</ele>
        <time>2015-01-10T09:48:33Z</time>
      </trkpt>
      <trkpt lat="42.91311" lon="0.09942">
        <ele>2023</ele>
        <time>2015-01-10T09:48:51Z</time>
      </trkpt>
      <trkpt lat="42.91305" lon="0.0993">
        <ele>2025</ele>
        <time>2015-01-10T09:49:07Z</time>
      </trkpt>
      <trkpt lat="42.91301" lon="0.09915">
        <ele>2026</ele>
        <time>2015-01-10T09:49:24Z</time>
      </trkpt>
      <trkpt lat="42.91298" lon="0.09898">
        <ele>2027</ele>
        <time>2015-01-10T09:49:42Z</time>
      </trkpt>
      <trkpt lat="42.91297" lon="0.09889">
        <ele>2029</ele>
        <time>2015-01-10T09:49:56Z</time>
      </trkpt>
      <trkpt lat="42.91298" lon="0.0989">
        <ele>2028</ele>
        <time>2015-01-10T09:50:20Z</time>
      </trkpt>
      <trkpt lat="42.91298" lon="0.09888">
        <ele>2029</ele>
        <time>2015-01-10T09:50:43Z</time>
      </trkpt>
      <trkpt lat="42.91299" lon="0.0989">
        <ele>2029</ele>
        <time>2015-01-10T09:50:56Z</time>
      </trkpt>
      <trkpt lat="42.91297" lon="0.09891">
        <ele>2028</ele>
        <time>2015-01-10T09:51:16Z</time>
      </trkpt>
      <trkpt lat="42.91297" lon="0.0989">
        <ele>2029</ele>
        <time>2015-01-10T09:51:34Z</time>
      </trkpt>
      <trkpt lat="42.91297" lon="0.09891">
        <ele>2029</ele>
        <time>2015-01-10T09:51:46Z</time>
      </trkpt>
      <trkpt lat="42.91297" lon="0.0989">
        <ele>2028</ele>
        <time>2015-01-10T09:52:07Z</time>
      </trkpt>
      <trkpt lat="42.91296" lon="0.0989">
        <ele>2029</ele>
        <time>2015-01-10T09:52:32Z</time>
      </trkpt>
      <trkpt lat="42.91297" lon="0.09889">
        <ele>2028</ele>
        <time>2015-01-10T09:52:57Z</time>
      </trkpt>
      <trkpt lat="42.91297" lon="0.0989">
        <ele>2029</ele>
        <time>2015-01-10T09:53:30Z</time>
      </trkpt>
      <trkpt lat="42.91298" lon="0.0989">
        <ele>2028</ele>
        <time>2015-01-10T09:54:04Z</time>
      </trkpt>
      <trkpt lat="42.91297" lon="0.0989">
        <ele>2028</ele>
        <time>2015-01-10T09:54:26Z</time>
      </trkpt>
      <trkpt lat="42.91296" lon="0.0989">
        <ele>2029</ele>
        <time>2015-01-10T09:54:52Z</time>
      </trkpt>
      <trkpt lat="42.91298" lon="0.09889">
        <ele>2028</ele>
        <time>2015-01-10T09:55:24Z</time>
      </trkpt>
      <trkpt lat="42.91297" lon="0.09889">
        <ele>2028</ele>
        <time>2015-01-10T09:55:47Z</time>
      </trkpt>
      <trkpt lat="42.91297" lon="0.09889">
        <ele>2028</ele>
        <time>2015-01-10T09:56:14Z</time>
      </trkpt>
      <trkpt lat="42.91297" lon="0.0989">
        <ele>2028</ele>
        <time>2015-01-10T09:56:37Z</time>
      </trkpt>
      <trkpt lat="42.91297" lon="0.0989">
        <ele>2029</ele>
        <time>2015-01-10T09:57:10Z</time>
      </trkpt>
      <trkpt lat="42.91298" lon="0.0989">
        <ele>2029</ele>
        <time>2015-01-10T09:57:34Z</time>
      </trkpt>
      <trkpt lat="42.91298" lon="0.09889">
        <ele>2029</ele>
        <time>2015-01-10T09:57:49Z</time>
      </trkpt>
      <trkpt lat="42.91298" lon="0.09891">
        <ele>2029</ele>
        <time>2015-01-10T09:58:14Z</time>
      </trkpt>
      <trkpt lat="42.91298" lon="0.09892">
        <ele>2028</ele>
        <time>2015-01-10T09:58:33Z</time>
      </trkpt>
      <trkpt lat="42.91299" lon="0.0989">
        <ele>2029</ele>
        <time>2015-01-10T09:58:56Z</time>
      </trkpt>
      <trkpt lat="42.91299" lon="0.0989">
        <ele>2029</ele>
        <time>2015-01-10T09:59:24Z</time>
      </trkpt>
      <trkpt lat="42.91297" lon="0.09888">
        <ele>2029</ele>
        <time>2015-01-10T09:59:50Z</time>
      </trkpt>
      <trkpt lat="42.91298" lon="0.09888">
        <ele>2029</ele>
        <time>2015-01-10T10:00:04Z</time>
      </trkpt>
      <trkpt lat="42.91298" lon="0.09888">
        <ele>2029</ele>
        <time>2015-01-10T10:00:22Z</time>
      </trkpt>
      <trkpt lat="42.91296" lon="0.09887">
        <ele>2029</ele>
        <time>2015-01-10T10:00:34Z</time>
      </trkpt>
      <trkpt lat="42.91296" lon="0.09887">
        <ele>2029</ele>
        <time>2015-01-10T10:00:55Z</time>
      </trkpt>
      <trkpt lat="42.91295" lon="0.09886">
        <ele>2029</ele>
        <time>2015-01-10T10:01:14Z</time>
      </trkpt>
      <trkpt lat="42.91295" lon="0.09886">
        <ele>2029</ele>
        <time>2015-01-10T10:01:34Z</time>
      </trkpt>
      <trkpt lat="42.91294" lon="0.09886">
        <ele>2029</ele>
        <time>2015-01-10T10:02:04Z</time>
      </trkpt>
      <trkpt lat="42.91296" lon="0.09886">
        <ele>2029</ele>
        <time>2015-01-10T10:02:30Z</time>
      </trkpt>
      <trkpt lat="42.91296" lon="0.09887">
        <ele>2029</ele>
        <time>2015-01-10T10:02:52Z</time>
      </trkpt>
      <trkpt lat="42.91296" lon="0.09887">
        <ele>2029</ele>
        <time>2015-01-10T10:03:17Z</time>
      </trkpt>
      <trkpt lat="42.91296" lon="0.09888">
        <ele>2029</ele>
        <time>2015-01-10T10:03:43Z</time>
      </trkpt>
      <trkpt lat="42.91296" lon="0.09887">
        <ele>2030</ele>
        <time>2015-01-10T10:03:56Z</time>
      </trkpt>
      <trkpt lat="42.91297" lon="0.09887">
        <ele>2029</ele>
        <time>2015-01-10T10:04:26Z</time>
      </trkpt>
      <trkpt lat="42.91302" lon="0.09888">
        <ele>2030</ele>
        <time>2015-01-10T10:04:40Z</time>
      </trkpt>
      <trkpt lat="42.91305" lon="0.09887">
        <ele>2030</ele>
        <time>2015-01-10T10:04:55Z</time>
      </trkpt>
      <trkpt lat="42.91312" lon="0.09886">
        <ele>2030</ele>
        <time>2015-01-10T10:05:04Z</time>
      </trkpt>
      <trkpt lat="42.91327" lon="0.09886">
        <ele>2030</ele>
        <time>2015-01-10T10:05:20Z</time>
      </trkpt>
      <trkpt lat="42.91343" lon="0.09888">
        <ele>2030</ele>
        <time>2015-01-10T10:05:35Z</time>
      </trkpt>
      <trkpt lat="42.91357" lon="0.09888">
        <ele>2029</ele>
        <time>2015-01-10T10:05:46Z</time>
      </trkpt>
      <trkpt lat="42.91359" lon="0.09888">
        <ele>2028</ele>
        <time>2015-01-10T10:05:48Z</time>
      </trkpt>
      <trkpt lat="42.9137" lon="0.09885">
        <ele>2028</ele>
        <time>2015-01-10T10:05:57Z</time>
      </trkpt>
      <trkpt lat="42.91391" lon="0.09877">
        <ele>2025</ele>
        <time>2015-01-10T10:06:14Z</time>
      </trkpt>
      <trkpt lat="42.91404" lon="0.09874">
        <ele>2025</ele>
        <time>2015-01-10T10:06:28Z</time>
      </trkpt>
      <trkpt lat="42.91416" lon="0.09871">
        <ele>2025</ele>
        <time>2015-01-10T10:06:43Z</time>
      </trkpt>
      <trkpt lat="42.91421" lon="0.0987">
        <ele>2025</ele>
        <time>2015-01-10T10:06:56Z</time>
      </trkpt>
      <trkpt lat="42.91436" lon="0.09862">
        <ele>2027</ele>
        <time>2015-01-10T10:07:20Z</time>
      </trkpt>
      <trkpt lat="42.91449" lon="0.09856">
        <ele>2027</ele>
        <time>2015-01-10T10:07:36Z</time>
      </trkpt>
      <trkpt lat="42.91457" lon="0.09852">
        <ele>2028</ele>
        <time>2015-01-10T10:07:47Z</time>
      </trkpt>
      <trkpt lat="42.91464" lon="0.09846">
        <ele>2030</ele>
        <time>2015-01-10T10:08:02Z</time>
      </trkpt>
      <trkpt lat="42.91471" lon="0.09843">
        <ele>2032</ele>
        <time>2015-01-10T10:08:15Z</time>
      </trkpt>
      <trkpt lat="42.91479" lon="0.09843">
        <ele>2033</ele>
        <time>2015-01-10T10:08:30Z</time>
      </trkpt>
      <trkpt lat="42.9149" lon="0.09839">
        <ele>2035</ele>
        <time>2015-01-10T10:08:45Z</time>
      </trkpt>
      <trkpt lat="42.91502" lon="0.09832">
        <ele>2036</ele>
        <time>2015-01-10T10:09:04Z</time>
      </trkpt>
      <trkpt lat="42.91515" lon="0.09823">
        <ele>2038</ele>
        <time>2015-01-10T10:09:24Z</time>
      </trkpt>
      <trkpt lat="42.91528" lon="0.09814">
        <ele>2040</ele>
        <time>2015-01-10T10:09:44Z</time>
      </trkpt>
      <trkpt lat="42.91541" lon="0.09804">
        <ele>2042</ele>
        <time>2015-01-10T10:10:06Z</time>
      </trkpt>
      <trkpt lat="42.91551" lon="0.09796">
        <ele>2044</ele>
        <time>2015-01-10T10:10:24Z</time>
      </trkpt>
      <trkpt lat="42.91564" lon="0.09791">
        <ele>2046</ele>
        <time>2015-01-10T10:10:43Z</time>
      </trkpt>
      <trkpt lat="42.91575" lon="0.09789">
        <ele>2047</ele>
        <time>2015-01-10T10:10:58Z</time>
      </trkpt>
      <trkpt lat="42.91587" lon="0.09786">
        <ele>2049</ele>
        <time>2015-01-10T10:11:14Z</time>
      </trkpt>
      <trkpt lat="42.91597" lon="0.09782">
        <ele>2052</ele>
        <time>2015-01-10T10:11:33Z</time>
      </trkpt>
      <trkpt lat="42.91609" lon="0.09775">
        <ele>2055</ele>
        <time>2015-01-10T10:11:51Z</time>
      </trkpt>
      <trkpt lat="42.91621" lon="0.0977">
        <ele>2057</ele>
        <time>2015-01-10T10:12:11Z</time>
      </trkpt>
      <trkpt lat="42.91633" lon="0.09767">
        <ele>2059</ele>
        <time>2015-01-10T10:12:28Z</time>
      </trkpt>
      <trkpt lat="42.91646" lon="0.09766">
        <ele>2060</ele>
        <time>2015-01-10T10:12:45Z</time>
      </trkpt>
      <trkpt lat="42.91661" lon="0.09768">
        <ele>2061</ele>
        <time>2015-01-10T10:13:03Z</time>
      </trkpt>
      <trkpt lat="42.91673" lon="0.09765">
        <ele>2063</ele>
        <time>2015-01-10T10:13:17Z</time>
      </trkpt>
      <trkpt lat="42.91687" lon="0.09764">
        <ele>2065</ele>
        <time>2015-01-10T10:13:34Z</time>
      </trkpt>
      <trkpt lat="42.91697" lon="0.09759">
        <ele>2066</ele>
        <time>2015-01-10T10:13:50Z</time>
      </trkpt>
      <trkpt lat="42.91709" lon="0.09756">
        <ele>2068</ele>
        <time>2015-01-10T10:14:08Z</time>
      </trkpt>
      <trkpt lat="42.91721" lon="0.09752">
        <ele>2070</ele>
        <time>2015-01-10T10:14:25Z</time>
      </trkpt>
      <trkpt lat="42.91732" lon="0.0975">
        <ele>2072</ele>
        <time>2015-01-10T10:14:39Z</time>
      </trkpt>
      <trkpt lat="42.91745" lon="0.09744">
        <ele>2073</ele>
        <time>2015-01-10T10:14:56Z</time>
      </trkpt>
      <trkpt lat="42.91754" lon="0.0974">
        <ele>2077</ele>
        <time>2015-01-10T10:15:12Z</time>
      </trkpt>
      <trkpt lat="42.91766" lon="0.09735">
        <ele>2078</ele>
        <time>2015-01-10T10:15:31Z</time>
      </trkpt>
      <trkpt lat="42.91775" lon="0.09731">
        <ele>2081</ele>
        <time>2015-01-10T10:15:50Z</time>
      </trkpt>
      <trkpt lat="42.91783" lon="0.0973">
        <ele>2085</ele>
        <time>2015-01-10T10:16:06Z</time>
      </trkpt>
      <trkpt lat="42.91792" lon="0.09728">
        <ele>2085</ele>
        <time>2015-01-10T10:16:21Z</time>
      </trkpt>
      <trkpt lat="42.9179" lon="0.0973">
        <ele>2085</ele>
        <time>2015-01-10T10:16:44Z</time>
      </trkpt>
      <trkpt lat="42.91789" lon="0.09727">
        <ele>2086</ele>
        <time>2015-01-10T10:17:01Z</time>
      </trkpt>
      <trkpt lat="42.91791" lon="0.09728">
        <ele>2086</ele>
        <time>2015-01-10T10:17:26Z</time>
      </trkpt>
      <trkpt lat="42.91791" lon="0.09728">
        <ele>2086</ele>
        <time>2015-01-10T10:17:50Z</time>
      </trkpt>
      <trkpt lat="42.91789" lon="0.09725">
        <ele>2086</ele>
        <time>2015-01-10T10:18:22Z</time>
      </trkpt>
      <trkpt lat="42.91788" lon="0.09729">
        <ele>2086</ele>
        <time>2015-01-10T10:18:50Z</time>
      </trkpt>
      <trkpt lat="42.91795" lon="0.09727">
        <ele>2087</ele>
        <time>2015-01-10T10:19:03Z</time>
      </trkpt>
      <trkpt lat="42.91806" lon="0.09724">
        <ele>2088</ele>
        <time>2015-01-10T10:19:17Z</time>
      </trkpt>
      <trkpt lat="42.91815" lon="0.09719">
        <ele>2090</ele>
        <time>2015-01-10T10:19:32Z</time>
      </trkpt>
      <trkpt lat="42.91828" lon="0.09716">
        <ele>2092</ele>
        <time>2015-01-10T10:19:49Z</time>
      </trkpt>
      <trkpt lat="42.91837" lon="0.09715">
        <ele>2095</ele>
        <time>2015-01-10T10:20:12Z</time>
      </trkpt>
      <trkpt lat="42.91847" lon="0.09714">
        <ele>2097</ele>
        <time>2015-01-10T10:20:30Z</time>
      </trkpt>
      <trkpt lat="42.91857" lon="0.09709">
        <ele>2100</ele>
        <time>2015-01-10T10:20:49Z</time>
      </trkpt>
      <trkpt lat="42.91854" lon="0.09715">
        <ele>2101</ele>
        <time>2015-01-10T10:20:58Z</time>
      </trkpt>
      <trkpt lat="42.91851" lon="0.09724">
        <ele>2104</ele>
        <time>2015-01-10T10:21:14Z</time>
      </trkpt>
      <trkpt lat="42.91848" lon="0.09735">
        <ele>2106</ele>
        <time>2015-01-10T10:21:29Z</time>
      </trkpt>
      <trkpt lat="42.91846" lon="0.09746">
        <ele>2109</ele>
        <time>2015-01-10T10:21:46Z</time>
      </trkpt>
      <trkpt lat="42.91843" lon="0.09754">
        <ele>2110</ele>
        <time>2015-01-10T10:21:55Z</time>
      </trkpt>
      <trkpt lat="42.91849" lon="0.09753">
        <ele>2111</ele>
        <time>2015-01-10T10:22:07Z</time>
      </trkpt>
      <trkpt lat="42.91859" lon="0.0975">
        <ele>2115</ele>
        <time>2015-01-10T10:22:25Z</time>
      </trkpt>
      <trkpt lat="42.91868" lon="0.09747">
        <ele>2116</ele>
        <time>2015-01-10T10:22:44Z</time>
      </trkpt>
      <trkpt lat="42.91878" lon="0.09742">
        <ele>2119</ele>
        <time>2015-01-10T10:23:02Z</time>
      </trkpt>
      <trkpt lat="42.91878" lon="0.09746">
        <ele>2121</ele>
        <time>2015-01-10T10:23:17Z</time>
      </trkpt>
      <trkpt lat="42.91875" lon="0.09754">
        <ele>2123</ele>
        <time>2015-01-10T10:23:33Z</time>
      </trkpt>
      <trkpt lat="42.91871" lon="0.09764">
        <ele>2125</ele>
        <time>2015-01-10T10:23:48Z</time>
      </trkpt>
      <trkpt lat="42.91867" lon="0.09774">
        <ele>2127</ele>
        <time>2015-01-10T10:24:04Z</time>
      </trkpt>
      <trkpt lat="42.91871" lon="0.09773">
        <ele>2128</ele>
        <time>2015-01-10T10:24:14Z</time>
      </trkpt>
      <trkpt lat="42.91881" lon="0.0977">
        <ele>2131</ele>
        <time>2015-01-10T10:24:33Z</time>
      </trkpt>
      <trkpt lat="42.9189" lon="0.09767">
        <ele>2134</ele>
        <time>2015-01-10T10:24:52Z</time>
      </trkpt>
      <trkpt lat="42.91901" lon="0.09761">
        <ele>2136</ele>
        <time>2015-01-10T10:25:08Z</time>
      </trkpt>
      <trkpt lat="42.91915" lon="0.09754">
        <ele>2139</ele>
        <time>2015-01-10T10:25:27Z</time>
      </trkpt>
      <trkpt lat="42.9192" lon="0.0975">
        <ele>2141</ele>
        <time>2015-01-10T10:25:45Z</time>
      </trkpt>
      <trkpt lat="42.91923" lon="0.09748">
        <ele>2143</ele>
        <time>2015-01-10T10:25:56Z</time>
      </trkpt>
      <trkpt lat="42.9193" lon="0.09738">
        <ele>2146</ele>
        <time>2015-01-10T10:26:13Z</time>
      </trkpt>
      <trkpt lat="42.91932" lon="0.09729">
        <ele>2148</ele>
        <time>2015-01-10T10:26:30Z</time>
      </trkpt>
      <trkpt lat="42.91937" lon="0.09733">
        <ele>2151</ele>
        <time>2015-01-10T10:26:46Z</time>
      </trkpt>
      <trkpt lat="42.91942" lon="0.09739">
        <ele>2153</ele>
        <time>2015-01-10T10:27:01Z</time>
      </trkpt>
      <trkpt lat="42.91944" lon="0.09748">
        <ele>2155</ele>
        <time>2015-01-10T10:27:20Z</time>
      </trkpt>
      <trkpt lat="42.91952" lon="0.09745">
        <ele>2158</ele>
        <time>2015-01-10T10:27:35Z</time>
      </trkpt>
      <trkpt lat="42.91956" lon="0.09745">
        <ele>2160</ele>
        <time>2015-01-10T10:27:50Z</time>
      </trkpt>
      <trkpt lat="42.91957" lon="0.09753">
        <ele>2162</ele>
        <time>2015-01-10T10:28:05Z</time>
      </trkpt>
      <trkpt lat="42.91967" lon="0.09748">
        <ele>2165</ele>
        <time>2015-01-10T10:28:23Z</time>
      </trkpt>
      <trkpt lat="42.91978" lon="0.09746">
        <ele>2167</ele>
        <time>2015-01-10T10:28:41Z</time>
      </trkpt>
      <trkpt lat="42.91979" lon="0.09745">
        <ele>2167</ele>
        <time>2015-01-10T10:28:56Z</time>
      </trkpt>
      <trkpt lat="42.91982" lon="0.09744">
        <ele>2168</ele>
        <time>2015-01-10T10:29:14Z</time>
      </trkpt>
      <trkpt lat="42.91995" lon="0.09743">
        <ele>2170</ele>
        <time>2015-01-10T10:29:35Z</time>
      </trkpt>
      <trkpt lat="42.92009" lon="0.09737">
        <ele>2172</ele>
        <time>2015-01-10T10:29:53Z</time>
      </trkpt>
      <trkpt lat="42.9202" lon="0.0973">
        <ele>2174</ele>
        <time>2015-01-10T10:30:11Z</time>
      </trkpt>
      <trkpt lat="42.92029" lon="0.09719">
        <ele>2176</ele>
        <time>2015-01-10T10:30:30Z</time>
      </trkpt>
      <trkpt lat="42.92032" lon="0.09704">
        <ele>2177</ele>
        <time>2015-01-10T10:30:48Z</time>
      </trkpt>
      <trkpt lat="42.92032" lon="0.09689">
        <ele>2179</ele>
        <time>2015-01-10T10:31:06Z</time>
      </trkpt>
      <trkpt lat="42.92033" lon="0.0967">
        <ele>2180</ele>
        <time>2015-01-10T10:31:27Z</time>
      </trkpt>
      <trkpt lat="42.92033" lon="0.09654">
        <ele>2182</ele>
        <time>2015-01-10T10:31:43Z</time>
      </trkpt>
      <trkpt lat="42.92032" lon="0.09637">
        <ele>2185</ele>
        <time>2015-01-10T10:32:01Z</time>
      </trkpt>
      <trkpt lat="42.92031" lon="0.09627">
        <ele>2188</ele>
        <time>2015-01-10T10:32:18Z</time>
      </trkpt>
      <trkpt lat="42.92039" lon="0.09628">
        <ele>2190</ele>
        <time>2015-01-10T10:32:36Z</time>
      </trkpt>
      <trkpt lat="42.92046" lon="0.09618">
        <ele>2192</ele>
        <time>2015-01-10T10:32:51Z</time>
      </trkpt>
      <trkpt lat="42.92047" lon="0.09618">
        <ele>2192</ele>
        <time>2015-01-10T10:33:12Z</time>
      </trkpt>
      <trkpt lat="42.92049" lon="0.09615">
        <ele>2192</ele>
        <time>2015-01-10T10:33:36Z</time>
      </trkpt>
      <trkpt lat="42.92052" lon="0.09611">
        <ele>2192</ele>
        <time>2015-01-10T10:33:41Z</time>
      </trkpt>
      <trkpt lat="42.92058" lon="0.09598">
        <ele>2193</ele>
        <time>2015-01-10T10:33:55Z</time>
      </trkpt>
      <trkpt lat="42.92062" lon="0.09589">
        <ele>2195</ele>
        <time>2015-01-10T10:34:11Z</time>
      </trkpt>
      <trkpt lat="42.92066" lon="0.0958">
        <ele>2197</ele>
        <time>2015-01-10T10:34:26Z</time>
      </trkpt>
      <trkpt lat="42.92073" lon="0.09579">
        <ele>2200</ele>
        <time>2015-01-10T10:34:42Z</time>
      </trkpt>
      <trkpt lat="42.92078" lon="0.09579">
        <ele>2201</ele>
        <time>2015-01-10T10:34:58Z</time>
      </trkpt>
      <trkpt lat="42.92081" lon="0.09578">
        <ele>2202</ele>
        <time>2015-01-10T10:35:11Z</time>
      </trkpt>
      <trkpt lat="42.92088" lon="0.09574">
        <ele>2201</ele>
        <time>2015-01-10T10:35:26Z</time>
      </trkpt>
      <trkpt lat="42.921" lon="0.09576">
        <ele>2199</ele>
        <time>2015-01-10T10:35:37Z</time>
      </trkpt>
      <trkpt lat="42.92112" lon="0.09578">
        <ele>2199</ele>
        <time>2015-01-10T10:35:50Z</time>
      </trkpt>
      <trkpt lat="42.92122" lon="0.09582">
        <ele>2199</ele>
        <time>2015-01-10T10:36:04Z</time>
      </trkpt>
      <trkpt lat="42.92125" lon="0.0958">
        <ele>2199</ele>
        <time>2015-01-10T10:36:21Z</time>
      </trkpt>
      <trkpt lat="42.92132" lon="0.09578">
        <ele>2198</ele>
        <time>2015-01-10T10:36:37Z</time>
      </trkpt>
      <trkpt lat="42.92134" lon="0.09578">
        <ele>2199</ele>
        <time>2015-01-10T10:36:48Z</time>
      </trkpt>
      <trkpt lat="42.92133" lon="0.09578">
        <ele>2199</ele>
        <time>2015-01-10T10:37:06Z</time>
      </trkpt>
      <trkpt lat="42.92132" lon="0.09579">
        <ele>2198</ele>
        <time>2015-01-10T10:37:20Z</time>
      </trkpt>
      <trkpt lat="42.92133" lon="0.09578">
        <ele>2198</ele>
        <time>2015-01-10T10:37:52Z</time>
      </trkpt>
      <trkpt lat="42.92134" lon="0.09578">
        <ele>2198</ele>
        <time>2015-01-10T10:38:20Z</time>
      </trkpt>
      <trkpt lat="42.92134" lon="0.09579">
        <ele>2199</ele>
        <time>2015-01-10T10:38:46Z</time>
      </trkpt>
      <trkpt lat="42.92132" lon="0.09579">
        <ele>2198</ele>
        <time>2015-01-10T10:39:02Z</time>
      </trkpt>
      <trkpt lat="42.92134" lon="0.09578">
        <ele>2198</ele>
        <time>2015-01-10T10:39:23Z</time>
      </trkpt>
      <trkpt lat="42.92134" lon="0.09578">
        <ele>2197</ele>
        <time>2015-01-10T10:39:55Z</time>
      </trkpt>
      <trkpt lat="42.92134" lon="0.09577">
        <ele>2198</ele>
        <time>2015-01-10T10:40:44Z</time>
      </trkpt>
      <trkpt lat="42.92133" lon="0.09575">
        <ele>2198</ele>
        <time>2015-01-10T10:41:17Z</time>
      </trkpt>
      <trkpt lat="42.92132" lon="0.09576">
        <ele>2198</ele>
        <time>2015-01-10T10:41:55Z</time>
      </trkpt>
      <trkpt lat="42.92133" lon="0.09577">
        <ele>2199</ele>
        <time>2015-01-10T10:42:38Z</time>
      </trkpt>
      <trkpt lat="42.92133" lon="0.09577">
        <ele>2198</ele>
        <time>2015-01-10T10:43:28Z</time>
      </trkpt>
      <trkpt lat="42.92133" lon="0.09577">
        <ele>2199</ele>
        <time>2015-01-10T10:44:16Z</time>
      </trkpt>
      <trkpt lat="42.92131" lon="0.09577">
        <ele>2199</ele>
        <time>2015-01-10T10:44:57Z</time>
      </trkpt>
      <trkpt lat="42.92132" lon="0.09577">
        <ele>2199</ele>
        <time>2015-01-10T10:45:44Z</time>
      </trkpt>
      <trkpt lat="42.92133" lon="0.09578">
        <ele>2198</ele>
        <time>2015-01-10T10:46:26Z</time>
      </trkpt>
      <trkpt lat="42.92132" lon="0.09577">
        <ele>2199</ele>
        <time>2015-01-10T10:47:08Z</time>
      </trkpt>
      <trkpt lat="42.92134" lon="0.09576">
        <ele>2199</ele>
        <time>2015-01-10T10:47:56Z</time>
      </trkpt>
      <trkpt lat="42.92133" lon="0.09575">
        <ele>2199</ele>
        <time>2015-01-10T10:48:17Z</time>
      </trkpt>
      <trkpt lat="42.92134" lon="0.09576">
        <ele>2200</ele>
        <time>2015-01-10T10:48:39Z</time>
      </trkpt>
      <trkpt lat="42.92135" lon="0.09575">
        <ele>2200</ele>
        <time>2015-01-10T10:48:52Z</time>
      </trkpt>
      <trkpt lat="42.92135" lon="0.09576">
        <ele>2199</ele>
        <time>2015-01-10T10:49:11Z</time>
      </trkpt>
      <trkpt lat="42.92133" lon="0.09576">
        <ele>2200</ele>
        <time>2015-01-10T10:49:24Z</time>
      </trkpt>
      <trkpt lat="42.92135" lon="0.09576">
        <ele>2200</ele>
        <time>2015-01-10T10:49:43Z</time>
      </trkpt>
      <trkpt lat="42.92134" lon="0.09579">
        <ele>2192</ele>
        <time>2015-01-10T10:50:02Z</time>
      </trkpt>
      <trkpt lat="42.92135" lon="0.09579">
        <ele>2203</ele>
        <time>2015-01-10T10:50:03Z</time>
      </trkpt>
      <trkpt lat="42.92135" lon="0.0958">
        <ele>2201</ele>
        <time>2015-01-10T10:50:04Z</time>
      </trkpt>
      <trkpt lat="42.92135" lon="0.0958">
        <ele>2205</ele>
        <time>2015-01-10T10:50:05Z</time>
      </trkpt>
      <trkpt lat="42.92135" lon="0.0958">
        <ele>2201</ele>
        <time>2015-01-10T10:50:06Z</time>
      </trkpt>
      <trkpt lat="42.92135" lon="0.09579">
        <ele>2200</ele>
        <time>2015-01-10T10:50:08Z</time>
      </trkpt>
      <trkpt lat="42.92136" lon="0.0958">
        <ele>2201</ele>
        <time>2015-01-10T10:50:17Z</time>
      </trkpt>
      <trkpt lat="42.92135" lon="0.0958">
        <ele>2200</ele>
        <time>2015-01-10T10:50:20Z</time>
      </trkpt>
      <trkpt lat="42.92135" lon="0.09578">
        <ele>2200</ele>
        <time>2015-01-10T10:50:37Z</time>
      </trkpt>
      <trkpt lat="42.9214" lon="0.09576">
        <ele>2201</ele>
        <time>2015-01-10T10:50:44Z</time>
      </trkpt>
      <trkpt lat="42.92144" lon="0.09566">
        <ele>2199</ele>
        <time>2015-01-10T10:51:01Z</time>
      </trkpt>
      <trkpt lat="42.92142" lon="0.09548">
        <ele>2201</ele>
        <time>2015-01-10T10:51:16Z</time>
      </trkpt>
      <trkpt lat="42.92141" lon="0.0954">
        <ele>2202</ele>
        <time>2015-01-10T10:51:31Z</time>
      </trkpt>
      <trkpt lat="42.92139" lon="0.09528">
        <ele>2204</ele>
        <time>2015-01-10T10:51:45Z</time>
      </trkpt>
      <trkpt lat="42.92144" lon="0.09516">
        <ele>2206</ele>
        <time>2015-01-10T10:52:04Z</time>
      </trkpt>
      <trkpt lat="42.92151" lon="0.09513">
        <ele>2209</ele>
        <time>2015-01-10T10:52:19Z</time>
      </trkpt>
      <trkpt lat="42.9216" lon="0.09504">
        <ele>2211</ele>
        <time>2015-01-10T10:52:35Z</time>
      </trkpt>
      <trkpt lat="42.92168" lon="0.09491">
        <ele>2214</ele>
        <time>2015-01-10T10:52:53Z</time>
      </trkpt>
      <trkpt lat="42.92177" lon="0.09482">
        <ele>2216</ele>
        <time>2015-01-10T10:53:09Z</time>
      </trkpt>
      <trkpt lat="42.92184" lon="0.09485">
        <ele>2218</ele>
        <time>2015-01-10T10:53:25Z</time>
      </trkpt>
      <trkpt lat="42.92192" lon="0.09484">
        <ele>2221</ele>
        <time>2015-01-10T10:53:40Z</time>
      </trkpt>
      <trkpt lat="42.922" lon="0.09487">
        <ele>2224</ele>
        <time>2015-01-10T10:53:56Z</time>
      </trkpt>
      <trkpt lat="42.92211" lon="0.09487">
        <ele>2226</ele>
        <time>2015-01-10T10:54:12Z</time>
      </trkpt>
      <trkpt lat="42.92218" lon="0.09492">
        <ele>2229</ele>
        <time>2015-01-10T10:54:28Z</time>
      </trkpt>
      <trkpt lat="42.92223" lon="0.09477">
        <ele>2232</ele>
        <time>2015-01-10T10:54:47Z</time>
      </trkpt>
      <trkpt lat="42.92231" lon="0.09475">
        <ele>2235</ele>
        <time>2015-01-10T10:55:02Z</time>
      </trkpt>
      <trkpt lat="42.92233" lon="0.09465">
        <ele>2237</ele>
        <time>2015-01-10T10:55:18Z</time>
      </trkpt>
      <trkpt lat="42.92239" lon="0.09456">
        <ele>2240</ele>
        <time>2015-01-10T10:55:35Z</time>
      </trkpt>
      <trkpt lat="42.92241" lon="0.09451">
        <ele>2241</ele>
        <time>2015-01-10T10:55:44Z</time>
      </trkpt>
      <trkpt lat="42.92243" lon="0.09442">
        <ele>2243</ele>
        <time>2015-01-10T10:55:58Z</time>
      </trkpt>
      <trkpt lat="42.92244" lon="0.09426">
        <ele>2246</ele>
        <time>2015-01-10T10:56:16Z</time>
      </trkpt>
      <trkpt lat="42.92244" lon="0.09417">
        <ele>2248</ele>
        <time>2015-01-10T10:56:32Z</time>
      </trkpt>
      <trkpt lat="42.9224" lon="0.09408">
        <ele>2250</ele>
        <time>2015-01-10T10:56:46Z</time>
      </trkpt>
      <trkpt lat="42.92238" lon="0.09398">
        <ele>2252</ele>
        <time>2015-01-10T10:57:00Z</time>
      </trkpt>
      <trkpt lat="42.9224" lon="0.09398">
        <ele>2253</ele>
        <time>2015-01-10T10:57:15Z</time>
      </trkpt>
      <trkpt lat="42.9225" lon="0.09398">
        <ele>2256</ele>
        <time>2015-01-10T10:57:35Z</time>
      </trkpt>
      <trkpt lat="42.92257" lon="0.09399">
        <ele>2259</ele>
        <time>2015-01-10T10:57:51Z</time>
      </trkpt>
      <trkpt lat="42.92253" lon="0.0939">
        <ele>2260</ele>
        <time>2015-01-10T10:58:05Z</time>
      </trkpt>
      <trkpt lat="42.92249" lon="0.09381">
        <ele>2262</ele>
        <time>2015-01-10T10:58:20Z</time>
      </trkpt>
      <trkpt lat="42.92246" lon="0.09372">
        <ele>2265</ele>
        <time>2015-01-10T10:58:37Z</time>
      </trkpt>
      <trkpt lat="42.9225" lon="0.09367">
        <ele>2268</ele>
        <time>2015-01-10T10:58:51Z</time>
      </trkpt>
      <trkpt lat="42.92252" lon="0.09356">
        <ele>2270</ele>
        <time>2015-01-10T10:59:05Z</time>
      </trkpt>
      <trkpt lat="42.92257" lon="0.09349">
        <ele>2271</ele>
        <time>2015-01-10T10:59:24Z</time>
      </trkpt>
      <trkpt lat="42.92261" lon="0.09328">
        <ele>2269</ele>
        <time>2015-01-10T10:59:38Z</time>
      </trkpt>
      <trkpt lat="42.9227" lon="0.09315">
        <ele>2269</ele>
        <time>2015-01-10T10:59:49Z</time>
      </trkpt>
      <trkpt lat="42.92277" lon="0.09302">
        <ele>2269</ele>
        <time>2015-01-10T11:00:02Z</time>
      </trkpt>
      <trkpt lat="42.92291" lon="0.09288">
        <ele>2270</ele>
        <time>2015-01-10T11:00:17Z</time>
      </trkpt>
      <trkpt lat="42.92293" lon="0.09286">
        <ele>2270</ele>
        <time>2015-01-10T11:00:20Z</time>
      </trkpt>
      <trkpt lat="42.92303" lon="0.09281">
        <ele>2272</ele>
        <time>2015-01-10T11:00:33Z</time>
      </trkpt>
      <trkpt lat="42.92312" lon="0.09278">
        <ele>2274</ele>
        <time>2015-01-10T11:00:48Z</time>
      </trkpt>
      <trkpt lat="42.92318" lon="0.09272">
        <ele>2277</ele>
        <time>2015-01-10T11:01:03Z</time>
      </trkpt>
      <trkpt lat="42.92328" lon="0.09269">
        <ele>2278</ele>
        <time>2015-01-10T11:01:18Z</time>
      </trkpt>
      <trkpt lat="42.9233" lon="0.09268">
        <ele>2280</ele>
        <time>2015-01-10T11:01:36Z</time>
      </trkpt>
      <trkpt lat="42.92338" lon="0.09264">
        <ele>2282</ele>
        <time>2015-01-10T11:01:53Z</time>
      </trkpt>
      <trkpt lat="42.92345" lon="0.09255">
        <ele>2285</ele>
        <time>2015-01-10T11:02:12Z</time>
      </trkpt>
      <trkpt lat="42.92353" lon="0.09247">
        <ele>2288</ele>
        <time>2015-01-10T11:02:30Z</time>
      </trkpt>
      <trkpt lat="42.92358" lon="0.0924">
        <ele>2290</ele>
        <time>2015-01-10T11:02:47Z</time>
      </trkpt>
      <trkpt lat="42.92365" lon="0.09231">
        <ele>2292</ele>
        <time>2015-01-10T11:03:03Z</time>
      </trkpt>
      <trkpt lat="42.92371" lon="0.09226">
        <ele>2295</ele>
        <time>2015-01-10T11:03:18Z</time>
      </trkpt>
      <trkpt lat="42.92376" lon="0.09231">
        <ele>2297</ele>
        <time>2015-01-10T11:03:31Z</time>
      </trkpt>
      <trkpt lat="42.9238" lon="0.09221">
        <ele>2299</ele>
        <time>2015-01-10T11:03:45Z</time>
      </trkpt>
      <trkpt lat="42.92384" lon="0.09206">
        <ele>2301</ele>
        <time>2015-01-10T11:03:59Z</time>
      </trkpt>
      <trkpt lat="42.92385" lon="0.09195">
        <ele>2303</ele>
        <time>2015-01-10T11:04:13Z</time>
      </trkpt>
      <trkpt lat="42.92387" lon="0.09191">
        <ele>2305</ele>
        <time>2015-01-10T11:04:26Z</time>
      </trkpt>
      <trkpt lat="42.92394" lon="0.09189">
        <ele>2307</ele>
        <time>2015-01-10T11:04:41Z</time>
      </trkpt>
      <trkpt lat="42.92402" lon="0.09187">
        <ele>2310</ele>
        <time>2015-01-10T11:04:57Z</time>
      </trkpt>
      <trkpt lat="42.92414" lon="0.09187">
        <ele>2313</ele>
        <time>2015-01-10T11:05:14Z</time>
      </trkpt>
      <trkpt lat="42.92416" lon="0.09183">
        <ele>2314</ele>
        <time>2015-01-10T11:05:30Z</time>
      </trkpt>
      <trkpt lat="42.92414" lon="0.09173">
        <ele>2317</ele>
        <time>2015-01-10T11:05:46Z</time>
      </trkpt>
      <trkpt lat="42.92418" lon="0.09175">
        <ele>2319</ele>
        <time>2015-01-10T11:06:01Z</time>
      </trkpt>
      <trkpt lat="42.92425" lon="0.0918">
        <ele>2321</ele>
        <time>2015-01-10T11:06:17Z</time>
      </trkpt>
      <trkpt lat="42.92435" lon="0.09186">
        <ele>2324</ele>
        <time>2015-01-10T11:06:34Z</time>
      </trkpt>
      <trkpt lat="42.92435" lon="0.0918">
        <ele>2326</ele>
        <time>2015-01-10T11:06:48Z</time>
      </trkpt>
      <trkpt lat="42.92435" lon="0.09171">
        <ele>2328</ele>
        <time>2015-01-10T11:07:04Z</time>
      </trkpt>
      <trkpt lat="42.92433" lon="0.09167">
        <ele>2328</ele>
        <time>2015-01-10T11:07:21Z</time>
      </trkpt>
      <trkpt lat="42.9244" lon="0.09175">
        <ele>2330</ele>
        <time>2015-01-10T11:07:39Z</time>
      </trkpt>
      <trkpt lat="42.92446" lon="0.09175">
        <ele>2333</ele>
        <time>2015-01-10T11:07:52Z</time>
      </trkpt>
      <trkpt lat="42.92446" lon="0.0916">
        <ele>2336</ele>
        <time>2015-01-10T11:08:08Z</time>
      </trkpt>
      <trkpt lat="42.92447" lon="0.09145">
        <ele>2339</ele>
        <time>2015-01-10T11:08:26Z</time>
      </trkpt>
      <trkpt lat="42.92448" lon="0.09134">
        <ele>2340</ele>
        <time>2015-01-10T11:08:42Z</time>
      </trkpt>
      <trkpt lat="42.92448" lon="0.09123">
        <ele>2344</ele>
        <time>2015-01-10T11:09:00Z</time>
      </trkpt>
      <trkpt lat="42.9245" lon="0.09111">
        <ele>2346</ele>
        <time>2015-01-10T11:09:16Z</time>
      </trkpt>
      <trkpt lat="42.92452" lon="0.09098">
        <ele>2349</ele>
        <time>2015-01-10T11:09:33Z</time>
      </trkpt>
      <trkpt lat="42.92452" lon="0.09088">
        <ele>2352</ele>
        <time>2015-01-10T11:09:48Z</time>
      </trkpt>
      <trkpt lat="42.9245" lon="0.09075">
        <ele>2354</ele>
        <time>2015-01-10T11:10:04Z</time>
      </trkpt>
      <trkpt lat="42.9245" lon="0.09071">
        <ele>2356</ele>
        <time>2015-01-10T11:10:18Z</time>
      </trkpt>
      <trkpt lat="42.92449" lon="0.09076">
        <ele>2357</ele>
        <time>2015-01-10T11:10:41Z</time>
      </trkpt>
      <trkpt lat="42.92455" lon="0.09081">
        <ele>2358</ele>
        <time>2015-01-10T11:10:54Z</time>
      </trkpt>
      <trkpt lat="42.92463" lon="0.09087">
        <ele>2361</ele>
        <time>2015-01-10T11:11:08Z</time>
      </trkpt>
      <trkpt lat="42.92469" lon="0.09099">
        <ele>2364</ele>
        <time>2015-01-10T11:11:25Z</time>
      </trkpt>
      <trkpt lat="42.92473" lon="0.09111">
        <ele>2366</ele>
        <time>2015-01-10T11:11:41Z</time>
      </trkpt>
      <trkpt lat="42.92479" lon="0.09124">
        <ele>2369</ele>
        <time>2015-01-10T11:11:58Z</time>
      </trkpt>
      <trkpt lat="42.92482" lon="0.09134">
        <ele>2371</ele>
        <time>2015-01-10T11:12:13Z</time>
      </trkpt>
      <trkpt lat="42.92488" lon="0.09126">
        <ele>2373</ele>
        <time>2015-01-10T11:12:30Z</time>
      </trkpt>
      <trkpt lat="42.92491" lon="0.09112">
        <ele>2377</ele>
        <time>2015-01-10T11:12:46Z</time>
      </trkpt>
      <trkpt lat="42.92491" lon="0.09099">
        <ele>2379</ele>
        <time>2015-01-10T11:13:02Z</time>
      </trkpt>
      <trkpt lat="42.9249" lon="0.09105">
        <ele>2380</ele>
        <time>2015-01-10T11:13:18Z</time>
      </trkpt>
      <trkpt lat="42.92495" lon="0.09113">
        <ele>2381</ele>
        <time>2015-01-10T11:13:31Z</time>
      </trkpt>
      <trkpt lat="42.92499" lon="0.09129">
        <ele>2383</ele>
        <time>2015-01-10T11:13:49Z</time>
      </trkpt>
      <trkpt lat="42.92505" lon="0.09139">
        <ele>2387</ele>
        <time>2015-01-10T11:14:08Z</time>
      </trkpt>
      <trkpt lat="42.92509" lon="0.09126">
        <ele>2389</ele>
        <time>2015-01-10T11:14:23Z</time>
      </trkpt>
      <trkpt lat="42.9251" lon="0.09118">
        <ele>2391</ele>
        <time>2015-01-10T11:14:37Z</time>
      </trkpt>
      <trkpt lat="42.9251" lon="0.09124">
        <ele>2392</ele>
        <time>2015-01-10T11:14:53Z</time>
      </trkpt>
      <trkpt lat="42.92514" lon="0.09133">
        <ele>2394</ele>
        <time>2015-01-10T11:15:06Z</time>
      </trkpt>
      <trkpt lat="42.92514" lon="0.09132">
        <ele>2395</ele>
        <time>2015-01-10T11:15:20Z</time>
      </trkpt>
      <trkpt lat="42.92514" lon="0.09129">
        <ele>2395</ele>
        <time>2015-01-10T11:15:41Z</time>
      </trkpt>
      <trkpt lat="42.92514" lon="0.09126">
        <ele>2396</ele>
        <time>2015-01-10T11:16:01Z</time>
      </trkpt>
      <trkpt lat="42.92516" lon="0.09115">
        <ele>2398</ele>
        <time>2015-01-10T11:16:16Z</time>
      </trkpt>
      <trkpt lat="42.92517" lon="0.09108">
        <ele>2400</ele>
        <time>2015-01-10T11:16:34Z</time>
      </trkpt>
      <trkpt lat="42.92514" lon="0.09105">
        <ele>2401</ele>
        <time>2015-01-10T11:16:54Z</time>
      </trkpt>
      <trkpt lat="42.92514" lon="0.09098">
        <ele>2402</ele>
        <time>2015-01-10T11:17:09Z</time>
      </trkpt>
      <trkpt lat="42.92512" lon="0.09091">
        <ele>2403</ele>
        <time>2015-01-10T11:17:23Z</time>
      </trkpt>
      <trkpt lat="42.92512" lon="0.09084">
        <ele>2404</ele>
        <time>2015-01-10T11:17:36Z</time>
      </trkpt>
      <trkpt lat="42.92511" lon="0.09074">
        <ele>2405</ele>
        <time>2015-01-10T11:17:51Z</time>
      </trkpt>
      <trkpt lat="42.92511" lon="0.0907">
        <ele>2406</ele>
        <time>2015-01-10T11:18:05Z</time>
      </trkpt>
      <trkpt lat="42.92512" lon="0.09063">
        <ele>2408</ele>
        <time>2015-01-10T11:18:24Z</time>
      </trkpt>
      <trkpt lat="42.92512" lon="0.09058">
        <ele>2410</ele>
        <time>2015-01-10T11:18:41Z</time>
      </trkpt>
      <trkpt lat="42.92511" lon="0.09052">
        <ele>2411</ele>
        <time>2015-01-10T11:19:01Z</time>
      </trkpt>
      <trkpt lat="42.92513" lon="0.09047">
        <ele>2412</ele>
        <time>2015-01-10T11:19:18Z</time>
      </trkpt>
      <trkpt lat="42.92515" lon="0.09049">
        <ele>2414</ele>
        <time>2015-01-10T11:19:30Z</time>
      </trkpt>
      <trkpt lat="42.92522" lon="0.09059">
        <ele>2417</ele>
        <time>2015-01-10T11:19:48Z</time>
      </trkpt>
      <trkpt lat="42.92527" lon="0.0907">
        <ele>2419</ele>
        <time>2015-01-10T11:20:02Z</time>
      </trkpt>
      <trkpt lat="42.92532" lon="0.09074">
        <ele>2421</ele>
        <time>2015-01-10T11:20:17Z</time>
      </trkpt>
      <trkpt lat="42.92532" lon="0.09075">
        <ele>2422</ele>
        <time>2015-01-10T11:20:39Z</time>
      </trkpt>
      <trkpt lat="42.92531" lon="0.09066">
        <ele>2425</ele>
        <time>2015-01-10T11:20:55Z</time>
      </trkpt>
      <trkpt lat="42.92531" lon="0.09057">
        <ele>2427</ele>
        <time>2015-01-10T11:21:09Z</time>
      </trkpt>
      <trkpt lat="42.92529" lon="0.09054">
        <ele>2428</ele>
        <time>2015-01-10T11:21:27Z</time>
      </trkpt>
      <trkpt lat="42.92533" lon="0.0906">
        <ele>2429</ele>
        <time>2015-01-10T11:21:41Z</time>
      </trkpt>
      <trkpt lat="42.9254" lon="0.09074">
        <ele>2432</ele>
        <time>2015-01-10T11:21:57Z</time>
      </trkpt>
      <trkpt lat="42.92544" lon="0.09074">
        <ele>2434</ele>
        <time>2015-01-10T11:22:13Z</time>
      </trkpt>
      <trkpt lat="42.92545" lon="0.09064">
        <ele>2437</ele>
        <time>2015-01-10T11:22:27Z</time>
      </trkpt>
      <trkpt lat="42.92547" lon="0.09057">
        <ele>2439</ele>
        <time>2015-01-10T11:22:38Z</time>
      </trkpt>
      <trkpt lat="42.92546" lon="0.09045">
        <ele>2442</ele>
        <time>2015-01-10T11:22:55Z</time>
      </trkpt>
      <trkpt lat="42.92546" lon="0.09041">
        <ele>2444</ele>
        <time>2015-01-10T11:23:03Z</time>
      </trkpt>
      <trkpt lat="42.92546" lon="0.09032">
        <ele>2447</ele>
        <time>2015-01-10T11:23:13Z</time>
      </trkpt>
      <trkpt lat="42.92545" lon="0.09014">
        <ele>2448</ele>
        <time>2015-01-10T11:23:28Z</time>
      </trkpt>
      <trkpt lat="42.92545" lon="0.09007">
        <ele>2449</ele>
        <time>2015-01-10T11:23:35Z</time>
      </trkpt>
      <trkpt lat="42.92543" lon="0.08992">
        <ele>2451</ele>
        <time>2015-01-10T11:23:51Z</time>
      </trkpt>
      <trkpt lat="42.92542" lon="0.08984">
        <ele>2452</ele>
        <time>2015-01-10T11:24:04Z</time>
      </trkpt>
      <trkpt lat="42.92543" lon="0.08986">
        <ele>2452</ele>
        <time>2015-01-10T11:24:27Z</time>
      </trkpt>
      <trkpt lat="42.92543" lon="0.08985">
        <ele>2451</ele>
        <time>2015-01-10T11:24:44Z</time>
      </trkpt>
      <trkpt lat="42.92543" lon="0.08987">
        <ele>2452</ele>
        <time>2015-01-10T11:25:05Z</time>
      </trkpt>
      <trkpt lat="42.92543" lon="0.08986">
        <ele>2451</ele>
        <time>2015-01-10T11:25:33Z</time>
      </trkpt>
      <trkpt lat="42.92543" lon="0.08985">
        <ele>2452</ele>
        <time>2015-01-10T11:25:56Z</time>
      </trkpt>
      <trkpt lat="42.92544" lon="0.08985">
        <ele>2451</ele>
        <time>2015-01-10T11:26:23Z</time>
      </trkpt>
      <trkpt lat="42.92545" lon="0.08985">
        <ele>2451</ele>
        <time>2015-01-10T11:26:46Z</time>
      </trkpt>
      <trkpt lat="42.92545" lon="0.08987">
        <ele>2451</ele>
        <time>2015-01-10T11:27:16Z</time>
      </trkpt>
      <trkpt lat="42.92545" lon="0.08986">
        <ele>2452</ele>
        <time>2015-01-10T11:27:28Z</time>
      </trkpt>
      <trkpt lat="42.92544" lon="0.08986">
        <ele>2451</ele>
        <time>2015-01-10T11:27:30Z</time>
      </trkpt>
      <trkpt lat="42.92544" lon="0.08984">
        <ele>2451</ele>
        <time>2015-01-10T11:27:49Z</time>
      </trkpt>
      <trkpt lat="42.92545" lon="0.08985">
        <ele>2452</ele>
        <time>2015-01-10T11:28:06Z</time>
      </trkpt>
      <trkpt lat="42.92544" lon="0.08985">
        <ele>2445</ele>
        <time>2015-01-10T11:28:10Z</time>
      </trkpt>
      <trkpt lat="42.92544" lon="0.08985">
        <ele>2449</ele>
        <time>2015-01-10T11:28:11Z</time>
      </trkpt>
      <trkpt lat="42.92543" lon="0.08986">
        <ele>2444</ele>
        <time>2015-01-10T11:28:15Z</time>
      </trkpt>
      <trkpt lat="42.92543" lon="0.08986">
        <ele>2468</ele>
        <time>2015-01-10T11:28:16Z</time>
      </trkpt>
      <trkpt lat="42.92544" lon="0.08985">
        <ele>2455</ele>
        <time>2015-01-10T11:28:17Z</time>
      </trkpt>
      <trkpt lat="42.92544" lon="0.08985">
        <ele>2451</ele>
        <time>2015-01-10T11:28:18Z</time>
      </trkpt>
      <trkpt lat="42.92543" lon="0.08985">
        <ele>2451</ele>
        <time>2015-01-10T11:28:41Z</time>
      </trkpt>
      <trkpt lat="42.92543" lon="0.08985">
        <ele>2451</ele>
        <time>2015-01-10T11:29:03Z</time>
      </trkpt>
      <trkpt lat="42.92543" lon="0.08987">
        <ele>2451</ele>
        <time>2015-01-10T11:29:28Z</time>
      </trkpt>
      <trkpt lat="42.92544" lon="0.08986">
        <ele>2452</ele>
        <time>2015-01-10T11:29:54Z</time>
      </trkpt>
      <trkpt lat="42.92545" lon="0.08987">
        <ele>2451</ele>
        <time>2015-01-10T11:30:18Z</time>
      </trkpt>
      <trkpt lat="42.92544" lon="0.08986">
        <ele>2451</ele>
        <time>2015-01-10T11:30:42Z</time>
      </trkpt>
      <trkpt lat="42.92543" lon="0.08988">
        <ele>2451</ele>
        <time>2015-01-10T11:31:07Z</time>
      </trkpt>
      <trkpt lat="42.92544" lon="0.08985">
        <ele>2451</ele>
        <time>2015-01-10T11:31:34Z</time>
      </trkpt>
      <trkpt lat="42.92543" lon="0.08986">
        <ele>2451</ele>
        <time>2015-01-10T11:31:58Z</time>
      </trkpt>
      <trkpt lat="42.92545" lon="0.08985">
        <ele>2451</ele>
        <time>2015-01-10T11:32:26Z</time>
      </trkpt>
      <trkpt lat="42.92544" lon="0.08986">
        <ele>2453</ele>
        <time>2015-01-10T11:32:47Z</time>
      </trkpt>
      <trkpt lat="42.92545" lon="0.08986">
        <ele>2451</ele>
        <time>2015-01-10T11:33:10Z</time>
      </trkpt>
      <trkpt lat="42.92545" lon="0.08986">
        <ele>2453</ele>
        <time>2015-01-10T11:33:13Z</time>
      </trkpt>
      <trkpt lat="42.92545" lon="0.08988">
        <ele>2453</ele>
        <time>2015-01-10T11:33:37Z</time>
      </trkpt>
      <trkpt lat="42.92545" lon="0.08986">
        <ele>2451</ele>
        <time>2015-01-10T11:34:01Z</time>
      </trkpt>
      <trkpt lat="42.92545" lon="0.08985">
        <ele>2451</ele>
        <time>2015-01-10T11:34:29Z</time>
      </trkpt>
      <trkpt lat="42.92544" lon="0.08986">
        <ele>2452</ele>
        <time>2015-01-10T11:34:44Z</time>
      </trkpt>
      <trkpt lat="42.92545" lon="0.08987">
        <ele>2452</ele>
        <time>2015-01-10T11:35:09Z</time>
      </trkpt>
      <trkpt lat="42.92545" lon="0.08987">
        <ele>2452</ele>
        <time>2015-01-10T11:35:30Z</time>
      </trkpt>
      <trkpt lat="42.92545" lon="0.08988">
        <ele>2452</ele>
        <time>2015-01-10T11:36:00Z</time>
      </trkpt>
      <trkpt lat="42.92545" lon="0.08988">
        <ele>2452</ele>
        <time>2015-01-10T11:36:29Z</time>
      </trkpt>
      <trkpt lat="42.92546" lon="0.08989">
        <ele>2454</ele>
        <time>2015-01-10T11:36:54Z</time>
      </trkpt>
      <trkpt lat="42.92547" lon="0.08983">
        <ele>2453</ele>
        <time>2015-01-10T11:37:12Z</time>
      </trkpt>
      <trkpt lat="42.92549" lon="0.08982">
        <ele>2454</ele>
        <time>2015-01-10T11:37:36Z</time>
      </trkpt>
      <trkpt lat="42.92548" lon="0.08985">
        <ele>2453</ele>
        <time>2015-01-10T11:38:00Z</time>
      </trkpt>
      <trkpt lat="42.92545" lon="0.08986">
        <ele>2456</ele>
        <time>2015-01-10T11:38:24Z</time>
      </trkpt>
      <trkpt lat="42.92545" lon="0.08986">
        <ele>2454</ele>
        <time>2015-01-10T11:38:25Z</time>
      </trkpt>
      <trkpt lat="42.92545" lon="0.08987">
        <ele>2454</ele>
        <time>2015-01-10T11:38:46Z</time>
      </trkpt>
      <trkpt lat="42.92545" lon="0.08985">
        <ele>2453</ele>
        <time>2015-01-10T11:39:10Z</time>
      </trkpt>
      <trkpt lat="42.92545" lon="0.08986">
        <ele>2454</ele>
        <time>2015-01-10T11:39:31Z</time>
      </trkpt>
      <trkpt lat="42.92545" lon="0.08987">
        <ele>2454</ele>
        <time>2015-01-10T11:39:57Z</time>
      </trkpt>
      <trkpt lat="42.92547" lon="0.08986">
        <ele>2453</ele>
        <time>2015-01-10T11:40:25Z</time>
      </trkpt>
      <trkpt lat="42.92547" lon="0.08986">
        <ele>2453</ele>
        <time>2015-01-10T11:40:26Z</time>
      </trkpt>
      <trkpt lat="42.92546" lon="0.08987">
        <ele>2455</ele>
        <time>2015-01-10T11:40:51Z</time>
      </trkpt>
      <trkpt lat="42.92546" lon="0.08988">
        <ele>2454</ele>
        <time>2015-01-10T11:41:16Z</time>
      </trkpt>
      <trkpt lat="42.92547" lon="0.08986">
        <ele>2454</ele>
        <time>2015-01-10T11:41:41Z</time>
      </trkpt>
      <trkpt lat="42.92548" lon="0.08986">
        <ele>2453</ele>
        <time>2015-01-10T11:42:08Z</time>
      </trkpt>
      <trkpt lat="42.92545" lon="0.08986">
        <ele>2454</ele>
        <time>2015-01-10T11:42:35Z</time>
      </trkpt>
      <trkpt lat="42.92545" lon="0.08988">
        <ele>2456</ele>
        <time>2015-01-10T11:43:02Z</time>
      </trkpt>
      <trkpt lat="42.92546" lon="0.08989">
        <ele>2450</ele>
        <time>2015-01-10T11:43:17Z</time>
      </trkpt>
      <trkpt lat="42.92545" lon="0.08989">
        <ele>2453</ele>
        <time>2015-01-10T11:43:18Z</time>
      </trkpt>
      <trkpt lat="42.92545" lon="0.08989">
        <ele>2457</ele>
        <time>2015-01-10T11:43:19Z</time>
      </trkpt>
      <trkpt lat="42.92545" lon="0.08989">
        <ele>2457</ele>
        <time>2015-01-10T11:43:20Z</time>
      </trkpt>
      <trkpt lat="42.92546" lon="0.08989">
        <ele>2455</ele>
        <time>2015-01-10T11:43:22Z</time>
      </trkpt>
      <trkpt lat="42.92544" lon="0.08986">
        <ele>2455</ele>
        <time>2015-01-10T11:43:44Z</time>
      </trkpt>
      <trkpt lat="42.92545" lon="0.08986">
        <ele>2451</ele>
        <time>2015-01-10T11:43:50Z</time>
      </trkpt>
      <trkpt lat="42.92545" lon="0.08986">
        <ele>2452</ele>
        <time>2015-01-10T11:43:51Z</time>
      </trkpt>
      <trkpt lat="42.92546" lon="0.08987">
        <ele>2453</ele>
        <time>2015-01-10T11:43:53Z</time>
      </trkpt>
      <trkpt lat="42.92546" lon="0.08988">
        <ele>2460</ele>
        <time>2015-01-10T11:43:54Z</time>
      </trkpt>
      <trkpt lat="42.92547" lon="0.08988">
        <ele>2457</ele>
        <time>2015-01-10T11:43:55Z</time>
      </trkpt>
      <trkpt lat="42.92547" lon="0.08989">
        <ele>2454</ele>
        <time>2015-01-10T11:43:57Z</time>
      </trkpt>
      <trkpt lat="42.92545" lon="0.0899">
        <ele>2453</ele>
        <time>2015-01-10T11:44:03Z</time>
      </trkpt>
      <trkpt lat="42.92545" lon="0.0899">
        <ele>2449</ele>
        <time>2015-01-10T11:44:04Z</time>
      </trkpt>
      <trkpt lat="42.92545" lon="0.0899">
        <ele>2453</ele>
        <time>2015-01-10T11:44:05Z</time>
      </trkpt>
      <trkpt lat="42.92545" lon="0.0899">
        <ele>2460</ele>
        <time>2015-01-10T11:44:06Z</time>
      </trkpt>
      <trkpt lat="42.92545" lon="0.0899">
        <ele>2458</ele>
        <time>2015-01-10T11:44:07Z</time>
      </trkpt>
      <trkpt lat="42.92545" lon="0.0899">
        <ele>2454</ele>
        <time>2015-01-10T11:44:09Z</time>
      </trkpt>
      <trkpt lat="42.92546" lon="0.08989">
        <ele>2447</ele>
        <time>2015-01-10T11:44:37Z</time>
      </trkpt>
      <trkpt lat="42.92546" lon="0.08989">
        <ele>2449</ele>
        <time>2015-01-10T11:44:38Z</time>
      </trkpt>
      <trkpt lat="42.92545" lon="0.08989">
        <ele>2453</ele>
        <time>2015-01-10T11:44:39Z</time>
      </trkpt>
      <trkpt lat="42.92545" lon="0.08989">
        <ele>2452</ele>
        <time>2015-01-10T11:44:40Z</time>
      </trkpt>
      <trkpt lat="42.92546" lon="0.08991">
        <ele>2470</ele>
        <time>2015-01-10T11:44:44Z</time>
      </trkpt>
      <trkpt lat="42.92546" lon="0.08992">
        <ele>2452</ele>
        <time>2015-01-10T11:44:45Z</time>
      </trkpt>
      <trkpt lat="42.92546" lon="0.08992">
        <ele>2448</ele>
        <time>2015-01-10T11:44:46Z</time>
      </trkpt>
      <trkpt lat="42.92547" lon="0.08992">
        <ele>2457</ele>
        <time>2015-01-10T11:44:47Z</time>
      </trkpt>
      <trkpt lat="42.92547" lon="0.0899">
        <ele>2454</ele>
        <time>2015-01-10T11:44:50Z</time>
      </trkpt>
      <trkpt lat="42.92546" lon="0.0899">
        <ele>2454</ele>
        <time>2015-01-10T11:44:51Z</time>
      </trkpt>
      <trkpt lat="42.92545" lon="0.08991">
        <ele>2454</ele>
        <time>2015-01-10T11:45:21Z</time>
      </trkpt>
      <trkpt lat="42.92543" lon="0.08988">
        <ele>2455</ele>
        <time>2015-01-10T11:45:54Z</time>
      </trkpt>
      <trkpt lat="42.92542" lon="0.08998">
        <ele>2451</ele>
        <time>2015-01-10T11:45:58Z</time>
      </trkpt>
      <trkpt lat="42.92544" lon="0.09">
        <ele>2452</ele>
        <time>2015-01-10T11:46:03Z</time>
      </trkpt>
      <trkpt lat="42.92543" lon="0.09008">
        <ele>2450</ele>
        <time>2015-01-10T11:46:07Z</time>
      </trkpt>
      <trkpt lat="42.92541" lon="0.09008">
        <ele>2448</ele>
        <time>2015-01-10T11:46:10Z</time>
      </trkpt>
      <trkpt lat="42.9254" lon="0.0902">
        <ele>2440</ele>
        <time>2015-01-10T11:46:15Z</time>
      </trkpt>
      <trkpt lat="42.9254" lon="0.09024">
        <ele>2441</ele>
        <time>2015-01-10T11:46:17Z</time>
      </trkpt>
      <trkpt lat="42.92539" lon="0.09028">
        <ele>2438</ele>
        <time>2015-01-10T11:46:23Z</time>
      </trkpt>
      <trkpt lat="42.92538" lon="0.09044">
        <ele>2437</ele>
        <time>2015-01-10T11:46:36Z</time>
      </trkpt>
      <trkpt lat="42.92538" lon="0.0906">
        <ele>2435</ele>
        <time>2015-01-10T11:46:51Z</time>
      </trkpt>
      <trkpt lat="42.92539" lon="0.09066">
        <ele>2433</ele>
        <time>2015-01-10T11:47:05Z</time>
      </trkpt>
      <trkpt lat="42.92539" lon="0.09072">
        <ele>2429</ele>
        <time>2015-01-10T11:47:07Z</time>
      </trkpt>
      <trkpt lat="42.92537" lon="0.09074">
        <ele>2430</ele>
        <time>2015-01-10T11:47:09Z</time>
      </trkpt>
      <trkpt lat="42.92535" lon="0.09069">
        <ele>2424</ele>
        <time>2015-01-10T11:47:11Z</time>
      </trkpt>
      <trkpt lat="42.92533" lon="0.09068">
        <ele>2430</ele>
        <time>2015-01-10T11:47:12Z</time>
      </trkpt>
      <trkpt lat="42.92531" lon="0.09069">
        <ele>2425</ele>
        <time>2015-01-10T11:47:13Z</time>
      </trkpt>
      <trkpt lat="42.92527" lon="0.09072">
        <ele>2418</ele>
        <time>2015-01-10T11:47:17Z</time>
      </trkpt>
      <trkpt lat="42.92525" lon="0.09071">
        <ele>2419</ele>
        <time>2015-01-10T11:47:19Z</time>
      </trkpt>
      <trkpt lat="42.92524" lon="0.09079">
        <ele>2411</ele>
        <time>2015-01-10T11:47:23Z</time>
      </trkpt>
      <trkpt lat="42.92522" lon="0.09089">
        <ele>2407</ele>
        <time>2015-01-10T11:47:27Z</time>
      </trkpt>
      <trkpt lat="42.92519" lon="0.09104">
        <ele>2398</ele>
        <time>2015-01-10T11:47:31Z</time>
      </trkpt>
      <trkpt lat="42.92518" lon="0.09109">
        <ele>2399</ele>
        <time>2015-01-10T11:47:33Z</time>
      </trkpt>
      <trkpt lat="42.92517" lon="0.09111">
        <ele>2395</ele>
        <time>2015-01-10T11:47:34Z</time>
      </trkpt>
      <trkpt lat="42.92516" lon="0.09112">
        <ele>2398</ele>
        <time>2015-01-10T11:47:35Z</time>
      </trkpt>
      <trkpt lat="42.92515" lon="0.09115">
        <ele>2394</ele>
        <time>2015-01-10T11:47:36Z</time>
      </trkpt>
      <trkpt lat="42.92514" lon="0.09122">
        <ele>2389</ele>
        <time>2015-01-10T11:47:38Z</time>
      </trkpt>
      <trkpt lat="42.92512" lon="0.09124">
        <ele>2389</ele>
        <time>2015-01-10T11:47:39Z</time>
      </trkpt>
      <trkpt lat="42.92507" lon="0.09127">
        <ele>2385</ele>
        <time>2015-01-10T11:47:41Z</time>
      </trkpt>
      <trkpt lat="42.92503" lon="0.09133">
        <ele>2381</ele>
        <time>2015-01-10T11:47:43Z</time>
      </trkpt>
      <trkpt lat="42.92499" lon="0.09137">
        <ele>2377</ele>
        <time>2015-01-10T11:47:45Z</time>
      </trkpt>
      <trkpt lat="42.92497" lon="0.09142">
        <ele>2369</ele>
        <time>2015-01-10T11:47:47Z</time>
      </trkpt>
      <trkpt lat="42.92487" lon="0.09154">
        <ele>2364</ele>
        <time>2015-01-10T11:47:51Z</time>
      </trkpt>
      <trkpt lat="42.92482" lon="0.09166">
        <ele>2361</ele>
        <time>2015-01-10T11:47:54Z</time>
      </trkpt>
      <trkpt lat="42.92478" lon="0.0917">
        <ele>2359</ele>
        <time>2015-01-10T11:47:56Z</time>
      </trkpt>
      <trkpt lat="42.92476" lon="0.09172">
        <ele>2355</ele>
        <time>2015-01-10T11:47:57Z</time>
      </trkpt>
      <trkpt lat="42.92464" lon="0.09171">
        <ele>2348</ele>
        <time>2015-01-10T11:48:00Z</time>
      </trkpt>
      <trkpt lat="42.92455" lon="0.09152">
        <ele>2350</ele>
        <time>2015-01-10T11:48:15Z</time>
      </trkpt>
      <trkpt lat="42.92447" lon="0.09143">
        <ele>2350</ele>
        <time>2015-01-10T11:48:43Z</time>
      </trkpt>
      <trkpt lat="42.92445" lon="0.09138">
        <ele>2346</ele>
        <time>2015-01-10T11:48:58Z</time>
      </trkpt>
      <trkpt lat="42.92441" lon="0.09142">
        <ele>2347</ele>
        <time>2015-01-10T11:49:00Z</time>
      </trkpt>
      <trkpt lat="42.9244" lon="0.09154">
        <ele>2343</ele>
        <time>2015-01-10T11:49:02Z</time>
      </trkpt>
      <trkpt lat="42.92441" lon="0.0916">
        <ele>2344</ele>
        <time>2015-01-10T11:49:04Z</time>
      </trkpt>
      <trkpt lat="42.92439" lon="0.09173">
        <ele>2340</ele>
        <time>2015-01-10T11:49:08Z</time>
      </trkpt>
      <trkpt lat="42.92441" lon="0.09194">
        <ele>2339</ele>
        <time>2015-01-10T11:49:12Z</time>
      </trkpt>
      <trkpt lat="42.92439" lon="0.09201">
        <ele>2334</ele>
        <time>2015-01-10T11:49:14Z</time>
      </trkpt>
      <trkpt lat="42.92438" lon="0.092">
        <ele>2331</ele>
        <time>2015-01-10T11:49:15Z</time>
      </trkpt>
      <trkpt lat="42.92436" lon="0.09199">
        <ele>2334</ele>
        <time>2015-01-10T11:49:16Z</time>
      </trkpt>
      <trkpt lat="42.92433" lon="0.092">
        <ele>2329</ele>
        <time>2015-01-10T11:49:17Z</time>
      </trkpt>
      <trkpt lat="42.92432" lon="0.09203">
        <ele>2324</ele>
        <time>2015-01-10T11:49:18Z</time>
      </trkpt>
      <trkpt lat="42.9243" lon="0.09207">
        <ele>2326</ele>
        <time>2015-01-10T11:49:19Z</time>
      </trkpt>
      <trkpt lat="42.92427" lon="0.09211">
        <ele>2322</ele>
        <time>2015-01-10T11:49:20Z</time>
      </trkpt>
      <trkpt lat="42.92422" lon="0.09216">
        <ele>2318</ele>
        <time>2015-01-10T11:49:22Z</time>
      </trkpt>
      <trkpt lat="42.92419" lon="0.09217">
        <ele>2318</ele>
        <time>2015-01-10T11:49:23Z</time>
      </trkpt>
      <trkpt lat="42.92408" lon="0.09229">
        <ele>2311</ele>
        <time>2015-01-10T11:49:26Z</time>
      </trkpt>
      <trkpt lat="42.92398" lon="0.09244">
        <ele>2309</ele>
        <time>2015-01-10T11:49:29Z</time>
      </trkpt>
      <trkpt lat="42.92386" lon="0.09251">
        <ele>2308</ele>
        <time>2015-01-10T11:49:32Z</time>
      </trkpt>
      <trkpt lat="42.92376" lon="0.09256">
        <ele>2306</ele>
        <time>2015-01-10T11:49:35Z</time>
      </trkpt>
      <trkpt lat="42.92373" lon="0.0926">
        <ele>2304</ele>
        <time>2015-01-10T11:49:36Z</time>
      </trkpt>
      <trkpt lat="42.92362" lon="0.09274">
        <ele>2300</ele>
        <time>2015-01-10T11:49:39Z</time>
      </trkpt>
      <trkpt lat="42.92354" lon="0.09282">
        <ele>2300</ele>
        <time>2015-01-10T11:49:41Z</time>
      </trkpt>
      <trkpt lat="42.92342" lon="0.09284">
        <ele>2292</ele>
        <time>2015-01-10T11:49:44Z</time>
      </trkpt>
      <trkpt lat="42.9233" lon="0.0929">
        <ele>2291</ele>
        <time>2015-01-10T11:49:47Z</time>
      </trkpt>
      <trkpt lat="42.9232" lon="0.09294">
        <ele>2289</ele>
        <time>2015-01-10T11:49:49Z</time>
      </trkpt>
      <trkpt lat="42.92304" lon="0.09302">
        <ele>2285</ele>
        <time>2015-01-10T11:49:53Z</time>
      </trkpt>
      <trkpt lat="42.923" lon="0.09302">
        <ele>2287</ele>
        <time>2015-01-10T11:49:54Z</time>
      </trkpt>
      <trkpt lat="42.92293" lon="0.09301">
        <ele>2278</ele>
        <time>2015-01-10T11:49:56Z</time>
      </trkpt>
      <trkpt lat="42.92287" lon="0.09295">
        <ele>2278</ele>
        <time>2015-01-10T11:49:58Z</time>
      </trkpt>
      <trkpt lat="42.9228" lon="0.09293">
        <ele>2273</ele>
        <time>2015-01-10T11:50:00Z</time>
      </trkpt>
      <trkpt lat="42.92269" lon="0.09303">
        <ele>2272</ele>
        <time>2015-01-10T11:50:03Z</time>
      </trkpt>
      <trkpt lat="42.92267" lon="0.09311">
        <ele>2275</ele>
        <time>2015-01-10T11:50:14Z</time>
      </trkpt>
      <trkpt lat="42.92262" lon="0.09322">
        <ele>2274</ele>
        <time>2015-01-10T11:50:31Z</time>
      </trkpt>
      <trkpt lat="42.92255" lon="0.09327">
        <ele>2276</ele>
        <time>2015-01-10T11:50:50Z</time>
      </trkpt>
      <trkpt lat="42.92252" lon="0.09341">
        <ele>2277</ele>
        <time>2015-01-10T11:51:05Z</time>
      </trkpt>
      <trkpt lat="42.92248" lon="0.09351">
        <ele>2277</ele>
        <time>2015-01-10T11:51:20Z</time>
      </trkpt>
      <trkpt lat="42.92242" lon="0.09361">
        <ele>2276</ele>
        <time>2015-01-10T11:51:30Z</time>
      </trkpt>
      <trkpt lat="42.92241" lon="0.09347">
        <ele>2277</ele>
        <time>2015-01-10T11:51:45Z</time>
      </trkpt>
      <trkpt lat="42.92245" lon="0.09351">
        <ele>2277</ele>
        <time>2015-01-10T11:51:59Z</time>
      </trkpt>
      <trkpt lat="42.92248" lon="0.09364">
        <ele>2277</ele>
        <time>2015-01-10T11:52:29Z</time>
      </trkpt>
      <trkpt lat="42.92247" lon="0.09358">
        <ele>2277</ele>
        <time>2015-01-10T11:52:57Z</time>
      </trkpt>
      <trkpt lat="42.92251" lon="0.09357">
        <ele>2277</ele>
        <time>2015-01-10T11:53:25Z</time>
      </trkpt>
      <trkpt lat="42.92248" lon="0.09351">
        <ele>2277</ele>
        <time>2015-01-10T11:53:49Z</time>
      </trkpt>
      <trkpt lat="42.92252" lon="0.09355">
        <ele>2277</ele>
        <time>2015-01-10T11:54:14Z</time>
      </trkpt>
      <trkpt lat="42.92252" lon="0.09355">
        <ele>2277</ele>
        <time>2015-01-10T11:54:40Z</time>
      </trkpt>
      <trkpt lat="42.92255" lon="0.09351">
        <ele>2277</ele>
        <time>2015-01-10T11:55:08Z</time>
      </trkpt>
      <trkpt lat="42.92254" lon="0.09352">
        <ele>2276</ele>
        <time>2015-01-10T11:55:17Z</time>
      </trkpt>
      <trkpt lat="42.92254" lon="0.09363">
        <ele>2276</ele>
        <time>2015-01-10T11:55:22Z</time>
      </trkpt>
      <trkpt lat="42.92258" lon="0.09365">
        <ele>2275</ele>
        <time>2015-01-10T11:55:40Z</time>
      </trkpt>
      <trkpt lat="42.92259" lon="0.0936">
        <ele>2275</ele>
        <time>2015-01-10T11:56:07Z</time>
      </trkpt>
      <trkpt lat="42.92254" lon="0.09368">
        <ele>2274</ele>
        <time>2015-01-10T11:56:24Z</time>
      </trkpt>
      <trkpt lat="42.92254" lon="0.09374">
        <ele>2273</ele>
        <time>2015-01-10T11:56:36Z</time>
      </trkpt>
      <trkpt lat="42.92254" lon="0.09376">
        <ele>2272</ele>
        <time>2015-01-10T11:56:54Z</time>
      </trkpt>
      <trkpt lat="42.92254" lon="0.09377">
        <ele>2271</ele>
        <time>2015-01-10T11:57:09Z</time>
      </trkpt>
      <trkpt lat="42.92262" lon="0.09398">
        <ele>2270</ele>
        <time>2015-01-10T11:57:22Z</time>
      </trkpt>
      <trkpt lat="42.92261" lon="0.09399">
        <ele>2270</ele>
        <time>2015-01-10T11:57:26Z</time>
      </trkpt>
      <trkpt lat="42.92267" lon="0.09418">
        <ele>2266</ele>
        <time>2015-01-10T11:57:39Z</time>
      </trkpt>
      <trkpt lat="42.92271" lon="0.09433">
        <ele>2265</ele>
        <time>2015-01-10T11:57:42Z</time>
      </trkpt>
      <trkpt lat="42.92272" lon="0.09437">
        <ele>2264</ele>
        <time>2015-01-10T11:57:43Z</time>
      </trkpt>
      <trkpt lat="42.92266" lon="0.0944">
        <ele>2260</ele>
        <time>2015-01-10T11:57:45Z</time>
      </trkpt>
      <trkpt lat="42.92256" lon="0.09447">
        <ele>2256</ele>
        <time>2015-01-10T11:57:47Z</time>
      </trkpt>
      <trkpt lat="42.92251" lon="0.09471">
        <ele>2252</ele>
        <time>2015-01-10T11:57:51Z</time>
      </trkpt>
      <trkpt lat="42.92251" lon="0.09496">
        <ele>2251</ele>
        <time>2015-01-10T11:57:56Z</time>
      </trkpt>
      <trkpt lat="42.92244" lon="0.09505">
        <ele>2247</ele>
        <time>2015-01-10T11:57:59Z</time>
      </trkpt>
      <trkpt lat="42.92236" lon="0.09508">
        <ele>2243</ele>
        <time>2015-01-10T11:58:01Z</time>
      </trkpt>
      <trkpt lat="42.92229" lon="0.0952">
        <ele>2239</ele>
        <time>2015-01-10T11:58:03Z</time>
      </trkpt>
      <trkpt lat="42.92226" lon="0.09531">
        <ele>2238</ele>
        <time>2015-01-10T11:58:05Z</time>
      </trkpt>
      <trkpt lat="42.9221" lon="0.09534">
        <ele>2233</ele>
        <time>2015-01-10T11:58:09Z</time>
      </trkpt>
      <trkpt lat="42.92201" lon="0.09537">
        <ele>2230</ele>
        <time>2015-01-10T11:58:11Z</time>
      </trkpt>
      <trkpt lat="42.92187" lon="0.09556">
        <ele>2229</ele>
        <time>2015-01-10T11:58:16Z</time>
      </trkpt>
      <trkpt lat="42.92186" lon="0.09555">
        <ele>2229</ele>
        <time>2015-01-10T11:58:27Z</time>
      </trkpt>
      <trkpt lat="42.92185" lon="0.09552">
        <ele>2229</ele>
        <time>2015-01-10T11:58:46Z</time>
      </trkpt>
      <trkpt lat="42.92183" lon="0.09552">
        <ele>2229</ele>
        <time>2015-01-10T11:59:07Z</time>
      </trkpt>
      <trkpt lat="42.92182" lon="0.09552">
        <ele>2229</ele>
        <time>2015-01-10T11:59:25Z</time>
      </trkpt>
      <trkpt lat="42.92181" lon="0.09552">
        <ele>2228</ele>
        <time>2015-01-10T11:59:34Z</time>
      </trkpt>
      <trkpt lat="42.92175" lon="0.09545">
        <ele>2227</ele>
        <time>2015-01-10T11:59:38Z</time>
      </trkpt>
      <trkpt lat="42.9217" lon="0.09544">
        <ele>2226</ele>
        <time>2015-01-10T11:59:40Z</time>
      </trkpt>
      <trkpt lat="42.92165" lon="0.09548">
        <ele>2221</ele>
        <time>2015-01-10T11:59:42Z</time>
      </trkpt>
      <trkpt lat="42.92158" lon="0.09546">
        <ele>2216</ele>
        <time>2015-01-10T11:59:44Z</time>
      </trkpt>
      <trkpt lat="42.92156" lon="0.09547">
        <ele>2214</ele>
        <time>2015-01-10T11:59:45Z</time>
      </trkpt>
      <trkpt lat="42.92155" lon="0.09558">
        <ele>2210</ele>
        <time>2015-01-10T11:59:47Z</time>
      </trkpt>
      <trkpt lat="42.92153" lon="0.09565">
        <ele>2210</ele>
        <time>2015-01-10T11:59:48Z</time>
      </trkpt>
      <trkpt lat="42.92139" lon="0.09581">
        <ele>2208</ele>
        <time>2015-01-10T11:59:52Z</time>
      </trkpt>
      <trkpt lat="42.92116" lon="0.09589">
        <ele>2207</ele>
        <time>2015-01-10T11:59:57Z</time>
      </trkpt>
      <trkpt lat="42.92111" lon="0.09589">
        <ele>2208</ele>
        <time>2015-01-10T12:00:07Z</time>
      </trkpt>
      <trkpt lat="42.92111" lon="0.09588">
        <ele>2208</ele>
        <time>2015-01-10T12:00:31Z</time>
      </trkpt>
      <trkpt lat="42.92112" lon="0.09591">
        <ele>2208</ele>
        <time>2015-01-10T12:00:54Z</time>
      </trkpt>
      <trkpt lat="42.92112" lon="0.09588">
        <ele>2205</ele>
        <time>2015-01-10T12:01:06Z</time>
      </trkpt>
      <trkpt lat="42.92111" lon="0.09588">
        <ele>2212</ele>
        <time>2015-01-10T12:01:08Z</time>
      </trkpt>
      <trkpt lat="42.92111" lon="0.09588">
        <ele>2208</ele>
        <time>2015-01-10T12:01:09Z</time>
      </trkpt>
      <trkpt lat="42.9211" lon="0.09588">
        <ele>2204</ele>
        <time>2015-01-10T12:01:17Z</time>
      </trkpt>
      <trkpt lat="42.9211" lon="0.09589">
        <ele>2210</ele>
        <time>2015-01-10T12:01:18Z</time>
      </trkpt>
      <trkpt lat="42.9211" lon="0.09589">
        <ele>2209</ele>
        <time>2015-01-10T12:01:19Z</time>
      </trkpt>
      <trkpt lat="42.9211" lon="0.09589">
        <ele>2199</ele>
        <time>2015-01-10T12:01:21Z</time>
      </trkpt>
      <trkpt lat="42.9211" lon="0.0959">
        <ele>2200</ele>
        <time>2015-01-10T12:01:22Z</time>
      </trkpt>
      <trkpt lat="42.9211" lon="0.0959">
        <ele>2215</ele>
        <time>2015-01-10T12:01:23Z</time>
      </trkpt>
      <trkpt lat="42.92111" lon="0.09592">
        <ele>2216</ele>
        <time>2015-01-10T12:01:24Z</time>
      </trkpt>
      <trkpt lat="42.9211" lon="0.09592">
        <ele>2208</ele>
        <time>2015-01-10T12:01:25Z</time>
      </trkpt>
      <trkpt lat="42.92111" lon="0.09592">
        <ele>2208</ele>
        <time>2015-01-10T12:01:48Z</time>
      </trkpt>
      <trkpt lat="42.92112" lon="0.09595">
        <ele>2207</ele>
        <time>2015-01-10T12:02:04Z</time>
      </trkpt>
      <trkpt lat="42.9211" lon="0.09594">
        <ele>2207</ele>
        <time>2015-01-10T12:02:33Z</time>
      </trkpt>
      <trkpt lat="42.9211" lon="0.09591">
        <ele>2207</ele>
        <time>2015-01-10T12:02:55Z</time>
      </trkpt>
      <trkpt lat="42.9211" lon="0.09591">
        <ele>2207</ele>
        <time>2015-01-10T12:03:16Z</time>
      </trkpt>
      <trkpt lat="42.92113" lon="0.09592">
        <ele>2207</ele>
        <time>2015-01-10T12:03:40Z</time>
      </trkpt>
      <trkpt lat="42.92112" lon="0.09591">
        <ele>2207</ele>
        <time>2015-01-10T12:04:01Z</time>
      </trkpt>
      <trkpt lat="42.92112" lon="0.09592">
        <ele>2207</ele>
        <time>2015-01-10T12:04:20Z</time>
      </trkpt>
      <trkpt lat="42.92112" lon="0.0959">
        <ele>2207</ele>
        <time>2015-01-10T12:04:44Z</time>
      </trkpt>
      <trkpt lat="42.92113" lon="0.09591">
        <ele>2207</ele>
        <time>2015-01-10T12:05:02Z</time>
      </trkpt>
      <trkpt lat="42.92111" lon="0.09591">
        <ele>2206</ele>
        <time>2015-01-10T12:05:23Z</time>
      </trkpt>
      <trkpt lat="42.92112" lon="0.09591">
        <ele>2206</ele>
        <time>2015-01-10T12:05:53Z</time>
      </trkpt>
      <trkpt lat="42.92113" lon="0.09586">
        <ele>2206</ele>
        <time>2015-01-10T12:06:16Z</time>
      </trkpt>
      <trkpt lat="42.92108" lon="0.09583">
        <ele>2205</ele>
        <time>2015-01-10T12:06:42Z</time>
      </trkpt>
      <trkpt lat="42.92113" lon="0.09592">
        <ele>2206</ele>
        <time>2015-01-10T12:07:01Z</time>
      </trkpt>
      <trkpt lat="42.92111" lon="0.09589">
        <ele>2205</ele>
        <time>2015-01-10T12:07:22Z</time>
      </trkpt>
      <trkpt lat="42.92111" lon="0.09589">
        <ele>2205</ele>
        <time>2015-01-10T12:07:45Z</time>
      </trkpt>
      <trkpt lat="42.92109" lon="0.09587">
        <ele>2204</ele>
        <time>2015-01-10T12:08:01Z</time>
      </trkpt>
      <trkpt lat="42.9211" lon="0.09588">
        <ele>2206</ele>
        <time>2015-01-10T12:08:03Z</time>
      </trkpt>
      <trkpt lat="42.92113" lon="0.09588">
        <ele>2202</ele>
        <time>2015-01-10T12:08:24Z</time>
      </trkpt>
      <trkpt lat="42.92113" lon="0.09588">
        <ele>2211</ele>
        <time>2015-01-10T12:08:25Z</time>
      </trkpt>
      <trkpt lat="42.92114" lon="0.09588">
        <ele>2205</ele>
        <time>2015-01-10T12:08:26Z</time>
      </trkpt>
      <trkpt lat="42.92115" lon="0.0959">
        <ele>2206</ele>
        <time>2015-01-10T12:08:30Z</time>
      </trkpt>
      <trkpt lat="42.92114" lon="0.09592">
        <ele>2205</ele>
        <time>2015-01-10T12:08:52Z</time>
      </trkpt>
      <trkpt lat="42.92118" lon="0.09593">
        <ele>2206</ele>
        <time>2015-01-10T12:09:09Z</time>
      </trkpt>
      <trkpt lat="42.92113" lon="0.09592">
        <ele>2205</ele>
        <time>2015-01-10T12:09:30Z</time>
      </trkpt>
      <trkpt lat="42.92118" lon="0.09608">
        <ele>2207</ele>
        <time>2015-01-10T12:09:45Z</time>
      </trkpt>
      <trkpt lat="42.92116" lon="0.09624">
        <ele>2210</ele>
        <time>2015-01-10T12:10:01Z</time>
      </trkpt>
      <trkpt lat="42.92118" lon="0.09632">
        <ele>2211</ele>
        <time>2015-01-10T12:10:16Z</time>
      </trkpt>
      <trkpt lat="42.9212" lon="0.09643">
        <ele>2213</ele>
        <time>2015-01-10T12:10:30Z</time>
      </trkpt>
      <trkpt lat="42.92121" lon="0.09646">
        <ele>2214</ele>
        <time>2015-01-10T12:10:33Z</time>
      </trkpt>
      <trkpt lat="42.92126" lon="0.09653">
        <ele>2214</ele>
        <time>2015-01-10T12:10:46Z</time>
      </trkpt>
      <trkpt lat="42.92129" lon="0.0966">
        <ele>2216</ele>
        <time>2015-01-10T12:11:02Z</time>
      </trkpt>
      <trkpt lat="42.92137" lon="0.09666">
        <ele>2218</ele>
        <time>2015-01-10T12:11:16Z</time>
      </trkpt>
      <trkpt lat="42.92145" lon="0.09667">
        <ele>2220</ele>
        <time>2015-01-10T12:11:27Z</time>
      </trkpt>
      <trkpt lat="42.92151" lon="0.09673">
        <ele>2221</ele>
        <time>2015-01-10T12:11:39Z</time>
      </trkpt>
      <trkpt lat="42.92156" lon="0.09679">
        <ele>2224</ele>
        <time>2015-01-10T12:11:52Z</time>
      </trkpt>
      <trkpt lat="42.92163" lon="0.09684">
        <ele>2225</ele>
        <time>2015-01-10T12:12:05Z</time>
      </trkpt>
      <trkpt lat="42.92165" lon="0.09698">
        <ele>2227</ele>
        <time>2015-01-10T12:12:23Z</time>
      </trkpt>
      <trkpt lat="42.92166" lon="0.09712">
        <ele>2230</ele>
        <time>2015-01-10T12:12:40Z</time>
      </trkpt>
      <trkpt lat="42.92167" lon="0.09726">
        <ele>2232</ele>
        <time>2015-01-10T12:12:57Z</time>
      </trkpt>
      <trkpt lat="42.92167" lon="0.09738">
        <ele>2234</ele>
        <time>2015-01-10T12:13:13Z</time>
      </trkpt>
      <trkpt lat="42.92167" lon="0.09744">
        <ele>2237</ele>
        <time>2015-01-10T12:13:28Z</time>
      </trkpt>
      <trkpt lat="42.92168" lon="0.09747">
        <ele>2236</ele>
        <time>2015-01-10T12:13:56Z</time>
      </trkpt>
      <trkpt lat="42.92168" lon="0.09757">
        <ele>2238</ele>
        <time>2015-01-10T12:14:11Z</time>
      </trkpt>
      <trkpt lat="42.92163" lon="0.09766">
        <ele>2240</ele>
        <time>2015-01-10T12:14:27Z</time>
      </trkpt>
      <trkpt lat="42.92157" lon="0.09773">
        <ele>2243</ele>
        <time>2015-01-10T12:14:41Z</time>
      </trkpt>
      <trkpt lat="42.92162" lon="0.09776">
        <ele>2244</ele>
        <time>2015-01-10T12:14:56Z</time>
      </trkpt>
      <trkpt lat="42.92171" lon="0.09776">
        <ele>2247</ele>
        <time>2015-01-10T12:15:12Z</time>
      </trkpt>
      <trkpt lat="42.92179" lon="0.09777">
        <ele>2250</ele>
        <time>2015-01-10T12:15:27Z</time>
      </trkpt>
      <trkpt lat="42.92182" lon="0.09776">
        <ele>2252</ele>
        <time>2015-01-10T12:15:43Z</time>
      </trkpt>
      <trkpt lat="42.92184" lon="0.09778">
        <ele>2253</ele>
        <time>2015-01-10T12:15:56Z</time>
      </trkpt>
      <trkpt lat="42.92182" lon="0.09784">
        <ele>2255</ele>
        <time>2015-01-10T12:16:10Z</time>
      </trkpt>
      <trkpt lat="42.92179" lon="0.09791">
        <ele>2257</ele>
        <time>2015-01-10T12:16:25Z</time>
      </trkpt>
      <trkpt lat="42.92176" lon="0.09797">
        <ele>2259</ele>
        <time>2015-01-10T12:16:38Z</time>
      </trkpt>
      <trkpt lat="42.9217" lon="0.09804">
        <ele>2261</ele>
        <time>2015-01-10T12:16:54Z</time>
      </trkpt>
      <trkpt lat="42.92164" lon="0.09813">
        <ele>2264</ele>
        <time>2015-01-10T12:17:11Z</time>
      </trkpt>
      <trkpt lat="42.92162" lon="0.09821">
        <ele>2265</ele>
        <time>2015-01-10T12:17:24Z</time>
      </trkpt>
      <trkpt lat="42.92162" lon="0.09822">
        <ele>2265</ele>
        <time>2015-01-10T12:17:38Z</time>
      </trkpt>
      <trkpt lat="42.92164" lon="0.09822">
        <ele>2267</ele>
        <time>2015-01-10T12:18:02Z</time>
      </trkpt>
      <trkpt lat="42.92172" lon="0.09822">
        <ele>2269</ele>
        <time>2015-01-10T12:18:19Z</time>
      </trkpt>
      <trkpt lat="42.92172" lon="0.09824">
        <ele>2270</ele>
        <time>2015-01-10T12:18:32Z</time>
      </trkpt>
      <trkpt lat="42.92169" lon="0.09832">
        <ele>2273</ele>
        <time>2015-01-10T12:18:49Z</time>
      </trkpt>
      <trkpt lat="42.92166" lon="0.0984">
        <ele>2276</ele>
        <time>2015-01-10T12:19:05Z</time>
      </trkpt>
      <trkpt lat="42.9217" lon="0.09836">
        <ele>2276</ele>
        <time>2015-01-10T12:19:23Z</time>
      </trkpt>
      <trkpt lat="42.92178" lon="0.09839">
        <ele>2278</ele>
        <time>2015-01-10T12:19:38Z</time>
      </trkpt>
      <trkpt lat="42.92188" lon="0.09836">
        <ele>2281</ele>
        <time>2015-01-10T12:19:56Z</time>
      </trkpt>
      <trkpt lat="42.92188" lon="0.09837">
        <ele>2282</ele>
        <time>2015-01-10T12:20:11Z</time>
      </trkpt>
      <trkpt lat="42.92184" lon="0.09843">
        <ele>2283</ele>
        <time>2015-01-10T12:20:24Z</time>
      </trkpt>
      <trkpt lat="42.9218" lon="0.0985">
        <ele>2285</ele>
        <time>2015-01-10T12:20:38Z</time>
      </trkpt>
      <trkpt lat="42.92177" lon="0.09858">
        <ele>2287</ele>
        <time>2015-01-10T12:20:51Z</time>
      </trkpt>
      <trkpt lat="42.92175" lon="0.09868">
        <ele>2289</ele>
        <time>2015-01-10T12:21:07Z</time>
      </trkpt>
      <trkpt lat="42.92174" lon="0.09882">
        <ele>2292</ele>
        <time>2015-01-10T12:21:25Z</time>
      </trkpt>
      <trkpt lat="42.92182" lon="0.09878">
        <ele>2294</ele>
        <time>2015-01-10T12:21:40Z</time>
      </trkpt>
      <trkpt lat="42.92183" lon="0.09876">
        <ele>2295</ele>
        <time>2015-01-10T12:21:44Z</time>
      </trkpt>
      <trkpt lat="42.92192" lon="0.09872">
        <ele>2297</ele>
        <time>2015-01-10T12:21:59Z</time>
      </trkpt>
      <trkpt lat="42.922" lon="0.09869">
        <ele>2300</ele>
        <time>2015-01-10T12:22:17Z</time>
      </trkpt>
      <trkpt lat="42.92209" lon="0.09864">
        <ele>2302</ele>
        <time>2015-01-10T12:22:35Z</time>
      </trkpt>
      <trkpt lat="42.9221" lon="0.09869">
        <ele>2304</ele>
        <time>2015-01-10T12:22:52Z</time>
      </trkpt>
      <trkpt lat="42.9221" lon="0.0988">
        <ele>2306</ele>
        <time>2015-01-10T12:23:08Z</time>
      </trkpt>
      <trkpt lat="42.92211" lon="0.09889">
        <ele>2308</ele>
        <time>2015-01-10T12:23:23Z</time>
      </trkpt>
      <trkpt lat="42.92212" lon="0.09897">
        <ele>2310</ele>
        <time>2015-01-10T12:23:38Z</time>
      </trkpt>
      <trkpt lat="42.92216" lon="0.09889">
        <ele>2312</ele>
        <time>2015-01-10T12:23:52Z</time>
      </trkpt>
      <trkpt lat="42.92219" lon="0.09885">
        <ele>2314</ele>
        <time>2015-01-10T12:24:05Z</time>
      </trkpt>
      <trkpt lat="42.92228" lon="0.09877">
        <ele>2316</ele>
        <time>2015-01-10T12:24:23Z</time>
      </trkpt>
      <trkpt lat="42.92235" lon="0.09869">
        <ele>2319</ele>
        <time>2015-01-10T12:24:40Z</time>
      </trkpt>
      <trkpt lat="42.92237" lon="0.09874">
        <ele>2320</ele>
        <time>2015-01-10T12:24:56Z</time>
      </trkpt>
      <trkpt lat="42.92236" lon="0.09886">
        <ele>2322</ele>
        <time>2015-01-10T12:25:10Z</time>
      </trkpt>
      <trkpt lat="42.92235" lon="0.09899">
        <ele>2325</ele>
        <time>2015-01-10T12:25:29Z</time>
      </trkpt>
      <trkpt lat="42.92235" lon="0.09911">
        <ele>2328</ele>
        <time>2015-01-10T12:25:46Z</time>
      </trkpt>
      <trkpt lat="42.92235" lon="0.0992">
        <ele>2330</ele>
        <time>2015-01-10T12:26:01Z</time>
      </trkpt>
      <trkpt lat="42.92233" lon="0.09929">
        <ele>2331</ele>
        <time>2015-01-10T12:26:16Z</time>
      </trkpt>
      <trkpt lat="42.9223" lon="0.09936">
        <ele>2334</ele>
        <time>2015-01-10T12:26:30Z</time>
      </trkpt>
      <trkpt lat="42.9223" lon="0.09934">
        <ele>2334</ele>
        <time>2015-01-10T12:26:51Z</time>
      </trkpt>
      <trkpt lat="42.92238" lon="0.09931">
        <ele>2335</ele>
        <time>2015-01-10T12:27:13Z</time>
      </trkpt>
      <trkpt lat="42.92246" lon="0.09927">
        <ele>2338</ele>
        <time>2015-01-10T12:27:28Z</time>
      </trkpt>
      <trkpt lat="42.92248" lon="0.09921">
        <ele>2340</ele>
        <time>2015-01-10T12:27:43Z</time>
      </trkpt>
      <trkpt lat="42.92246" lon="0.09927">
        <ele>2341</ele>
        <time>2015-01-10T12:27:59Z</time>
      </trkpt>
      <trkpt lat="42.92246" lon="0.09937">
        <ele>2343</ele>
        <time>2015-01-10T12:28:12Z</time>
      </trkpt>
      <trkpt lat="42.92245" lon="0.09944">
        <ele>2345</ele>
        <time>2015-01-10T12:28:26Z</time>
      </trkpt>
      <trkpt lat="42.92242" lon="0.09954">
        <ele>2348</ele>
        <time>2015-01-10T12:28:42Z</time>
      </trkpt>
      <trkpt lat="42.9224" lon="0.09963">
        <ele>2350</ele>
        <time>2015-01-10T12:28:55Z</time>
      </trkpt>
      <trkpt lat="42.92242" lon="0.09966">
        <ele>2352</ele>
        <time>2015-01-10T12:29:09Z</time>
      </trkpt>
      <trkpt lat="42.92248" lon="0.09963">
        <ele>2353</ele>
        <time>2015-01-10T12:29:27Z</time>
      </trkpt>
      <trkpt lat="42.92255" lon="0.09956">
        <ele>2355</ele>
        <time>2015-01-10T12:29:44Z</time>
      </trkpt>
      <trkpt lat="42.92261" lon="0.0995">
        <ele>2358</ele>
        <time>2015-01-10T12:29:59Z</time>
      </trkpt>
      <trkpt lat="42.92265" lon="0.09955">
        <ele>2359</ele>
        <time>2015-01-10T12:30:16Z</time>
      </trkpt>
      <trkpt lat="42.92263" lon="0.09964">
        <ele>2361</ele>
        <time>2015-01-10T12:30:33Z</time>
      </trkpt>
      <trkpt lat="42.92264" lon="0.09974">
        <ele>2363</ele>
        <time>2015-01-10T12:30:49Z</time>
      </trkpt>
      <trkpt lat="42.92261" lon="0.09981">
        <ele>2364</ele>
        <time>2015-01-10T12:31:05Z</time>
      </trkpt>
      <trkpt lat="42.92256" lon="0.09988">
        <ele>2366</ele>
        <time>2015-01-10T12:31:19Z</time>
      </trkpt>
      <trkpt lat="42.92264" lon="0.09989">
        <ele>2367</ele>
        <time>2015-01-10T12:31:40Z</time>
      </trkpt>
      <trkpt lat="42.92269" lon="0.09987">
        <ele>2369</ele>
        <time>2015-01-10T12:31:53Z</time>
      </trkpt>
      <trkpt lat="42.92274" lon="0.09982">
        <ele>2371</ele>
        <time>2015-01-10T12:32:09Z</time>
      </trkpt>
      <trkpt lat="42.92279" lon="0.09978">
        <ele>2374</ele>
        <time>2015-01-10T12:32:25Z</time>
      </trkpt>
      <trkpt lat="42.9228" lon="0.09985">
        <ele>2375</ele>
        <time>2015-01-10T12:32:40Z</time>
      </trkpt>
      <trkpt lat="42.92279" lon="0.09994">
        <ele>2377</ele>
        <time>2015-01-10T12:32:54Z</time>
      </trkpt>
      <trkpt lat="42.92277" lon="0.10004">
        <ele>2379</ele>
        <time>2015-01-10T12:33:10Z</time>
      </trkpt>
      <trkpt lat="42.92275" lon="0.10006">
        <ele>2380</ele>
        <time>2015-01-10T12:33:26Z</time>
      </trkpt>
      <trkpt lat="42.92281" lon="0.1">
        <ele>2382</ele>
        <time>2015-01-10T12:33:43Z</time>
      </trkpt>
      <trkpt lat="42.92281" lon="0.10006">
        <ele>2382</ele>
        <time>2015-01-10T12:34:00Z</time>
      </trkpt>
      <trkpt lat="42.92282" lon="0.10014">
        <ele>2385</ele>
        <time>2015-01-10T12:34:15Z</time>
      </trkpt>
      <trkpt lat="42.92284" lon="0.10013">
        <ele>2385</ele>
        <time>2015-01-10T12:34:36Z</time>
      </trkpt>
      <trkpt lat="42.92287" lon="0.1001">
        <ele>2386</ele>
        <time>2015-01-10T12:34:56Z</time>
      </trkpt>
      <trkpt lat="42.92285" lon="0.10009">
        <ele>2386</ele>
        <time>2015-01-10T12:35:17Z</time>
      </trkpt>
      <trkpt lat="42.92286" lon="0.10009">
        <ele>2388</ele>
        <time>2015-01-10T12:35:37Z</time>
      </trkpt>
      <trkpt lat="42.92289" lon="0.10005">
        <ele>2389</ele>
        <time>2015-01-10T12:35:50Z</time>
      </trkpt>
      <trkpt lat="42.92291" lon="0.10006">
        <ele>2389</ele>
        <time>2015-01-10T12:36:07Z</time>
      </trkpt>
      <trkpt lat="42.92289" lon="0.10016">
        <ele>2390</ele>
        <time>2015-01-10T12:36:20Z</time>
      </trkpt>
      <trkpt lat="42.92289" lon="0.10027">
        <ele>2391</ele>
        <time>2015-01-10T12:36:34Z</time>
      </trkpt>
      <trkpt lat="42.9229" lon="0.10036">
        <ele>2393</ele>
        <time>2015-01-10T12:36:51Z</time>
      </trkpt>
      <trkpt lat="42.92291" lon="0.10036">
        <ele>2393</ele>
        <time>2015-01-10T12:37:08Z</time>
      </trkpt>
      <trkpt lat="42.9229" lon="0.10035">
        <ele>2393</ele>
        <time>2015-01-10T12:37:44Z</time>
      </trkpt>
      <trkpt lat="42.92291" lon="0.10033">
        <ele>2394</ele>
        <time>2015-01-10T12:38:07Z</time>
      </trkpt>
      <trkpt lat="42.92292" lon="0.10033">
        <ele>2394</ele>
        <time>2015-01-10T12:38:38Z</time>
      </trkpt>
      <trkpt lat="42.92292" lon="0.10035">
        <ele>2393</ele>
        <time>2015-01-10T12:39:07Z</time>
      </trkpt>
      <trkpt lat="42.92291" lon="0.10033">
        <ele>2393</ele>
        <time>2015-01-10T12:39:38Z</time>
      </trkpt>
      <trkpt lat="42.92294" lon="0.10034">
        <ele>2394</ele>
        <time>2015-01-10T12:40:16Z</time>
      </trkpt>
      <trkpt lat="42.92297" lon="0.10033">
        <ele>2396</ele>
        <time>2015-01-10T12:40:35Z</time>
      </trkpt>
      <trkpt lat="42.923" lon="0.10035">
        <ele>2397</ele>
        <time>2015-01-10T12:41:06Z</time>
      </trkpt>
      <trkpt lat="42.92301" lon="0.10037">
        <ele>2398</ele>
        <time>2015-01-10T12:41:08Z</time>
      </trkpt>
      <trkpt lat="42.92309" lon="0.10046">
        <ele>2401</ele>
        <time>2015-01-10T12:41:19Z</time>
      </trkpt>
      <trkpt lat="42.9231" lon="0.10048">
        <ele>2401</ele>
        <time>2015-01-10T12:41:21Z</time>
      </trkpt>
      <trkpt lat="42.92318" lon="0.10058">
        <ele>2404</ele>
        <time>2015-01-10T12:41:36Z</time>
      </trkpt>
      <trkpt lat="42.92319" lon="0.10048">
        <ele>2407</ele>
        <time>2015-01-10T12:41:48Z</time>
      </trkpt>
      <trkpt lat="42.92319" lon="0.1004">
        <ele>2409</ele>
        <time>2015-01-10T12:42:01Z</time>
      </trkpt>
      <trkpt lat="42.9232" lon="0.10046">
        <ele>2410</ele>
        <time>2015-01-10T12:42:16Z</time>
      </trkpt>
      <trkpt lat="42.92322" lon="0.10036">
        <ele>2411</ele>
        <time>2015-01-10T12:42:32Z</time>
      </trkpt>
      <trkpt lat="42.92323" lon="0.1003">
        <ele>2413</ele>
        <time>2015-01-10T12:42:41Z</time>
      </trkpt>
      <trkpt lat="42.92325" lon="0.10015">
        <ele>2415</ele>
        <time>2015-01-10T12:42:54Z</time>
      </trkpt>
      <trkpt lat="42.92331" lon="0.10003">
        <ele>2417</ele>
        <time>2015-01-10T12:43:09Z</time>
      </trkpt>
      <trkpt lat="42.92333" lon="0.0999">
        <ele>2420</ele>
        <time>2015-01-10T12:43:22Z</time>
      </trkpt>
      <trkpt lat="42.92335" lon="0.09983">
        <ele>2423</ele>
        <time>2015-01-10T12:43:34Z</time>
      </trkpt>
      <trkpt lat="42.9234" lon="0.0997">
        <ele>2426</ele>
        <time>2015-01-10T12:43:50Z</time>
      </trkpt>
      <trkpt lat="42.92344" lon="0.09963">
        <ele>2428</ele>
        <time>2015-01-10T12:44:06Z</time>
      </trkpt>
      <trkpt lat="42.92344" lon="0.0997">
        <ele>2429</ele>
        <time>2015-01-10T12:44:16Z</time>
      </trkpt>
      <trkpt lat="42.92348" lon="0.09981">
        <ele>2432</ele>
        <time>2015-01-10T12:44:30Z</time>
      </trkpt>
      <trkpt lat="42.92352" lon="0.09991">
        <ele>2435</ele>
        <time>2015-01-10T12:44:44Z</time>
      </trkpt>
      <trkpt lat="42.92356" lon="0.10001">
        <ele>2438</ele>
        <time>2015-01-10T12:45:00Z</time>
      </trkpt>
      <trkpt lat="42.9236" lon="0.10012">
        <ele>2441</ele>
        <time>2015-01-10T12:45:15Z</time>
      </trkpt>
      <trkpt lat="42.92364" lon="0.10022">
        <ele>2444</ele>
        <time>2015-01-10T12:45:28Z</time>
      </trkpt>
      <trkpt lat="42.9237" lon="0.10031">
        <ele>2446</ele>
        <time>2015-01-10T12:45:41Z</time>
      </trkpt>
      <trkpt lat="42.92371" lon="0.10033">
        <ele>2448</ele>
        <time>2015-01-10T12:45:45Z</time>
      </trkpt>
      <trkpt lat="42.92377" lon="0.10039">
        <ele>2451</ele>
        <time>2015-01-10T12:45:58Z</time>
      </trkpt>
      <trkpt lat="42.92378" lon="0.10039">
        <ele>2451</ele>
        <time>2015-01-10T12:45:59Z</time>
      </trkpt>
      <trkpt lat="42.92385" lon="0.10041">
        <ele>2453</ele>
        <time>2015-01-10T12:46:11Z</time>
      </trkpt>
      <trkpt lat="42.92386" lon="0.10039">
        <ele>2455</ele>
        <time>2015-01-10T12:46:26Z</time>
      </trkpt>
      <trkpt lat="42.92387" lon="0.10026">
        <ele>2458</ele>
        <time>2015-01-10T12:46:39Z</time>
      </trkpt>
      <trkpt lat="42.92391" lon="0.10016">
        <ele>2461</ele>
        <time>2015-01-10T12:46:52Z</time>
      </trkpt>
      <trkpt lat="42.92392" lon="0.10012">
        <ele>2462</ele>
        <time>2015-01-10T12:46:57Z</time>
      </trkpt>
      <trkpt lat="42.92395" lon="0.10001">
        <ele>2465</ele>
        <time>2015-01-10T12:47:10Z</time>
      </trkpt>
      <trkpt lat="42.92399" lon="0.10006">
        <ele>2466</ele>
        <time>2015-01-10T12:47:23Z</time>
      </trkpt>
      <trkpt lat="42.92404" lon="0.10022">
        <ele>2467</ele>
        <time>2015-01-10T12:47:37Z</time>
      </trkpt>
      <trkpt lat="42.92406" lon="0.10022">
        <ele>2467</ele>
        <time>2015-01-10T12:47:50Z</time>
      </trkpt>
      <trkpt lat="42.92405" lon="0.10022">
        <ele>2467</ele>
        <time>2015-01-10T12:48:03Z</time>
      </trkpt>
      <trkpt lat="42.92403" lon="0.10023">
        <ele>2467</ele>
        <time>2015-01-10T12:48:19Z</time>
      </trkpt>
      <trkpt lat="42.92404" lon="0.10021">
        <ele>2467</ele>
        <time>2015-01-10T12:48:27Z</time>
      </trkpt>
      <trkpt lat="42.92403" lon="0.10023">
        <ele>2467</ele>
        <time>2015-01-10T12:48:43Z</time>
      </trkpt>
      <trkpt lat="42.92404" lon="0.10023">
        <ele>2467</ele>
        <time>2015-01-10T12:49:04Z</time>
      </trkpt>
      <trkpt lat="42.92404" lon="0.10019">
        <ele>2466</ele>
        <time>2015-01-10T12:49:21Z</time>
      </trkpt>
      <trkpt lat="42.92406" lon="0.10021">
        <ele>2467</ele>
        <time>2015-01-10T12:49:44Z</time>
      </trkpt>
      <trkpt lat="42.92405" lon="0.10021">
        <ele>2467</ele>
        <time>2015-01-10T12:50:05Z</time>
      </trkpt>
      <trkpt lat="42.92405" lon="0.10018">
        <ele>2467</ele>
        <time>2015-01-10T12:50:23Z</time>
      </trkpt>
      <trkpt lat="42.92404" lon="0.10022">
        <ele>2466</ele>
        <time>2015-01-10T12:50:48Z</time>
      </trkpt>
      <trkpt lat="42.92405" lon="0.10019">
        <ele>2466</ele>
        <time>2015-01-10T12:51:05Z</time>
      </trkpt>
      <trkpt lat="42.92405" lon="0.10022">
        <ele>2467</ele>
        <time>2015-01-10T12:51:28Z</time>
      </trkpt>
      <trkpt lat="42.92405" lon="0.1002">
        <ele>2467</ele>
        <time>2015-01-10T12:51:53Z</time>
      </trkpt>
      <trkpt lat="42.92404" lon="0.1002">
        <ele>2467</ele>
        <time>2015-01-10T12:52:13Z</time>
      </trkpt>
      <trkpt lat="42.92404" lon="0.10019">
        <ele>2467</ele>
        <time>2015-01-10T12:52:35Z</time>
      </trkpt>
      <trkpt lat="42.92406" lon="0.10021">
        <ele>2467</ele>
        <time>2015-01-10T12:53:05Z</time>
      </trkpt>
      <trkpt lat="42.92404" lon="0.10021">
        <ele>2468</ele>
        <time>2015-01-10T12:53:25Z</time>
      </trkpt>
      <trkpt lat="42.92405" lon="0.10023">
        <ele>2468</ele>
        <time>2015-01-10T12:53:46Z</time>
      </trkpt>
      <trkpt lat="42.92406" lon="0.10021">
        <ele>2468</ele>
        <time>2015-01-10T12:54:07Z</time>
      </trkpt>
      <trkpt lat="42.92407" lon="0.1002">
        <ele>2463</ele>
        <time>2015-01-10T12:54:32Z</time>
      </trkpt>
      <trkpt lat="42.92407" lon="0.1002">
        <ele>2467</ele>
        <time>2015-01-10T12:54:33Z</time>
      </trkpt>
      <trkpt lat="42.92405" lon="0.10022">
        <ele>2467</ele>
        <time>2015-01-10T12:54:51Z</time>
      </trkpt>
      <trkpt lat="42.92404" lon="0.10021">
        <ele>2468</ele>
        <time>2015-01-10T12:55:27Z</time>
      </trkpt>
      <trkpt lat="42.92404" lon="0.1002">
        <ele>2464</ele>
        <time>2015-01-10T12:55:31Z</time>
      </trkpt>
      <trkpt lat="42.92404" lon="0.1002">
        <ele>2469</ele>
        <time>2015-01-10T12:55:34Z</time>
      </trkpt>
      <trkpt lat="42.92404" lon="0.1002">
        <ele>2464</ele>
        <time>2015-01-10T12:55:47Z</time>
      </trkpt>
      <trkpt lat="42.92404" lon="0.10021">
        <ele>2471</ele>
        <time>2015-01-10T12:55:48Z</time>
      </trkpt>
      <trkpt lat="42.92404" lon="0.10021">
        <ele>2468</ele>
        <time>2015-01-10T12:55:49Z</time>
      </trkpt>
      <trkpt lat="42.92404" lon="0.10022">
        <ele>2466</ele>
        <time>2015-01-10T12:56:21Z</time>
      </trkpt>
      <trkpt lat="42.92405" lon="0.10022">
        <ele>2472</ele>
        <time>2015-01-10T12:56:24Z</time>
      </trkpt>
      <trkpt lat="42.92405" lon="0.10022">
        <ele>2468</ele>
        <time>2015-01-10T12:56:25Z</time>
      </trkpt>
      <trkpt lat="42.92404" lon="0.10021">
        <ele>2468</ele>
        <time>2015-01-10T12:56:51Z</time>
      </trkpt>
      <trkpt lat="42.92406" lon="0.10028">
        <ele>2468</ele>
        <time>2015-01-10T12:57:11Z</time>
      </trkpt>
      <trkpt lat="42.92404" lon="0.10029">
        <ele>2468</ele>
        <time>2015-01-10T12:57:41Z</time>
      </trkpt>
      <trkpt lat="42.92403" lon="0.10028">
        <ele>2467</ele>
        <time>2015-01-10T12:57:54Z</time>
      </trkpt>
      <trkpt lat="42.92394" lon="0.10018">
        <ele>2464</ele>
        <time>2015-01-10T12:58:08Z</time>
      </trkpt>
      <trkpt lat="42.92394" lon="0.10017">
        <ele>2464</ele>
        <time>2015-01-10T12:58:22Z</time>
      </trkpt>
      <trkpt lat="42.9239" lon="0.10012">
        <ele>2463</ele>
        <time>2015-01-10T12:58:31Z</time>
      </trkpt>
      <trkpt lat="42.92386" lon="0.10025">
        <ele>2459</ele>
        <time>2015-01-10T12:58:37Z</time>
      </trkpt>
      <trkpt lat="42.92384" lon="0.10035">
        <ele>2457</ele>
        <time>2015-01-10T12:58:40Z</time>
      </trkpt>
      <trkpt lat="42.92379" lon="0.10032">
        <ele>2454</ele>
        <time>2015-01-10T12:58:42Z</time>
      </trkpt>
      <trkpt lat="42.92375" lon="0.10028">
        <ele>2453</ele>
        <time>2015-01-10T12:58:44Z</time>
      </trkpt>
      <trkpt lat="42.92369" lon="0.10033">
        <ele>2449</ele>
        <time>2015-01-10T12:58:48Z</time>
      </trkpt>
      <trkpt lat="42.92362" lon="0.10029">
        <ele>2445</ele>
        <time>2015-01-10T12:58:51Z</time>
      </trkpt>
      <trkpt lat="42.9236" lon="0.10029">
        <ele>2445</ele>
        <time>2015-01-10T12:58:52Z</time>
      </trkpt>
      <trkpt lat="42.92357" lon="0.10035">
        <ele>2442</ele>
        <time>2015-01-10T12:58:54Z</time>
      </trkpt>
      <trkpt lat="42.92352" lon="0.10041">
        <ele>2439</ele>
        <time>2015-01-10T12:58:58Z</time>
      </trkpt>
      <trkpt lat="42.9235" lon="0.10044">
        <ele>2435</ele>
        <time>2015-01-10T12:59:00Z</time>
      </trkpt>
      <trkpt lat="42.92346" lon="0.10052">
        <ele>2431</ele>
        <time>2015-01-10T12:59:03Z</time>
      </trkpt>
      <trkpt lat="42.92342" lon="0.10052">
        <ele>2429</ele>
        <time>2015-01-10T12:59:05Z</time>
      </trkpt>
      <trkpt lat="42.92341" lon="0.10057">
        <ele>2426</ele>
        <time>2015-01-10T12:59:07Z</time>
      </trkpt>
      <trkpt lat="42.92338" lon="0.10069">
        <ele>2422</ele>
        <time>2015-01-10T12:59:11Z</time>
      </trkpt>
      <trkpt lat="42.92335" lon="0.1007">
        <ele>2418</ele>
        <time>2015-01-10T12:59:12Z</time>
      </trkpt>
      <trkpt lat="42.92333" lon="0.10071">
        <ele>2418</ele>
        <time>2015-01-10T12:59:13Z</time>
      </trkpt>
      <trkpt lat="42.92332" lon="0.10074">
        <ele>2415</ele>
        <time>2015-01-10T12:59:14Z</time>
      </trkpt>
      <trkpt lat="42.92331" lon="0.10076">
        <ele>2415</ele>
        <time>2015-01-10T12:59:15Z</time>
      </trkpt>
      <trkpt lat="42.92327" lon="0.10077">
        <ele>2412</ele>
        <time>2015-01-10T12:59:18Z</time>
      </trkpt>
      <trkpt lat="42.92326" lon="0.10083">
        <ele>2409</ele>
        <time>2015-01-10T12:59:20Z</time>
      </trkpt>
      <trkpt lat="42.92324" lon="0.10083">
        <ele>2405</ele>
        <time>2015-01-10T12:59:22Z</time>
      </trkpt>
      <trkpt lat="42.92324" lon="0.10077">
        <ele>2404</ele>
        <time>2015-01-10T12:59:34Z</time>
      </trkpt>
      <trkpt lat="42.92322" lon="0.10071">
        <ele>2404</ele>
        <time>2015-01-10T12:59:49Z</time>
      </trkpt>
      <trkpt lat="42.92321" lon="0.10065">
        <ele>2404</ele>
        <time>2015-01-10T13:00:02Z</time>
      </trkpt>
      <trkpt lat="42.9232" lon="0.1006">
        <ele>2404</ele>
        <time>2015-01-10T13:00:12Z</time>
      </trkpt>
      <trkpt lat="42.92319" lon="0.10057">
        <ele>2404</ele>
        <time>2015-01-10T13:00:14Z</time>
      </trkpt>
      <trkpt lat="42.92308" lon="0.10038">
        <ele>2400</ele>
        <time>2015-01-10T13:00:20Z</time>
      </trkpt>
      <trkpt lat="42.92305" lon="0.10031">
        <ele>2399</ele>
        <time>2015-01-10T13:00:22Z</time>
      </trkpt>
      <trkpt lat="42.92294" lon="0.10038">
        <ele>2395</ele>
        <time>2015-01-10T13:00:26Z</time>
      </trkpt>
      <trkpt lat="42.9229" lon="0.10035">
        <ele>2394</ele>
        <time>2015-01-10T13:00:39Z</time>
      </trkpt>
      <trkpt lat="42.92288" lon="0.1004">
        <ele>2394</ele>
        <time>2015-01-10T13:00:57Z</time>
      </trkpt>
      <trkpt lat="42.92288" lon="0.10043">
        <ele>2393</ele>
        <time>2015-01-10T13:01:13Z</time>
      </trkpt>
      <trkpt lat="42.92289" lon="0.10045">
        <ele>2393</ele>
        <time>2015-01-10T13:01:22Z</time>
      </trkpt>
      <trkpt lat="42.92283" lon="0.10047">
        <ele>2388</ele>
        <time>2015-01-10T13:01:26Z</time>
      </trkpt>
      <trkpt lat="42.92283" lon="0.10051">
        <ele>2387</ele>
        <time>2015-01-10T13:01:27Z</time>
      </trkpt>
      <trkpt lat="42.92276" lon="0.10062">
        <ele>2381</ele>
        <time>2015-01-10T13:01:31Z</time>
      </trkpt>
      <trkpt lat="42.92273" lon="0.10062">
        <ele>2381</ele>
        <time>2015-01-10T13:01:32Z</time>
      </trkpt>
      <trkpt lat="42.92266" lon="0.10064">
        <ele>2377</ele>
        <time>2015-01-10T13:01:35Z</time>
      </trkpt>
      <trkpt lat="42.92266" lon="0.10069">
        <ele>2374</ele>
        <time>2015-01-10T13:01:37Z</time>
      </trkpt>
      <trkpt lat="42.92272" lon="0.10069">
        <ele>2375</ele>
        <time>2015-01-10T13:01:48Z</time>
      </trkpt>
      <trkpt lat="42.92278" lon="0.10084">
        <ele>2371</ele>
        <time>2015-01-10T13:02:03Z</time>
      </trkpt>
      <trkpt lat="42.9227" lon="0.10089">
        <ele>2367</ele>
        <time>2015-01-10T13:02:07Z</time>
      </trkpt>
      <trkpt lat="42.92265" lon="0.10082">
        <ele>2365</ele>
        <time>2015-01-10T13:02:10Z</time>
      </trkpt>
      <trkpt lat="42.92261" lon="0.10078">
        <ele>2364</ele>
        <time>2015-01-10T13:02:13Z</time>
      </trkpt>
      <trkpt lat="42.92258" lon="0.10083">
        <ele>2360</ele>
        <time>2015-01-10T13:02:16Z</time>
      </trkpt>
      <trkpt lat="42.92261" lon="0.10093">
        <ele>2356</ele>
        <time>2015-01-10T13:02:19Z</time>
      </trkpt>
      <trkpt lat="42.92254" lon="0.10094">
        <ele>2353</ele>
        <time>2015-01-10T13:02:22Z</time>
      </trkpt>
      <trkpt lat="42.92244" lon="0.10088">
        <ele>2349</ele>
        <time>2015-01-10T13:02:28Z</time>
      </trkpt>
      <trkpt lat="42.92241" lon="0.10086">
        <ele>2345</ele>
        <time>2015-01-10T13:02:30Z</time>
      </trkpt>
      <trkpt lat="42.9224" lon="0.10086">
        <ele>2343</ele>
        <time>2015-01-10T13:02:31Z</time>
      </trkpt>
      <trkpt lat="42.92243" lon="0.10108">
        <ele>2339</ele>
        <time>2015-01-10T13:02:37Z</time>
      </trkpt>
      <trkpt lat="42.9224" lon="0.10108">
        <ele>2338</ele>
        <time>2015-01-10T13:02:39Z</time>
      </trkpt>
      <trkpt lat="42.92238" lon="0.10107">
        <ele>2337</ele>
        <time>2015-01-10T13:02:40Z</time>
      </trkpt>
      <trkpt lat="42.9223" lon="0.10101">
        <ele>2335</ele>
        <time>2015-01-10T13:02:43Z</time>
      </trkpt>
      <trkpt lat="42.92229" lon="0.10105">
        <ele>2335</ele>
        <time>2015-01-10T13:02:56Z</time>
      </trkpt>
      <trkpt lat="42.92226" lon="0.10105">
        <ele>2334</ele>
        <time>2015-01-10T13:02:58Z</time>
      </trkpt>
      <trkpt lat="42.92226" lon="0.10114">
        <ele>2329</ele>
        <time>2015-01-10T13:03:01Z</time>
      </trkpt>
      <trkpt lat="42.92218" lon="0.10122">
        <ele>2324</ele>
        <time>2015-01-10T13:03:04Z</time>
      </trkpt>
      <trkpt lat="42.92214" lon="0.10131">
        <ele>2317</ele>
        <time>2015-01-10T13:03:06Z</time>
      </trkpt>
      <trkpt lat="42.92217" lon="0.10146">
        <ele>2313</ele>
        <time>2015-01-10T13:03:08Z</time>
      </trkpt>
      <trkpt lat="42.92218" lon="0.10159">
        <ele>2312</ele>
        <time>2015-01-10T13:03:11Z</time>
      </trkpt>
      <trkpt lat="42.92214" lon="0.1016">
        <ele>2312</ele>
        <time>2015-01-10T13:03:12Z</time>
      </trkpt>
      <trkpt lat="42.92213" lon="0.10164">
        <ele>2308</ele>
        <time>2015-01-10T13:03:13Z</time>
      </trkpt>
      <trkpt lat="42.9221" lon="0.10175">
        <ele>2304</ele>
        <time>2015-01-10T13:03:15Z</time>
      </trkpt>
      <trkpt lat="42.92205" lon="0.10186">
        <ele>2299</ele>
        <time>2015-01-10T13:03:17Z</time>
      </trkpt>
      <trkpt lat="42.92202" lon="0.1019">
        <ele>2298</ele>
        <time>2015-01-10T13:03:18Z</time>
      </trkpt>
      <trkpt lat="42.92194" lon="0.10202">
        <ele>2290</ele>
        <time>2015-01-10T13:03:21Z</time>
      </trkpt>
      <trkpt lat="42.92196" lon="0.10209">
        <ele>2287</ele>
        <time>2015-01-10T13:03:23Z</time>
      </trkpt>
      <trkpt lat="42.92201" lon="0.10211">
        <ele>2290</ele>
        <time>2015-01-10T13:03:28Z</time>
      </trkpt>
      <trkpt lat="42.92201" lon="0.10211">
        <ele>2290</ele>
        <time>2015-01-10T13:03:29Z</time>
      </trkpt>
      <trkpt lat="42.92211" lon="0.10212">
        <ele>2290</ele>
        <time>2015-01-10T13:03:51Z</time>
      </trkpt>
      <trkpt lat="42.92215" lon="0.10211">
        <ele>2290</ele>
        <time>2015-01-10T13:04:15Z</time>
      </trkpt>
      <trkpt lat="42.92214" lon="0.10216">
        <ele>2290</ele>
        <time>2015-01-10T13:04:44Z</time>
      </trkpt>
      <trkpt lat="42.92213" lon="0.1022">
        <ele>2289</ele>
        <time>2015-01-10T13:04:47Z</time>
      </trkpt>
      <trkpt lat="42.92208" lon="0.10218">
        <ele>2285</ele>
        <time>2015-01-10T13:04:49Z</time>
      </trkpt>
      <trkpt lat="42.92204" lon="0.10219">
        <ele>2282</ele>
        <time>2015-01-10T13:04:51Z</time>
      </trkpt>
      <trkpt lat="42.922" lon="0.10222">
        <ele>2279</ele>
        <time>2015-01-10T13:04:53Z</time>
      </trkpt>
      <trkpt lat="42.92191" lon="0.10229">
        <ele>2275</ele>
        <time>2015-01-10T13:04:57Z</time>
      </trkpt>
      <trkpt lat="42.92188" lon="0.1023">
        <ele>2272</ele>
        <time>2015-01-10T13:04:58Z</time>
      </trkpt>
      <trkpt lat="42.92181" lon="0.1023">
        <ele>2268</ele>
        <time>2015-01-10T13:05:00Z</time>
      </trkpt>
      <trkpt lat="42.9218" lon="0.10235">
        <ele>2264</ele>
        <time>2015-01-10T13:05:03Z</time>
      </trkpt>
      <trkpt lat="42.92174" lon="0.10235">
        <ele>2259</ele>
        <time>2015-01-10T13:05:05Z</time>
      </trkpt>
      <trkpt lat="42.92171" lon="0.10235">
        <ele>2259</ele>
        <time>2015-01-10T13:05:06Z</time>
      </trkpt>
      <trkpt lat="42.92162" lon="0.10234">
        <ele>2258</ele>
        <time>2015-01-10T13:05:09Z</time>
      </trkpt>
      <trkpt lat="42.92155" lon="0.10236">
        <ele>2250</ele>
        <time>2015-01-10T13:05:13Z</time>
      </trkpt>
      <trkpt lat="42.92152" lon="0.10235">
        <ele>2251</ele>
        <time>2015-01-10T13:05:14Z</time>
      </trkpt>
      <trkpt lat="42.92151" lon="0.10236">
        <ele>2247</ele>
        <time>2015-01-10T13:05:15Z</time>
      </trkpt>
      <trkpt lat="42.92147" lon="0.10242">
        <ele>2242</ele>
        <time>2015-01-10T13:05:17Z</time>
      </trkpt>
      <trkpt lat="42.92135" lon="0.10256">
        <ele>2236</ele>
        <time>2015-01-10T13:05:21Z</time>
      </trkpt>
      <trkpt lat="42.92127" lon="0.10255">
        <ele>2232</ele>
        <time>2015-01-10T13:05:23Z</time>
      </trkpt>
      <trkpt lat="42.92123" lon="0.10256">
        <ele>2233</ele>
        <time>2015-01-10T13:05:24Z</time>
      </trkpt>
      <trkpt lat="42.92121" lon="0.10259">
        <ele>2229</ele>
        <time>2015-01-10T13:05:25Z</time>
      </trkpt>
      <trkpt lat="42.92113" lon="0.10265">
        <ele>2224</ele>
        <time>2015-01-10T13:05:27Z</time>
      </trkpt>
      <trkpt lat="42.92105" lon="0.10262">
        <ele>2221</ele>
        <time>2015-01-10T13:05:29Z</time>
      </trkpt>
      <trkpt lat="42.92101" lon="0.1026">
        <ele>2223</ele>
        <time>2015-01-10T13:05:35Z</time>
      </trkpt>
      <trkpt lat="42.92103" lon="0.10271">
        <ele>2223</ele>
        <time>2015-01-10T13:05:58Z</time>
      </trkpt>
      <trkpt lat="42.92102" lon="0.1027">
        <ele>2222</ele>
        <time>2015-01-10T13:06:00Z</time>
      </trkpt>
      <trkpt lat="42.92094" lon="0.10275">
        <ele>2216</ele>
        <time>2015-01-10T13:06:04Z</time>
      </trkpt>
      <trkpt lat="42.92091" lon="0.10277">
        <ele>2215</ele>
        <time>2015-01-10T13:06:05Z</time>
      </trkpt>
      <trkpt lat="42.92078" lon="0.10291">
        <ele>2206</ele>
        <time>2015-01-10T13:06:09Z</time>
      </trkpt>
      <trkpt lat="42.92069" lon="0.10299">
        <ele>2201</ele>
        <time>2015-01-10T13:06:12Z</time>
      </trkpt>
      <trkpt lat="42.92061" lon="0.10302">
        <ele>2197</ele>
        <time>2015-01-10T13:06:14Z</time>
      </trkpt>
      <trkpt lat="42.92052" lon="0.10306">
        <ele>2192</ele>
        <time>2015-01-10T13:06:16Z</time>
      </trkpt>
      <trkpt lat="42.92043" lon="0.10304">
        <ele>2190</ele>
        <time>2015-01-10T13:06:18Z</time>
      </trkpt>
      <trkpt lat="42.92028" lon="0.10297">
        <ele>2187</ele>
        <time>2015-01-10T13:06:21Z</time>
      </trkpt>
      <trkpt lat="42.91998" lon="0.10317">
        <ele>2184</ele>
        <time>2015-01-10T13:06:28Z</time>
      </trkpt>
      <trkpt lat="42.91968" lon="0.10354">
        <ele>2180</ele>
        <time>2015-01-10T13:06:37Z</time>
      </trkpt>
      <trkpt lat="42.91946" lon="0.10398">
        <ele>2180</ele>
        <time>2015-01-10T13:06:47Z</time>
      </trkpt>
      <trkpt lat="42.91936" lon="0.10412">
        <ele>2180</ele>
        <time>2015-01-10T13:07:00Z</time>
      </trkpt>
      <trkpt lat="42.91929" lon="0.10416">
        <ele>2181</ele>
        <time>2015-01-10T13:07:11Z</time>
      </trkpt>
      <trkpt lat="42.91928" lon="0.10423">
        <ele>2180</ele>
        <time>2015-01-10T13:07:14Z</time>
      </trkpt>
      <trkpt lat="42.91908" lon="0.10437">
        <ele>2178</ele>
        <time>2015-01-10T13:07:26Z</time>
      </trkpt>
      <trkpt lat="42.91905" lon="0.10436">
        <ele>2178</ele>
        <time>2015-01-10T13:07:40Z</time>
      </trkpt>
      <trkpt lat="42.91898" lon="0.10439">
        <ele>2177</ele>
        <time>2015-01-10T13:08:04Z</time>
      </trkpt>
      <trkpt lat="42.91881" lon="0.10443">
        <ele>2173</ele>
        <time>2015-01-10T13:08:09Z</time>
      </trkpt>
      <trkpt lat="42.91877" lon="0.10445">
        <ele>2173</ele>
        <time>2015-01-10T13:08:10Z</time>
      </trkpt>
      <trkpt lat="42.91862" lon="0.10486">
        <ele>2170</ele>
        <time>2015-01-10T13:08:19Z</time>
      </trkpt>
      <trkpt lat="42.91848" lon="0.10502">
        <ele>2169</ele>
        <time>2015-01-10T13:08:29Z</time>
      </trkpt>
      <trkpt lat="42.91844" lon="0.10498">
        <ele>2169</ele>
        <time>2015-01-10T13:08:47Z</time>
      </trkpt>
      <trkpt lat="42.91836" lon="0.10494">
        <ele>2166</ele>
        <time>2015-01-10T13:08:57Z</time>
      </trkpt>
      <trkpt lat="42.91828" lon="0.10502">
        <ele>2163</ele>
        <time>2015-01-10T13:09:00Z</time>
      </trkpt>
      <trkpt lat="42.91825" lon="0.10503">
        <ele>2162</ele>
        <time>2015-01-10T13:09:01Z</time>
      </trkpt>
      <trkpt lat="42.91821" lon="0.10495">
        <ele>2159</ele>
        <time>2015-01-10T13:09:03Z</time>
      </trkpt>
      <trkpt lat="42.91805" lon="0.10458">
        <ele>2154</ele>
        <time>2015-01-10T13:09:13Z</time>
      </trkpt>
      <trkpt lat="42.91804" lon="0.10455">
        <ele>2154</ele>
        <time>2015-01-10T13:09:14Z</time>
      </trkpt>
      <trkpt lat="42.91794" lon="0.1046">
        <ele>2148</ele>
        <time>2015-01-10T13:09:18Z</time>
      </trkpt>
      <trkpt lat="42.91787" lon="0.10459">
        <ele>2143</ele>
        <time>2015-01-10T13:09:20Z</time>
      </trkpt>
      <trkpt lat="42.91784" lon="0.10455">
        <ele>2144</ele>
        <time>2015-01-10T13:09:21Z</time>
      </trkpt>
      <trkpt lat="42.9178" lon="0.10454">
        <ele>2141</ele>
        <time>2015-01-10T13:09:22Z</time>
      </trkpt>
      <trkpt lat="42.91778" lon="0.10459">
        <ele>2137</ele>
        <time>2015-01-10T13:09:23Z</time>
      </trkpt>
      <trkpt lat="42.91767" lon="0.10462">
        <ele>2133</ele>
        <time>2015-01-10T13:09:26Z</time>
      </trkpt>
      <trkpt lat="42.91764" lon="0.10451">
        <ele>2131</ele>
        <time>2015-01-10T13:09:28Z</time>
      </trkpt>
      <trkpt lat="42.91757" lon="0.1045">
        <ele>2125</ele>
        <time>2015-01-10T13:09:30Z</time>
      </trkpt>
      <trkpt lat="42.91751" lon="0.10458">
        <ele>2124</ele>
        <time>2015-01-10T13:09:32Z</time>
      </trkpt>
      <trkpt lat="42.91743" lon="0.10451">
        <ele>2120</ele>
        <time>2015-01-10T13:09:34Z</time>
      </trkpt>
      <trkpt lat="42.91734" lon="0.10448">
        <ele>2115</ele>
        <time>2015-01-10T13:09:36Z</time>
      </trkpt>
      <trkpt lat="42.91729" lon="0.10456">
        <ele>2112</ele>
        <time>2015-01-10T13:09:37Z</time>
      </trkpt>
      <trkpt lat="42.91716" lon="0.10491">
        <ele>2109</ele>
        <time>2015-01-10T13:09:40Z</time>
      </trkpt>
      <trkpt lat="42.91689" lon="0.10527">
        <ele>2111</ele>
        <time>2015-01-10T13:09:46Z</time>
      </trkpt>
      <trkpt lat="42.91676" lon="0.10532">
        <ele>2110</ele>
        <time>2015-01-10T13:09:53Z</time>
      </trkpt>
      <trkpt lat="42.91676" lon="0.10534">
        <ele>2109</ele>
        <time>2015-01-10T13:10:10Z</time>
      </trkpt>
      <trkpt lat="42.91675" lon="0.10535">
        <ele>2110</ele>
        <time>2015-01-10T13:10:17Z</time>
      </trkpt>
      <trkpt lat="42.9167" lon="0.10552">
        <ele>2106</ele>
        <time>2015-01-10T13:10:21Z</time>
      </trkpt>
      <trkpt lat="42.91669" lon="0.1056">
        <ele>2106</ele>
        <time>2015-01-10T13:10:22Z</time>
      </trkpt>
      <trkpt lat="42.91661" lon="0.106">
        <ele>2103</ele>
        <time>2015-01-10T13:10:29Z</time>
      </trkpt>
      <trkpt lat="42.9165" lon="0.10597">
        <ele>2099</ele>
        <time>2015-01-10T13:10:32Z</time>
      </trkpt>
      <trkpt lat="42.91647" lon="0.10597">
        <ele>2099</ele>
        <time>2015-01-10T13:10:33Z</time>
      </trkpt>
      <trkpt lat="42.91643" lon="0.10602">
        <ele>2095</ele>
        <time>2015-01-10T13:10:35Z</time>
      </trkpt>
      <trkpt lat="42.9164" lon="0.10601">
        <ele>2091</ele>
        <time>2015-01-10T13:10:37Z</time>
      </trkpt>
      <trkpt lat="42.91641" lon="0.10603">
        <ele>2091</ele>
        <time>2015-01-10T13:10:53Z</time>
      </trkpt>
      <trkpt lat="42.9164" lon="0.10605">
        <ele>2088</ele>
        <time>2015-01-10T13:11:01Z</time>
      </trkpt>
      <trkpt lat="42.91634" lon="0.10617">
        <ele>2083</ele>
        <time>2015-01-10T13:11:05Z</time>
      </trkpt>
      <trkpt lat="42.91631" lon="0.10627">
        <ele>2082</ele>
        <time>2015-01-10T13:11:07Z</time>
      </trkpt>
      <trkpt lat="42.91623" lon="0.10626">
        <ele>2078</ele>
        <time>2015-01-10T13:11:10Z</time>
      </trkpt>
      <trkpt lat="42.91614" lon="0.10623">
        <ele>2074</ele>
        <time>2015-01-10T13:11:13Z</time>
      </trkpt>
      <trkpt lat="42.91609" lon="0.10617">
        <ele>2070</ele>
        <time>2015-01-10T13:11:15Z</time>
      </trkpt>
      <trkpt lat="42.91605" lon="0.1061">
        <ele>2069</ele>
        <time>2015-01-10T13:11:17Z</time>
      </trkpt>
      <trkpt lat="42.91602" lon="0.10617">
        <ele>2065</ele>
        <time>2015-01-10T13:11:19Z</time>
      </trkpt>
      <trkpt lat="42.91595" lon="0.10626">
        <ele>2063</ele>
        <time>2015-01-10T13:11:22Z</time>
      </trkpt>
      <trkpt lat="42.91591" lon="0.10624">
        <ele>2060</ele>
        <time>2015-01-10T13:11:23Z</time>
      </trkpt>
      <trkpt lat="42.91584" lon="0.10619">
        <ele>2055</ele>
        <time>2015-01-10T13:11:25Z</time>
      </trkpt>
      <trkpt lat="42.91573" lon="0.1062">
        <ele>2049</ele>
        <time>2015-01-10T13:11:28Z</time>
      </trkpt>
      <trkpt lat="42.91567" lon="0.10615">
        <ele>2048</ele>
        <time>2015-01-10T13:11:30Z</time>
      </trkpt>
      <trkpt lat="42.91564" lon="0.10613">
        <ele>2048</ele>
        <time>2015-01-10T13:11:31Z</time>
      </trkpt>
      <trkpt lat="42.9155" lon="0.10602">
        <ele>2047</ele>
        <time>2015-01-10T13:11:42Z</time>
      </trkpt>
      <trkpt lat="42.91541" lon="0.10588">
        <ele>2045</ele>
        <time>2015-01-10T13:11:58Z</time>
      </trkpt>
      <trkpt lat="42.91539" lon="0.10571">
        <ele>2045</ele>
        <time>2015-01-10T13:12:08Z</time>
      </trkpt>
      <trkpt lat="42.91538" lon="0.10568">
        <ele>2044</ele>
        <time>2015-01-10T13:12:24Z</time>
      </trkpt>
      <trkpt lat="42.91537" lon="0.10563">
        <ele>2042</ele>
        <time>2015-01-10T13:12:26Z</time>
      </trkpt>
      <trkpt lat="42.91528" lon="0.10559">
        <ele>2037</ele>
        <time>2015-01-10T13:12:31Z</time>
      </trkpt>
      <trkpt lat="42.91531" lon="0.10551">
        <ele>2035</ele>
        <time>2015-01-10T13:12:33Z</time>
      </trkpt>
      <trkpt lat="42.91534" lon="0.10539">
        <ele>2033</ele>
        <time>2015-01-10T13:12:36Z</time>
      </trkpt>
      <trkpt lat="42.91528" lon="0.10535">
        <ele>2026</ele>
        <time>2015-01-10T13:12:39Z</time>
      </trkpt>
      <trkpt lat="42.91527" lon="0.10535">
        <ele>2029</ele>
        <time>2015-01-10T13:12:40Z</time>
      </trkpt>
      <trkpt lat="42.91525" lon="0.10536">
        <ele>2029</ele>
        <time>2015-01-10T13:12:44Z</time>
      </trkpt>
      <trkpt lat="42.9151" lon="0.1055">
        <ele>2026</ele>
        <time>2015-01-10T13:12:52Z</time>
      </trkpt>
      <trkpt lat="42.91505" lon="0.10543">
        <ele>2024</ele>
        <time>2015-01-10T13:12:54Z</time>
      </trkpt>
      <trkpt lat="42.91496" lon="0.10549">
        <ele>2021</ele>
        <time>2015-01-10T13:12:57Z</time>
      </trkpt>
      <trkpt lat="42.91491" lon="0.10543">
        <ele>2017</ele>
        <time>2015-01-10T13:12:59Z</time>
      </trkpt>
      <trkpt lat="42.91487" lon="0.10537">
        <ele>2016</ele>
        <time>2015-01-10T13:13:01Z</time>
      </trkpt>
      <trkpt lat="42.91485" lon="0.10533">
        <ele>2017</ele>
        <time>2015-01-10T13:13:02Z</time>
      </trkpt>
      <trkpt lat="42.91479" lon="0.10538">
        <ele>2012</ele>
        <time>2015-01-10T13:13:05Z</time>
      </trkpt>
      <trkpt lat="42.91482" lon="0.10545">
        <ele>2011</ele>
        <time>2015-01-10T13:13:13Z</time>
      </trkpt>
      <trkpt lat="42.91486" lon="0.10548">
        <ele>2012</ele>
        <time>2015-01-10T13:13:37Z</time>
      </trkpt>
      <trkpt lat="42.91483" lon="0.1056">
        <ele>2010</ele>
        <time>2015-01-10T13:13:41Z</time>
      </trkpt>
      <trkpt lat="42.91486" lon="0.10567">
        <ele>2010</ele>
        <time>2015-01-10T13:13:54Z</time>
      </trkpt>
      <trkpt lat="42.91486" lon="0.10568">
        <ele>2009</ele>
        <time>2015-01-10T13:13:56Z</time>
      </trkpt>
      <trkpt lat="42.91485" lon="0.10572">
        <ele>2008</ele>
        <time>2015-01-10T13:13:58Z</time>
      </trkpt>
      <trkpt lat="42.9149" lon="0.10596">
        <ele>2004</ele>
        <time>2015-01-10T13:14:06Z</time>
      </trkpt>
      <trkpt lat="42.91494" lon="0.10619">
        <ele>2001</ele>
        <time>2015-01-10T13:14:11Z</time>
      </trkpt>
      <trkpt lat="42.91495" lon="0.10623">
        <ele>2000</ele>
        <time>2015-01-10T13:14:12Z</time>
      </trkpt>
      <trkpt lat="42.91496" lon="0.10627">
        <ele>2000</ele>
        <time>2015-01-10T13:14:13Z</time>
      </trkpt>
      <trkpt lat="42.91493" lon="0.10634">
        <ele>1999</ele>
        <time>2015-01-10T13:14:15Z</time>
      </trkpt>
      <trkpt lat="42.91489" lon="0.10636">
        <ele>1995</ele>
        <time>2015-01-10T13:14:16Z</time>
      </trkpt>
      <trkpt lat="42.91485" lon="0.10636">
        <ele>1995</ele>
        <time>2015-01-10T13:14:17Z</time>
      </trkpt>
      <trkpt lat="42.91479" lon="0.10643">
        <ele>1991</ele>
        <time>2015-01-10T13:14:19Z</time>
      </trkpt>
      <trkpt lat="42.91464" lon="0.10654">
        <ele>1984</ele>
        <time>2015-01-10T13:14:22Z</time>
      </trkpt>
      <trkpt lat="42.91459" lon="0.10658">
        <ele>1982</ele>
        <time>2015-01-10T13:14:23Z</time>
      </trkpt>
      <trkpt lat="42.91448" lon="0.10666">
        <ele>1979</ele>
        <time>2015-01-10T13:14:25Z</time>
      </trkpt>
      <trkpt lat="42.9144" lon="0.10674">
        <ele>1978</ele>
        <time>2015-01-10T13:14:27Z</time>
      </trkpt>
      <trkpt lat="42.9142" lon="0.1069">
        <ele>1975</ele>
        <time>2015-01-10T13:14:33Z</time>
      </trkpt>
      <trkpt lat="42.91411" lon="0.10692">
        <ele>1973</ele>
        <time>2015-01-10T13:14:35Z</time>
      </trkpt>
      <trkpt lat="42.91401" lon="0.10702">
        <ele>1967</ele>
        <time>2015-01-10T13:14:37Z</time>
      </trkpt>
      <trkpt lat="42.91381" lon="0.10714">
        <ele>1961</ele>
        <time>2015-01-10T13:14:40Z</time>
      </trkpt>
      <trkpt lat="42.91365" lon="0.10719">
        <ele>1960</ele>
        <time>2015-01-10T13:14:42Z</time>
      </trkpt>
      <trkpt lat="42.91351" lon="0.10723">
        <ele>1958</ele>
        <time>2015-01-10T13:14:44Z</time>
      </trkpt>
      <trkpt lat="42.91345" lon="0.10726">
        <ele>1958</ele>
        <time>2015-01-10T13:14:45Z</time>
      </trkpt>
      <trkpt lat="42.91337" lon="0.10725">
        <ele>1960</ele>
        <time>2015-01-10T13:14:48Z</time>
      </trkpt>
      <trkpt lat="42.91331" lon="0.10715">
        <ele>1960</ele>
        <time>2015-01-10T13:14:59Z</time>
      </trkpt>
      <trkpt lat="42.9133" lon="0.1071">
        <ele>1960</ele>
        <time>2015-01-10T13:15:04Z</time>
      </trkpt>
      <trkpt lat="42.91327" lon="0.1069">
        <ele>1957</ele>
        <time>2015-01-10T13:15:10Z</time>
      </trkpt>
      <trkpt lat="42.91325" lon="0.10679">
        <ele>1956</ele>
        <time>2015-01-10T13:15:12Z</time>
      </trkpt>
      <trkpt lat="42.91321" lon="0.10637">
        <ele>1954</ele>
        <time>2015-01-10T13:15:22Z</time>
      </trkpt>
      <trkpt lat="42.91321" lon="0.10636">
        <ele>1954</ele>
        <time>2015-01-10T13:15:32Z</time>
      </trkpt>
      <trkpt lat="42.9132" lon="0.10636">
        <ele>1954</ele>
        <time>2015-01-10T13:15:41Z</time>
      </trkpt>
      <trkpt lat="42.91315" lon="0.10624">
        <ele>1951</ele>
        <time>2015-01-10T13:15:45Z</time>
      </trkpt>
      <trkpt lat="42.91313" lon="0.1062">
        <ele>1951</ele>
        <time>2015-01-10T13:15:46Z</time>
      </trkpt>
      <trkpt lat="42.91306" lon="0.10605">
        <ele>1949</ele>
        <time>2015-01-10T13:15:56Z</time>
      </trkpt>
      <trkpt lat="42.91306" lon="0.10604">
        <ele>1950</ele>
        <time>2015-01-10T13:16:22Z</time>
      </trkpt>
      <trkpt lat="42.91298" lon="0.1059">
        <ele>1947</ele>
        <time>2015-01-10T13:16:27Z</time>
      </trkpt>
      <trkpt lat="42.9129" lon="0.106">
        <ele>1942</ele>
        <time>2015-01-10T13:16:30Z</time>
      </trkpt>
      <trkpt lat="42.91285" lon="0.10605">
        <ele>1941</ele>
        <time>2015-01-10T13:16:32Z</time>
      </trkpt>
      <trkpt lat="42.91279" lon="0.10599">
        <ele>1937</ele>
        <time>2015-01-10T13:16:34Z</time>
      </trkpt>
      <trkpt lat="42.91276" lon="0.10597">
        <ele>1937</ele>
        <time>2015-01-10T13:16:35Z</time>
      </trkpt>
      <trkpt lat="42.9127" lon="0.10599">
        <ele>1933</ele>
        <time>2015-01-10T13:16:37Z</time>
      </trkpt>
      <trkpt lat="42.91264" lon="0.10592">
        <ele>1931</ele>
        <time>2015-01-10T13:16:41Z</time>
      </trkpt>
      <trkpt lat="42.91261" lon="0.10583">
        <ele>1929</ele>
        <time>2015-01-10T13:16:44Z</time>
      </trkpt>
      <trkpt lat="42.91257" lon="0.10592">
        <ele>1925</ele>
        <time>2015-01-10T13:16:47Z</time>
      </trkpt>
      <trkpt lat="42.91257" lon="0.10598">
        <ele>1924</ele>
        <time>2015-01-10T13:16:48Z</time>
      </trkpt>
      <trkpt lat="42.91265" lon="0.10633">
        <ele>1921</ele>
        <time>2015-01-10T13:16:54Z</time>
      </trkpt>
      <trkpt lat="42.91269" lon="0.10683">
        <ele>1918</ele>
        <time>2015-01-10T13:17:04Z</time>
      </trkpt>
      <trkpt lat="42.9127" lon="0.10689">
        <ele>1918</ele>
        <time>2015-01-10T13:17:05Z</time>
      </trkpt>
      <trkpt lat="42.91271" lon="0.10702">
        <ele>1917</ele>
        <time>2015-01-10T13:17:07Z</time>
      </trkpt>
      <trkpt lat="42.91272" lon="0.10738">
        <ele>1914</ele>
        <time>2015-01-10T13:17:14Z</time>
      </trkpt>
      <trkpt lat="42.91273" lon="0.10741">
        <ele>1914</ele>
        <time>2015-01-10T13:17:18Z</time>
      </trkpt>
      <trkpt lat="42.91274" lon="0.10739">
        <ele>1913</ele>
        <time>2015-01-10T13:17:23Z</time>
      </trkpt>
      <trkpt lat="42.91269" lon="0.10743">
        <ele>1912</ele>
        <time>2015-01-10T13:17:32Z</time>
      </trkpt>
      <trkpt lat="42.91268" lon="0.10742">
        <ele>1911</ele>
        <time>2015-01-10T13:17:34Z</time>
      </trkpt>
      <trkpt lat="42.91264" lon="0.10727">
        <ele>1907</ele>
        <time>2015-01-10T13:17:38Z</time>
      </trkpt>
      <trkpt lat="42.91263" lon="0.10722">
        <ele>1907</ele>
        <time>2015-01-10T13:17:39Z</time>
      </trkpt>
      <trkpt lat="42.91259" lon="0.10714">
        <ele>1907</ele>
        <time>2015-01-10T13:17:41Z</time>
      </trkpt>
      <trkpt lat="42.91249" lon="0.10714">
        <ele>1904</ele>
        <time>2015-01-10T13:17:44Z</time>
      </trkpt>
      <trkpt lat="42.91244" lon="0.10713">
        <ele>1901</ele>
        <time>2015-01-10T13:17:45Z</time>
      </trkpt>
      <trkpt lat="42.91236" lon="0.10714">
        <ele>1896</ele>
        <time>2015-01-10T13:17:47Z</time>
      </trkpt>
      <trkpt lat="42.91224" lon="0.10709">
        <ele>1891</ele>
        <time>2015-01-10T13:17:50Z</time>
      </trkpt>
      <trkpt lat="42.91212" lon="0.10706">
        <ele>1886</ele>
        <time>2015-01-10T13:17:53Z</time>
      </trkpt>
      <trkpt lat="42.91203" lon="0.10706">
        <ele>1882</ele>
        <time>2015-01-10T13:17:55Z</time>
      </trkpt>
      <trkpt lat="42.91196" lon="0.10704">
        <ele>1879</ele>
        <time>2015-01-10T13:17:57Z</time>
      </trkpt>
      <trkpt lat="42.91192" lon="0.10717">
        <ele>1876</ele>
        <time>2015-01-10T13:17:59Z</time>
      </trkpt>
      <trkpt lat="42.91191" lon="0.10732">
        <ele>1875</ele>
        <time>2015-01-10T13:18:02Z</time>
      </trkpt>
      <trkpt lat="42.91181" lon="0.10756">
        <ele>1872</ele>
        <time>2015-01-10T13:18:07Z</time>
      </trkpt>
      <trkpt lat="42.91179" lon="0.10761">
        <ele>1872</ele>
        <time>2015-01-10T13:18:08Z</time>
      </trkpt>
      <trkpt lat="42.91177" lon="0.10766">
        <ele>1872</ele>
        <time>2015-01-10T13:18:09Z</time>
      </trkpt>
      <trkpt lat="42.9116" lon="0.10784">
        <ele>1869</ele>
        <time>2015-01-10T13:18:14Z</time>
      </trkpt>
      <trkpt lat="42.91136" lon="0.10794">
        <ele>1867</ele>
        <time>2015-01-10T13:18:21Z</time>
      </trkpt>
      <trkpt lat="42.91128" lon="0.10798">
        <ele>1865</ele>
        <time>2015-01-10T13:18:23Z</time>
      </trkpt>
      <trkpt lat="42.9111" lon="0.10798">
        <ele>1860</ele>
        <time>2015-01-10T13:18:29Z</time>
      </trkpt>
      <trkpt lat="42.91112" lon="0.10779">
        <ele>1857</ele>
        <time>2015-01-10T13:18:34Z</time>
      </trkpt>
      <trkpt lat="42.91109" lon="0.10781">
        <ele>1856</ele>
        <time>2015-01-10T13:18:36Z</time>
      </trkpt>
      <trkpt lat="42.91109" lon="0.10773">
        <ele>1854</ele>
        <time>2015-01-10T13:18:39Z</time>
      </trkpt>
      <trkpt lat="42.9112" lon="0.10749">
        <ele>1851</ele>
        <time>2015-01-10T13:18:46Z</time>
      </trkpt>
      <trkpt lat="42.91112" lon="0.10749">
        <ele>1847</ele>
        <time>2015-01-10T13:18:50Z</time>
      </trkpt>
      <trkpt lat="42.91106" lon="0.10754">
        <ele>1848</ele>
        <time>2015-01-10T13:18:52Z</time>
      </trkpt>
      <trkpt lat="42.91097" lon="0.1076">
        <ele>1848</ele>
        <time>2015-01-10T13:18:56Z</time>
      </trkpt>
      <trkpt lat="42.91092" lon="0.10764">
        <ele>1845</ele>
        <time>2015-01-10T13:18:59Z</time>
      </trkpt>
      <trkpt lat="42.91079" lon="0.10779">
        <ele>1844</ele>
        <time>2015-01-10T13:19:09Z</time>
      </trkpt>
      <trkpt lat="42.91071" lon="0.10784">
        <ele>1844</ele>
        <time>2015-01-10T13:19:25Z</time>
      </trkpt>
      <trkpt lat="42.9107" lon="0.10802">
        <ele>1845</ele>
        <time>2015-01-10T13:19:41Z</time>
      </trkpt>
      <trkpt lat="42.91069" lon="0.10803">
        <ele>1845</ele>
        <time>2015-01-10T13:19:43Z</time>
      </trkpt>
      <trkpt lat="42.91062" lon="0.10812">
        <ele>1843</ele>
        <time>2015-01-10T13:19:51Z</time>
      </trkpt>
      <trkpt lat="42.91058" lon="0.10805">
        <ele>1839</ele>
        <time>2015-01-10T13:19:55Z</time>
      </trkpt>
      <trkpt lat="42.91053" lon="0.1081">
        <ele>1835</ele>
        <time>2015-01-10T13:19:59Z</time>
      </trkpt>
      <trkpt lat="42.91049" lon="0.10811">
        <ele>1833</ele>
        <time>2015-01-10T13:20:01Z</time>
      </trkpt>
      <trkpt lat="42.91044" lon="0.10809">
        <ele>1831</ele>
        <time>2015-01-10T13:20:03Z</time>
      </trkpt>
      <trkpt lat="42.91041" lon="0.10798">
        <ele>1828</ele>
        <time>2015-01-10T13:20:07Z</time>
      </trkpt>
      <trkpt lat="42.91038" lon="0.10797">
        <ele>1825</ele>
        <time>2015-01-10T13:20:09Z</time>
      </trkpt>
      <trkpt lat="42.91034" lon="0.1079">
        <ele>1823</ele>
        <time>2015-01-10T13:20:12Z</time>
      </trkpt>
      <trkpt lat="42.91033" lon="0.10788">
        <ele>1820</ele>
        <time>2015-01-10T13:20:13Z</time>
      </trkpt>
      <trkpt lat="42.91023" lon="0.10785">
        <ele>1814</ele>
        <time>2015-01-10T13:20:18Z</time>
      </trkpt>
      <trkpt lat="42.91016" lon="0.10757">
        <ele>1811</ele>
        <time>2015-01-10T13:20:27Z</time>
      </trkpt>
      <trkpt lat="42.91014" lon="0.10753">
        <ele>1810</ele>
        <time>2015-01-10T13:20:40Z</time>
      </trkpt>
      <trkpt lat="42.9101" lon="0.10763">
        <ele>1806</ele>
        <time>2015-01-10T13:20:47Z</time>
      </trkpt>
      <trkpt lat="42.91008" lon="0.10761">
        <ele>1807</ele>
        <time>2015-01-10T13:20:48Z</time>
      </trkpt>
      <trkpt lat="42.91006" lon="0.10758">
        <ele>1805</ele>
        <time>2015-01-10T13:20:51Z</time>
      </trkpt>
      <trkpt lat="42.91004" lon="0.10754">
        <ele>1804</ele>
        <time>2015-01-10T13:21:02Z</time>
      </trkpt>
      <trkpt lat="42.91002" lon="0.10746">
        <ele>1801</ele>
        <time>2015-01-10T13:21:09Z</time>
      </trkpt>
      <trkpt lat="42.91" lon="0.10739">
        <ele>1799</ele>
        <time>2015-01-10T13:21:12Z</time>
      </trkpt>
      <trkpt lat="42.90998" lon="0.10739">
        <ele>1798</ele>
        <time>2015-01-10T13:21:14Z</time>
      </trkpt>
      <trkpt lat="42.90993" lon="0.10741">
        <ele>1795</ele>
        <time>2015-01-10T13:21:16Z</time>
      </trkpt>
      <trkpt lat="42.90992" lon="0.1073">
        <ele>1792</ele>
        <time>2015-01-10T13:21:20Z</time>
      </trkpt>
      <trkpt lat="42.90992" lon="0.10728">
        <ele>1791</ele>
        <time>2015-01-10T13:21:21Z</time>
      </trkpt>
      <trkpt lat="42.90985" lon="0.10722">
        <ele>1787</ele>
        <time>2015-01-10T13:21:26Z</time>
      </trkpt>
      <trkpt lat="42.90985" lon="0.10714">
        <ele>1786</ele>
        <time>2015-01-10T13:21:28Z</time>
      </trkpt>
      <trkpt lat="42.90989" lon="0.10701">
        <ele>1786</ele>
        <time>2015-01-10T13:21:40Z</time>
      </trkpt>
      <trkpt lat="42.90994" lon="0.10693">
        <ele>1783</ele>
        <time>2015-01-10T13:21:54Z</time>
      </trkpt>
      <trkpt lat="42.90997" lon="0.10687">
        <ele>1781</ele>
        <time>2015-01-10T13:22:07Z</time>
      </trkpt>
      <trkpt lat="42.90995" lon="0.10683">
        <ele>1780</ele>
        <time>2015-01-10T13:22:09Z</time>
      </trkpt>
      <trkpt lat="42.9099" lon="0.10686">
        <ele>1780</ele>
        <time>2015-01-10T13:22:21Z</time>
      </trkpt>
      <trkpt lat="42.90994" lon="0.10688">
        <ele>1779</ele>
        <time>2015-01-10T13:22:42Z</time>
      </trkpt>
      <trkpt lat="42.9098" lon="0.10694">
        <ele>1778</ele>
        <time>2015-01-10T13:22:59Z</time>
      </trkpt>
      <trkpt lat="42.90972" lon="0.10706">
        <ele>1776</ele>
        <time>2015-01-10T13:23:03Z</time>
      </trkpt>
      <trkpt lat="42.90967" lon="0.10703">
        <ele>1775</ele>
        <time>2015-01-10T13:23:14Z</time>
      </trkpt>
      <trkpt lat="42.90965" lon="0.10701">
        <ele>1771</ele>
        <time>2015-01-10T13:23:27Z</time>
      </trkpt>
      <trkpt lat="42.90965" lon="0.107">
        <ele>1771</ele>
        <time>2015-01-10T13:23:29Z</time>
      </trkpt>
      <trkpt lat="42.90965" lon="0.10682">
        <ele>1767</ele>
        <time>2015-01-10T13:23:38Z</time>
      </trkpt>
      <trkpt lat="42.9096" lon="0.10685">
        <ele>1765</ele>
        <time>2015-01-10T13:23:48Z</time>
      </trkpt>
      <trkpt lat="42.90959" lon="0.1069">
        <ele>1765</ele>
        <time>2015-01-10T13:24:14Z</time>
      </trkpt>
      <trkpt lat="42.90951" lon="0.1068">
        <ele>1759</ele>
        <time>2015-01-10T13:24:20Z</time>
      </trkpt>
      <trkpt lat="42.90947" lon="0.10676">
        <ele>1756</ele>
        <time>2015-01-10T13:24:22Z</time>
      </trkpt>
      <trkpt lat="42.90945" lon="0.1067">
        <ele>1755</ele>
        <time>2015-01-10T13:24:26Z</time>
      </trkpt>
      <trkpt lat="42.90949" lon="0.10661">
        <ele>1752</ele>
        <time>2015-01-10T13:24:31Z</time>
      </trkpt>
      <trkpt lat="42.90944" lon="0.10659">
        <ele>1749</ele>
        <time>2015-01-10T13:24:34Z</time>
      </trkpt>
      <trkpt lat="42.9093" lon="0.10679">
        <ele>1745</ele>
        <time>2015-01-10T13:24:41Z</time>
      </trkpt>
      <trkpt lat="42.90922" lon="0.1069">
        <ele>1742</ele>
        <time>2015-01-10T13:24:44Z</time>
      </trkpt>
      <trkpt lat="42.90917" lon="0.10692">
        <ele>1741</ele>
        <time>2015-01-10T13:24:46Z</time>
      </trkpt>
      <trkpt lat="42.90918" lon="0.10687">
        <ele>1739</ele>
        <time>2015-01-10T13:24:48Z</time>
      </trkpt>
      <trkpt lat="42.90918" lon="0.10683">
        <ele>1738</ele>
        <time>2015-01-10T13:24:51Z</time>
      </trkpt>
      <trkpt lat="42.90915" lon="0.10681">
        <ele>1735</ele>
        <time>2015-01-10T13:24:54Z</time>
      </trkpt>
      <trkpt lat="42.90914" lon="0.1068">
        <ele>1735</ele>
        <time>2015-01-10T13:24:55Z</time>
      </trkpt>
      <trkpt lat="42.9091" lon="0.1068">
        <ele>1733</ele>
        <time>2015-01-10T13:25:04Z</time>
      </trkpt>
      <trkpt lat="42.90908" lon="0.10681">
        <ele>1732</ele>
        <time>2015-01-10T13:25:06Z</time>
      </trkpt>
      <trkpt lat="42.90904" lon="0.10687">
        <ele>1730</ele>
        <time>2015-01-10T13:25:15Z</time>
      </trkpt>
      <trkpt lat="42.90903" lon="0.10689">
        <ele>1730</ele>
        <time>2015-01-10T13:25:33Z</time>
      </trkpt>
      <trkpt lat="42.90898" lon="0.10694">
        <ele>1728</ele>
        <time>2015-01-10T13:25:39Z</time>
      </trkpt>
      <trkpt lat="42.90895" lon="0.10691">
        <ele>1725</ele>
        <time>2015-01-10T13:25:42Z</time>
      </trkpt>
      <trkpt lat="42.9089" lon="0.10683">
        <ele>1721</ele>
        <time>2015-01-10T13:25:49Z</time>
      </trkpt>
      <trkpt lat="42.90889" lon="0.10681">
        <ele>1721</ele>
        <time>2015-01-10T13:25:50Z</time>
      </trkpt>
      <trkpt lat="42.90883" lon="0.10683">
        <ele>1717</ele>
        <time>2015-01-10T13:25:54Z</time>
      </trkpt>
      <trkpt lat="42.90878" lon="0.10689">
        <ele>1714</ele>
        <time>2015-01-10T13:25:59Z</time>
      </trkpt>
      <trkpt lat="42.90871" lon="0.10684">
        <ele>1709</ele>
        <time>2015-01-10T13:26:04Z</time>
      </trkpt>
      <trkpt lat="42.9087" lon="0.10684">
        <ele>1709</ele>
        <time>2015-01-10T13:26:05Z</time>
      </trkpt>
      <trkpt lat="42.90869" lon="0.10685">
        <ele>1708</ele>
        <time>2015-01-10T13:26:08Z</time>
      </trkpt>
      <trkpt lat="42.90866" lon="0.10685">
        <ele>1706</ele>
        <time>2015-01-10T13:26:11Z</time>
      </trkpt>
      <trkpt lat="42.90865" lon="0.10686">
        <ele>1704</ele>
        <time>2015-01-10T13:26:13Z</time>
      </trkpt>
      <trkpt lat="42.90864" lon="0.10687">
        <ele>1703</ele>
        <time>2015-01-10T13:26:18Z</time>
      </trkpt>
      <trkpt lat="42.90858" lon="0.10687">
        <ele>1701</ele>
        <time>2015-01-10T13:26:21Z</time>
      </trkpt>
      <trkpt lat="42.90856" lon="0.10686">
        <ele>1700</ele>
        <time>2015-01-10T13:26:22Z</time>
      </trkpt>
      <trkpt lat="42.9085" lon="0.10683">
        <ele>1697</ele>
        <time>2015-01-10T13:26:28Z</time>
      </trkpt>
      <trkpt lat="42.90847" lon="0.10686">
        <ele>1693</ele>
        <time>2015-01-10T13:26:31Z</time>
      </trkpt>
      <trkpt lat="42.90845" lon="0.10688">
        <ele>1692</ele>
        <time>2015-01-10T13:26:34Z</time>
      </trkpt>
      <trkpt lat="42.90839" lon="0.10692">
        <ele>1688</ele>
        <time>2015-01-10T13:26:38Z</time>
      </trkpt>
      <trkpt lat="42.90839" lon="0.10692">
        <ele>1688</ele>
        <time>2015-01-10T13:26:39Z</time>
      </trkpt>
      <trkpt lat="42.90839" lon="0.10693">
        <ele>1686</ele>
        <time>2015-01-10T13:26:42Z</time>
      </trkpt>
      <trkpt lat="42.90839" lon="0.10704">
        <ele>1684</ele>
        <time>2015-01-10T13:26:46Z</time>
      </trkpt>
      <trkpt lat="42.90837" lon="0.10715">
        <ele>1682</ele>
        <time>2015-01-10T13:26:49Z</time>
      </trkpt>
      <trkpt lat="42.90835" lon="0.10724">
        <ele>1683</ele>
        <time>2015-01-10T13:27:01Z</time>
      </trkpt>
      <trkpt lat="42.90835" lon="0.10727">
        <ele>1683</ele>
        <time>2015-01-10T13:27:18Z</time>
      </trkpt>
      <trkpt lat="42.90835" lon="0.10729">
        <ele>1682</ele>
        <time>2015-01-10T13:27:20Z</time>
      </trkpt>
      <trkpt lat="42.90825" lon="0.10732">
        <ele>1679</ele>
        <time>2015-01-10T13:27:25Z</time>
      </trkpt>
      <trkpt lat="42.90821" lon="0.10739">
        <ele>1674</ele>
        <time>2015-01-10T13:27:27Z</time>
      </trkpt>
      <trkpt lat="42.9082" lon="0.10754">
        <ele>1672</ele>
        <time>2015-01-10T13:27:30Z</time>
      </trkpt>
      <trkpt lat="42.9082" lon="0.10759">
        <ele>1670</ele>
        <time>2015-01-10T13:27:31Z</time>
      </trkpt>
      <trkpt lat="42.90811" lon="0.10782">
        <ele>1668</ele>
        <time>2015-01-10T13:27:39Z</time>
      </trkpt>
      <trkpt lat="42.90805" lon="0.10777">
        <ele>1664</ele>
        <time>2015-01-10T13:27:43Z</time>
      </trkpt>
      <trkpt lat="42.90799" lon="0.10777">
        <ele>1659</ele>
        <time>2015-01-10T13:27:45Z</time>
      </trkpt>
      <trkpt lat="42.90797" lon="0.10779">
        <ele>1659</ele>
        <time>2015-01-10T13:27:46Z</time>
      </trkpt>
      <trkpt lat="42.9079" lon="0.1078">
        <ele>1656</ele>
        <time>2015-01-10T13:27:49Z</time>
      </trkpt>
      <trkpt lat="42.90788" lon="0.10782">
        <ele>1657</ele>
        <time>2015-01-10T13:28:00Z</time>
      </trkpt>
      <trkpt lat="42.90782" lon="0.10789">
        <ele>1654</ele>
        <time>2015-01-10T13:28:05Z</time>
      </trkpt>
      <trkpt lat="42.90784" lon="0.10802">
        <ele>1652</ele>
        <time>2015-01-10T13:28:08Z</time>
      </trkpt>
      <trkpt lat="42.90781" lon="0.10809">
        <ele>1651</ele>
        <time>2015-01-10T13:28:10Z</time>
      </trkpt>
      <trkpt lat="42.90773" lon="0.10809">
        <ele>1647</ele>
        <time>2015-01-10T13:28:12Z</time>
      </trkpt>
      <trkpt lat="42.9077" lon="0.1081">
        <ele>1647</ele>
        <time>2015-01-10T13:28:13Z</time>
      </trkpt>
      <trkpt lat="42.90767" lon="0.10812">
        <ele>1643</ele>
        <time>2015-01-10T13:28:14Z</time>
      </trkpt>
      <trkpt lat="42.90764" lon="0.10817">
        <ele>1642</ele>
        <time>2015-01-10T13:28:16Z</time>
      </trkpt>
      <trkpt lat="42.90759" lon="0.10813">
        <ele>1638</ele>
        <time>2015-01-10T13:28:18Z</time>
      </trkpt>
      <trkpt lat="42.90756" lon="0.10811">
        <ele>1638</ele>
        <time>2015-01-10T13:28:19Z</time>
      </trkpt>
      <trkpt lat="42.90751" lon="0.10813">
        <ele>1634</ele>
        <time>2015-01-10T13:28:21Z</time>
      </trkpt>
      <trkpt lat="42.90749" lon="0.10823">
        <ele>1631</ele>
        <time>2015-01-10T13:28:23Z</time>
      </trkpt>
      <trkpt lat="42.90743" lon="0.10826">
        <ele>1628</ele>
        <time>2015-01-10T13:28:26Z</time>
      </trkpt>
      <trkpt lat="42.9074" lon="0.10829">
        <ele>1627</ele>
        <time>2015-01-10T13:28:28Z</time>
      </trkpt>
      <trkpt lat="42.90731" lon="0.10828">
        <ele>1620</ele>
        <time>2015-01-10T13:28:32Z</time>
      </trkpt>
      <trkpt lat="42.90728" lon="0.10832">
        <ele>1620</ele>
        <time>2015-01-10T13:28:33Z</time>
      </trkpt>
      <trkpt lat="42.90724" lon="0.1083">
        <ele>1619</ele>
        <time>2015-01-10T13:28:35Z</time>
      </trkpt>
      <trkpt lat="42.90719" lon="0.10825">
        <ele>1618</ele>
        <time>2015-01-10T13:28:44Z</time>
      </trkpt>
      <trkpt lat="42.90718" lon="0.10824">
        <ele>1618</ele>
        <time>2015-01-10T13:28:48Z</time>
      </trkpt>
      <trkpt lat="42.90715" lon="0.10833">
        <ele>1615</ele>
        <time>2015-01-10T13:28:52Z</time>
      </trkpt>
      <trkpt lat="42.90705" lon="0.10834">
        <ele>1611</ele>
        <time>2015-01-10T13:28:55Z</time>
      </trkpt>
      <trkpt lat="42.90698" lon="0.10831">
        <ele>1608</ele>
        <time>2015-01-10T13:28:57Z</time>
      </trkpt>
      <trkpt lat="42.90687" lon="0.10829">
        <ele>1604</ele>
        <time>2015-01-10T13:29:00Z</time>
      </trkpt>
      <trkpt lat="42.90687" lon="0.10823">
        <ele>1603</ele>
        <time>2015-01-10T13:29:01Z</time>
      </trkpt>
      <trkpt lat="42.90684" lon="0.10816">
        <ele>1602</ele>
        <time>2015-01-10T13:29:05Z</time>
      </trkpt>
      <trkpt lat="42.90681" lon="0.1083">
        <ele>1599</ele>
        <time>2015-01-10T13:29:10Z</time>
      </trkpt>
      <trkpt lat="42.90678" lon="0.10823">
        <ele>1600</ele>
        <time>2015-01-10T13:29:23Z</time>
      </trkpt>
      <trkpt lat="42.90677" lon="0.10823">
        <ele>1599</ele>
        <time>2015-01-10T13:29:24Z</time>
      </trkpt>
      <trkpt lat="42.90668" lon="0.10826">
        <ele>1596</ele>
        <time>2015-01-10T13:29:29Z</time>
      </trkpt>
      <trkpt lat="42.90664" lon="0.1082">
        <ele>1594</ele>
        <time>2015-01-10T13:29:31Z</time>
      </trkpt>
      <trkpt lat="42.9066" lon="0.1081">
        <ele>1592</ele>
        <time>2015-01-10T13:29:34Z</time>
      </trkpt>
      <trkpt lat="42.90654" lon="0.10816">
        <ele>1587</ele>
        <time>2015-01-10T13:29:37Z</time>
      </trkpt>
      <trkpt lat="42.90656" lon="0.10829">
        <ele>1586</ele>
        <time>2015-01-10T13:29:40Z</time>
      </trkpt>
      <trkpt lat="42.90651" lon="0.10833">
        <ele>1585</ele>
        <time>2015-01-10T13:29:48Z</time>
      </trkpt>
      <trkpt lat="42.9065" lon="0.10835">
        <ele>1584</ele>
        <time>2015-01-10T13:30:01Z</time>
      </trkpt>
      <trkpt lat="42.9065" lon="0.10837">
        <ele>1582</ele>
        <time>2015-01-10T13:30:07Z</time>
      </trkpt>
      <trkpt lat="42.90649" lon="0.10845">
        <ele>1581</ele>
        <time>2015-01-10T13:30:23Z</time>
      </trkpt>
      <trkpt lat="42.90649" lon="0.10845">
        <ele>1580</ele>
        <time>2015-01-10T13:30:35Z</time>
      </trkpt>
      <trkpt lat="42.9065" lon="0.10847">
        <ele>1581</ele>
        <time>2015-01-10T13:30:39Z</time>
      </trkpt>
      <trkpt lat="42.90643" lon="0.10839">
        <ele>1580</ele>
        <time>2015-01-10T13:30:44Z</time>
      </trkpt>
      <trkpt lat="42.9064" lon="0.10837">
        <ele>1579</ele>
        <time>2015-01-10T13:30:56Z</time>
      </trkpt>
      <trkpt lat="42.90639" lon="0.1084">
        <ele>1579</ele>
        <time>2015-01-10T13:31:14Z</time>
      </trkpt>
      <trkpt lat="42.90639" lon="0.10841">
        <ele>1578</ele>
        <time>2015-01-10T13:31:32Z</time>
      </trkpt>
      <trkpt lat="42.90638" lon="0.10831">
        <ele>1578</ele>
        <time>2015-01-10T13:31:54Z</time>
      </trkpt>
      <trkpt lat="42.90635" lon="0.10782">
        <ele>1574</ele>
        <time>2015-01-10T13:32:04Z</time>
      </trkpt>
      <trkpt lat="42.90634" lon="0.10759">
        <ele>1572</ele>
        <time>2015-01-10T13:32:08Z</time>
      </trkpt>
      <trkpt lat="42.90634" lon="0.1073">
        <ele>1570</ele>
        <time>2015-01-10T13:32:12Z</time>
      </trkpt>
      <trkpt lat="42.90634" lon="0.10706">
        <ele>1569</ele>
        <time>2015-01-10T13:32:15Z</time>
      </trkpt>
      <trkpt lat="42.90629" lon="0.10672">
        <ele>1567</ele>
        <time>2015-01-10T13:32:20Z</time>
      </trkpt>
      <trkpt lat="42.90627" lon="0.1066">
        <ele>1566</ele>
        <time>2015-01-10T13:32:22Z</time>
      </trkpt>
      <trkpt lat="42.90617" lon="0.10623">
        <ele>1563</ele>
        <time>2015-01-10T13:32:28Z</time>
      </trkpt>
      <trkpt lat="42.90616" lon="0.10617">
        <ele>1563</ele>
        <time>2015-01-10T13:32:29Z</time>
      </trkpt>
      <trkpt lat="42.90614" lon="0.10596">
        <ele>1561</ele>
        <time>2015-01-10T13:32:32Z</time>
      </trkpt>
      <trkpt lat="42.90614" lon="0.1059">
        <ele>1561</ele>
        <time>2015-01-10T13:32:33Z</time>
      </trkpt>
      <trkpt lat="42.90619" lon="0.10563">
        <ele>1558</ele>
        <time>2015-01-10T13:32:37Z</time>
      </trkpt>
      <trkpt lat="42.90628" lon="0.10529">
        <ele>1556</ele>
        <time>2015-01-10T13:32:43Z</time>
      </trkpt>
      <trkpt lat="42.9063" lon="0.10497">
        <ele>1556</ele>
        <time>2015-01-10T13:32:48Z</time>
      </trkpt>
      <trkpt lat="42.90629" lon="0.10468">
        <ele>1554</ele>
        <time>2015-01-10T13:32:52Z</time>
      </trkpt>
      <trkpt lat="42.90635" lon="0.10423">
        <ele>1551</ele>
        <time>2015-01-10T13:32:58Z</time>
      </trkpt>
      <trkpt lat="42.90637" lon="0.10406">
        <ele>1550</ele>
        <time>2015-01-10T13:33:00Z</time>
      </trkpt>
      <trkpt lat="42.90642" lon="0.10376">
        <ele>1548</ele>
        <time>2015-01-10T13:33:04Z</time>
      </trkpt>
      <trkpt lat="42.90642" lon="0.10353">
        <ele>1546</ele>
        <time>2015-01-10T13:33:07Z</time>
      </trkpt>
      <trkpt lat="42.90648" lon="0.10292">
        <ele>1543</ele>
        <time>2015-01-10T13:33:15Z</time>
      </trkpt>
      <trkpt lat="42.90653" lon="0.10248">
        <ele>1540</ele>
        <time>2015-01-10T13:33:22Z</time>
      </trkpt>
      <trkpt lat="42.90656" lon="0.10228">
        <ele>1540</ele>
        <time>2015-01-10T13:33:26Z</time>
      </trkpt>
      <trkpt lat="42.90653" lon="0.10196">
        <ele>1536</ele>
        <time>2015-01-10T13:33:32Z</time>
      </trkpt>
      <trkpt lat="42.90639" lon="0.10195">
        <ele>1535</ele>
        <time>2015-01-10T13:33:35Z</time>
      </trkpt>
      <trkpt lat="42.90631" lon="0.10203">
        <ele>1533</ele>
        <time>2015-01-10T13:33:37Z</time>
      </trkpt>
      <trkpt lat="42.9063" lon="0.10211">
        <ele>1532</ele>
        <time>2015-01-10T13:33:38Z</time>
      </trkpt>
      <trkpt lat="42.90628" lon="0.10267">
        <ele>1530</ele>
        <time>2015-01-10T13:33:49Z</time>
      </trkpt>
      <trkpt lat="42.90624" lon="0.10286">
        <ele>1529</ele>
        <time>2015-01-10T13:33:53Z</time>
      </trkpt>
      <trkpt lat="42.90618" lon="0.10305">
        <ele>1529</ele>
        <time>2015-01-10T13:33:57Z</time>
      </trkpt>
      <trkpt lat="42.9061" lon="0.10327">
        <ele>1528</ele>
        <time>2015-01-10T13:34:02Z</time>
      </trkpt>
      <trkpt lat="42.90604" lon="0.10342">
        <ele>1527</ele>
        <time>2015-01-10T13:34:05Z</time>
      </trkpt>
      <trkpt lat="42.90596" lon="0.10363">
        <ele>1525</ele>
        <time>2015-01-10T13:34:09Z</time>
      </trkpt>
      <trkpt lat="42.90588" lon="0.10384">
        <ele>1524</ele>
        <time>2015-01-10T13:34:13Z</time>
      </trkpt>
      <trkpt lat="42.90584" lon="0.10394">
        <ele>1523</ele>
        <time>2015-01-10T13:34:15Z</time>
      </trkpt>
      <trkpt lat="42.90572" lon="0.10423">
        <ele>1522</ele>
        <time>2015-01-10T13:34:21Z</time>
      </trkpt>
      <trkpt lat="42.90547" lon="0.1047">
        <ele>1519</ele>
        <time>2015-01-10T13:34:32Z</time>
      </trkpt>
      <trkpt lat="42.9054" lon="0.10473">
        <ele>1519</ele>
        <time>2015-01-10T13:34:34Z</time>
      </trkpt>
      <trkpt lat="42.90531" lon="0.10465">
        <ele>1518</ele>
        <time>2015-01-10T13:34:37Z</time>
      </trkpt>
      <trkpt lat="42.9053" lon="0.10453">
        <ele>1516</ele>
        <time>2015-01-10T13:34:39Z</time>
      </trkpt>
      <trkpt lat="42.90531" lon="0.10435">
        <ele>1516</ele>
        <time>2015-01-10T13:34:49Z</time>
      </trkpt>
      <trkpt lat="42.90533" lon="0.10431">
        <ele>1515</ele>
        <time>2015-01-10T13:35:08Z</time>
      </trkpt>
      <trkpt lat="42.90531" lon="0.10432">
        <ele>1515</ele>
        <time>2015-01-10T13:35:27Z</time>
      </trkpt>
      <trkpt lat="42.90529" lon="0.10433">
        <ele>1514</ele>
        <time>2015-01-10T13:35:35Z</time>
      </trkpt>
      <trkpt lat="42.90529" lon="0.10433">
        <ele>1517</ele>
        <time>2015-01-10T13:35:36Z</time>
      </trkpt>
      <trkpt lat="42.90529" lon="0.10433">
        <ele>1515</ele>
        <time>2015-01-10T13:35:37Z</time>
      </trkpt>
      <trkpt lat="42.90538" lon="0.10441">
        <ele>1515</ele>
        <time>2015-01-10T13:35:52Z</time>
      </trkpt>
      <trkpt lat="42.90536" lon="0.10438">
        <ele>1514</ele>
        <time>2015-01-10T13:36:08Z</time>
      </trkpt>
      <trkpt lat="42.90535" lon="0.10435">
        <ele>1513</ele>
        <time>2015-01-10T13:36:25Z</time>
      </trkpt>
      <trkpt lat="42.90532" lon="0.10426">
        <ele>1514</ele>
        <time>2015-01-10T13:36:38Z</time>
      </trkpt>
      <trkpt lat="42.90532" lon="0.10427">
        <ele>1519</ele>
        <time>2015-01-10T13:36:39Z</time>
      </trkpt>
      <trkpt lat="42.90532" lon="0.10427">
        <ele>1515</ele>
        <time>2015-01-10T13:36:40Z</time>
      </trkpt>
      <trkpt lat="42.90532" lon="0.10427">
        <ele>1508</ele>
        <time>2015-01-10T13:36:41Z</time>
      </trkpt>
      <trkpt lat="42.90533" lon="0.10428">
        <ele>1513</ele>
        <time>2015-01-10T13:36:42Z</time>
      </trkpt>
      <trkpt lat="42.90533" lon="0.10427">
        <ele>1521</ele>
        <time>2015-01-10T13:36:43Z</time>
      </trkpt>
      <trkpt lat="42.90535" lon="0.10432">
        <ele>1515</ele>
        <time>2015-01-10T13:36:44Z</time>
      </trkpt>
      <trkpt lat="42.90535" lon="0.1044">
        <ele>1514</ele>
        <time>2015-01-10T13:37:00Z</time>
      </trkpt>
      <trkpt lat="42.90535" lon="0.1044">
        <ele>1518</ele>
        <time>2015-01-10T13:37:06Z</time>
      </trkpt>
      <trkpt lat="42.90535" lon="0.1044">
        <ele>1515</ele>
        <time>2015-01-10T13:37:07Z</time>
      </trkpt>
      <trkpt lat="42.90535" lon="0.10441">
        <ele>1515</ele>
        <time>2015-01-10T13:37:09Z</time>
      </trkpt>
      <trkpt lat="42.90531" lon="0.10433">
        <ele>1514</ele>
        <time>2015-01-10T13:37:14Z</time>
      </trkpt>
      <trkpt lat="42.90533" lon="0.10431">
        <ele>1514</ele>
        <time>2015-01-10T13:37:16Z</time>
      </trkpt>
      <trkpt lat="42.90545" lon="0.10402">
        <ele>1512</ele>
        <time>2015-01-10T13:37:34Z</time>
      </trkpt>
      <trkpt lat="42.90551" lon="0.10391">
        <ele>1508</ele>
        <time>2015-01-10T13:37:44Z</time>
      </trkpt>
      <trkpt lat="42.90551" lon="0.1039">
        <ele>1516</ele>
        <time>2015-01-10T13:37:45Z</time>
      </trkpt>
      <trkpt lat="42.90551" lon="0.1039">
        <ele>1511</ele>
        <time>2015-01-10T13:37:46Z</time>
      </trkpt>
      <trkpt lat="42.90552" lon="0.10392">
        <ele>1512</ele>
        <time>2015-01-10T13:38:02Z</time>
      </trkpt>
      <trkpt lat="42.90552" lon="0.10392">
        <ele>1511</ele>
        <time>2015-01-10T13:38:05Z</time>
      </trkpt>
      <trkpt lat="42.90551" lon="0.10393">
        <ele>1511</ele>
        <time>2015-01-10T13:38:23Z</time>
      </trkpt>
      <trkpt lat="42.90553" lon="0.10393">
        <ele>1511</ele>
        <time>2015-01-10T13:38:38Z</time>
      </trkpt>
      <trkpt lat="42.9055" lon="0.10391">
        <ele>1510</ele>
        <time>2015-01-10T13:38:49Z</time>
      </trkpt>
      <trkpt lat="42.9055" lon="0.10391">
        <ele>1511</ele>
        <time>2015-01-10T13:39:18Z</time>
      </trkpt>
      <trkpt lat="42.9055" lon="0.1039">
        <ele>1511</ele>
        <time>2015-01-10T13:39:44Z</time>
      </trkpt>
      <trkpt lat="42.90552" lon="0.10391">
        <ele>1510</ele>
        <time>2015-01-10T13:40:10Z</time>
      </trkpt>
      <trkpt lat="42.9055" lon="0.10392">
        <ele>1511</ele>
        <time>2015-01-10T13:40:36Z</time>
      </trkpt>
      <trkpt lat="42.90552" lon="0.10393">
        <ele>1511</ele>
        <time>2015-01-10T13:41:04Z</time>
      </trkpt>
      <trkpt lat="42.90551" lon="0.10391">
        <ele>1510</ele>
        <time>2015-01-10T13:41:30Z</time>
      </trkpt>
      <trkpt lat="42.9055" lon="0.10389">
        <ele>1510</ele>
        <time>2015-01-10T13:41:53Z</time>
      </trkpt>
      <trkpt lat="42.90551" lon="0.1039">
        <ele>1511</ele>
        <time>2015-01-10T13:42:13Z</time>
      </trkpt>
      <trkpt lat="42.90551" lon="0.10391">
        <ele>1511</ele>
        <time>2015-01-10T13:42:39Z</time>
      </trkpt>
      <trkpt lat="42.90552" lon="0.10392">
        <ele>1511</ele>
        <time>2015-01-10T13:43:03Z</time>
      </trkpt>
      <trkpt lat="42.90551" lon="0.10392">
        <ele>1511</ele>
        <time>2015-01-10T13:43:27Z</time>
      </trkpt>
      <trkpt lat="42.90554" lon="0.10391">
        <ele>1511</ele>
        <time>2015-01-10T13:43:46Z</time>
      </trkpt>
      <trkpt lat="42.90551" lon="0.10392">
        <ele>1510</ele>
        <time>2015-01-10T13:44:05Z</time>
      </trkpt>
      <trkpt lat="42.90552" lon="0.10392">
        <ele>1510</ele>
        <time>2015-01-10T13:44:24Z</time>
      </trkpt>
      <trkpt lat="42.90552" lon="0.10394">
        <ele>1510</ele>
        <time>2015-01-10T13:44:43Z</time>
      </trkpt>
      <trkpt lat="42.90551" lon="0.10393">
        <ele>1510</ele>
        <time>2015-01-10T13:45:01Z</time>
      </trkpt>
      <trkpt lat="42.90553" lon="0.10392">
        <ele>1510</ele>
        <time>2015-01-10T13:45:22Z</time>
      </trkpt>
      <trkpt lat="42.90552" lon="0.10394">
        <ele>1510</ele>
        <time>2015-01-10T13:45:47Z</time>
      </trkpt>
      <trkpt lat="42.90555" lon="0.10389">
        <ele>1510</ele>
        <time>2015-01-10T13:46:11Z</time>
      </trkpt>
      <trkpt lat="42.90553" lon="0.10393">
        <ele>1510</ele>
        <time>2015-01-10T13:46:35Z</time>
      </trkpt>
      <trkpt lat="42.90554" lon="0.10393">
        <ele>1507</ele>
        <time>2015-01-10T13:46:37Z</time>
      </trkpt>
      <trkpt lat="42.90554" lon="0.10394">
        <ele>1513</ele>
        <time>2015-01-10T13:46:38Z</time>
      </trkpt>
      <trkpt lat="42.90554" lon="0.10393">
        <ele>1511</ele>
        <time>2015-01-10T13:46:49Z</time>
      </trkpt>
      <trkpt lat="42.90552" lon="0.1039">
        <ele>1511</ele>
        <time>2015-01-10T13:47:09Z</time>
      </trkpt>
    </trkseg>
  </trk>
</gpx>